<?xml version="1.0" encoding="UTF-8" standalone="no" ?>
<gpx xmlns="http://www.topografix.com/GPX/1/1" xmlns:xsi="http://www.w3.org/2001/XMLSchema-instance" xsi:schemaLocation="http://www.topografix.com/GPX/1/1 http://www.topografix.com/GPX/1/1/gpx.xsd" version="1.1" creator="VisuGPX - https://www.visugpx.com">
  <metadata>
    <name>Départ du camping du Gouffre de la Croix vers les Grottes de Choranche (Vercors)</name>
    <desc><![CDATA[Départ du camping du Gouffre de la Croix vers les Grottes de Choranche (Vercors) [29 juin 2019]]]></desc>
  </metadata>
  <trk>
    <name><![CDATA[29 juin]]></name>
    <trkseg>
      <trkpt lat="45.0636" lon="5.39552">
        <ele>277.346</ele>
        <time>2019-06-29T14:23:43Z</time>
      </trkpt>
      <trkpt lat="45.06365" lon="5.39548">
        <ele>277.697</ele>
        <time>2019-06-29T14:23:48Z</time>
      </trkpt>
      <trkpt lat="45.06374" lon="5.39543">
        <ele>280.004</ele>
        <time>2019-06-29T14:23:55Z</time>
      </trkpt>
      <trkpt lat="45.06376" lon="5.39542">
        <ele>278.499</ele>
        <time>2019-06-29T14:23:57Z</time>
      </trkpt>
      <trkpt lat="45.0638" lon="5.39544">
        <ele>277.445</ele>
        <time>2019-06-29T14:24:00Z</time>
      </trkpt>
      <trkpt lat="45.06383" lon="5.39544">
        <ele>277.837</ele>
        <time>2019-06-29T14:24:03Z</time>
      </trkpt>
      <trkpt lat="45.06394" lon="5.39535">
        <ele>275.095</ele>
        <time>2019-06-29T14:24:20Z</time>
      </trkpt>
      <trkpt lat="45.06404" lon="5.39526">
        <ele>273.709</ele>
        <time>2019-06-29T14:24:32Z</time>
      </trkpt>
      <trkpt lat="45.06409" lon="5.39517">
        <ele>273.091</ele>
        <time>2019-06-29T14:24:38Z</time>
      </trkpt>
      <trkpt lat="45.06411" lon="5.39508">
        <ele>272.822</ele>
        <time>2019-06-29T14:24:44Z</time>
      </trkpt>
      <trkpt lat="45.06412" lon="5.39502">
        <ele>272.589</ele>
        <time>2019-06-29T14:24:49Z</time>
      </trkpt>
      <trkpt lat="45.06413" lon="5.395">
        <ele>272.518</ele>
        <time>2019-06-29T14:24:52Z</time>
      </trkpt>
      <trkpt lat="45.06414" lon="5.395">
        <ele>272.639</ele>
        <time>2019-06-29T14:24:55Z</time>
      </trkpt>
      <trkpt lat="45.06414" lon="5.39501">
        <ele>272.968</ele>
        <time>2019-06-29T14:24:56Z</time>
      </trkpt>
      <trkpt lat="45.06415" lon="5.39501">
        <ele>272.761</ele>
        <time>2019-06-29T14:24:58Z</time>
      </trkpt>
      <trkpt lat="45.06415" lon="5.39501">
        <ele>272.749</ele>
        <time>2019-06-29T14:25:03Z</time>
      </trkpt>
      <trkpt lat="45.06415" lon="5.39502">
        <ele>272.859</ele>
        <time>2019-06-29T14:25:04Z</time>
      </trkpt>
      <trkpt lat="45.06415" lon="5.39503">
        <ele>272.996</ele>
        <time>2019-06-29T14:25:05Z</time>
      </trkpt>
      <trkpt lat="45.06413" lon="5.39507">
        <ele>275.082</ele>
        <time>2019-06-29T14:25:10Z</time>
      </trkpt>
      <trkpt lat="45.06413" lon="5.39511">
        <ele>276.635</ele>
        <time>2019-06-29T14:25:14Z</time>
      </trkpt>
      <trkpt lat="45.06415" lon="5.39515">
        <ele>275.698</ele>
        <time>2019-06-29T14:25:19Z</time>
      </trkpt>
      <trkpt lat="45.06416" lon="5.39516">
        <ele>276.051</ele>
        <time>2019-06-29T14:25:22Z</time>
      </trkpt>
      <trkpt lat="45.06416" lon="5.39516">
        <ele>275.14</ele>
        <time>2019-06-29T14:25:24Z</time>
      </trkpt>
      <trkpt lat="45.06416" lon="5.39516">
        <ele>275.14</ele>
        <time>2019-06-29T14:25:24Z</time>
      </trkpt>
      <trkpt lat="45.06416" lon="5.39517">
        <ele>275.269</ele>
        <time>2019-06-29T14:25:25Z</time>
      </trkpt>
      <trkpt lat="45.06418" lon="5.39521">
        <ele>275.044</ele>
        <time>2019-06-29T14:25:30Z</time>
      </trkpt>
      <trkpt lat="45.06419" lon="5.39525">
        <ele>273.721</ele>
        <time>2019-06-29T14:25:34Z</time>
      </trkpt>
      <trkpt lat="45.0642" lon="5.39531">
        <ele>273.904</ele>
        <time>2019-06-29T14:25:41Z</time>
      </trkpt>
      <trkpt lat="45.0642" lon="5.39533">
        <ele>273.487</ele>
        <time>2019-06-29T14:25:44Z</time>
      </trkpt>
      <trkpt lat="45.0642" lon="5.39535">
        <ele>273.239</ele>
        <time>2019-06-29T14:25:46Z</time>
      </trkpt>
      <trkpt lat="45.06421" lon="5.39537">
        <ele>272.957</ele>
        <time>2019-06-29T14:25:48Z</time>
      </trkpt>
      <trkpt lat="45.06421" lon="5.39538">
        <ele>273.261</ele>
        <time>2019-06-29T14:25:50Z</time>
      </trkpt>
      <trkpt lat="45.06421" lon="5.39539">
        <ele>273.241</ele>
        <time>2019-06-29T14:25:51Z</time>
      </trkpt>
      <trkpt lat="45.06421" lon="5.3954">
        <ele>273.28</ele>
        <time>2019-06-29T14:25:52Z</time>
      </trkpt>
      <trkpt lat="45.06419" lon="5.39545">
        <ele>272.439</ele>
        <time>2019-06-29T14:25:55Z</time>
      </trkpt>
      <trkpt lat="45.06418" lon="5.39547">
        <ele>272.025</ele>
        <time>2019-06-29T14:25:57Z</time>
      </trkpt>
      <trkpt lat="45.06417" lon="5.39547">
        <ele>272.123</ele>
        <time>2019-06-29T14:25:58Z</time>
      </trkpt>
      <trkpt lat="45.06416" lon="5.39553">
        <ele>272.304</ele>
        <time>2019-06-29T14:26:01Z</time>
      </trkpt>
      <trkpt lat="45.06418" lon="5.39558">
        <ele>271.586</ele>
        <time>2019-06-29T14:26:04Z</time>
      </trkpt>
      <trkpt lat="45.06422" lon="5.39559">
        <ele>270.841</ele>
        <time>2019-06-29T14:26:09Z</time>
      </trkpt>
      <trkpt lat="45.06431" lon="5.39554">
        <ele>270.508</ele>
        <time>2019-06-29T14:26:22Z</time>
      </trkpt>
      <trkpt lat="45.06431" lon="5.39554">
        <ele>270.731</ele>
        <time>2019-06-29T14:26:23Z</time>
      </trkpt>
      <trkpt lat="45.06431" lon="5.39554">
        <ele>270.642</ele>
        <time>2019-06-29T14:26:24Z</time>
      </trkpt>
      <trkpt lat="45.06432" lon="5.39553">
        <ele>270.691</ele>
        <time>2019-06-29T14:26:25Z</time>
      </trkpt>
      <trkpt lat="45.06435" lon="5.39552">
        <ele>271.099</ele>
        <time>2019-06-29T14:26:28Z</time>
      </trkpt>
      <trkpt lat="45.06452" lon="5.39543">
        <ele>271.226</ele>
        <time>2019-06-29T14:26:47Z</time>
      </trkpt>
      <trkpt lat="45.06453" lon="5.39542">
        <ele>271.558</ele>
        <time>2019-06-29T14:26:49Z</time>
      </trkpt>
      <trkpt lat="45.06453" lon="5.39541">
        <ele>271.575</ele>
        <time>2019-06-29T14:26:50Z</time>
      </trkpt>
      <trkpt lat="45.06453" lon="5.39541">
        <ele>271.365</ele>
        <time>2019-06-29T14:26:51Z</time>
      </trkpt>
      <trkpt lat="45.06453" lon="5.39538">
        <ele>271.323</ele>
        <time>2019-06-29T14:26:53Z</time>
      </trkpt>
      <trkpt lat="45.06454" lon="5.39534">
        <ele>270.928</ele>
        <time>2019-06-29T14:26:56Z</time>
      </trkpt>
      <trkpt lat="45.06455" lon="5.39516">
        <ele>270.916</ele>
        <time>2019-06-29T14:27:09Z</time>
      </trkpt>
      <trkpt lat="45.06448" lon="5.3949">
        <ele>271.183</ele>
        <time>2019-06-29T14:27:29Z</time>
      </trkpt>
      <trkpt lat="45.06447" lon="5.39482">
        <ele>272.093</ele>
        <time>2019-06-29T14:27:35Z</time>
      </trkpt>
      <trkpt lat="45.06446" lon="5.39469">
        <ele>272.933</ele>
        <time>2019-06-29T14:27:42Z</time>
      </trkpt>
      <trkpt lat="45.06444" lon="5.39414">
        <ele>273.124</ele>
        <time>2019-06-29T14:28:18Z</time>
      </trkpt>
      <trkpt lat="45.06444" lon="5.39413">
        <ele>273.112</ele>
        <time>2019-06-29T14:28:19Z</time>
      </trkpt>
      <trkpt lat="45.06445" lon="5.39399">
        <ele>272.692</ele>
        <time>2019-06-29T14:28:30Z</time>
      </trkpt>
      <trkpt lat="45.06445" lon="5.39394">
        <ele>272.628</ele>
        <time>2019-06-29T14:28:33Z</time>
      </trkpt>
      <trkpt lat="45.06445" lon="5.39393">
        <ele>272.747</ele>
        <time>2019-06-29T14:28:34Z</time>
      </trkpt>
      <trkpt lat="45.06446" lon="5.39391">
        <ele>272.848</ele>
        <time>2019-06-29T14:28:35Z</time>
      </trkpt>
      <trkpt lat="45.06448" lon="5.39362">
        <ele>273.575</ele>
        <time>2019-06-29T14:28:54Z</time>
      </trkpt>
      <trkpt lat="45.06448" lon="5.39361">
        <ele>273.519</ele>
        <time>2019-06-29T14:28:55Z</time>
      </trkpt>
      <trkpt lat="45.06448" lon="5.3936">
        <ele>273.487</ele>
        <time>2019-06-29T14:28:56Z</time>
      </trkpt>
      <trkpt lat="45.06448" lon="5.39358">
        <ele>273.681</ele>
        <time>2019-06-29T14:28:58Z</time>
      </trkpt>
      <trkpt lat="45.06458" lon="5.39322">
        <ele>275.722</ele>
        <time>2019-06-29T14:29:23Z</time>
      </trkpt>
      <trkpt lat="45.06464" lon="5.39306">
        <ele>276.959</ele>
        <time>2019-06-29T14:29:34Z</time>
      </trkpt>
      <trkpt lat="45.0647" lon="5.39299">
        <ele>277.879</ele>
        <time>2019-06-29T14:29:40Z</time>
      </trkpt>
      <trkpt lat="45.06482" lon="5.39279">
        <ele>276.876</ele>
        <time>2019-06-29T14:29:58Z</time>
      </trkpt>
      <trkpt lat="45.06484" lon="5.39272">
        <ele>275.821</ele>
        <time>2019-06-29T14:30:02Z</time>
      </trkpt>
      <trkpt lat="45.06486" lon="5.39267">
        <ele>274.701</ele>
        <time>2019-06-29T14:30:05Z</time>
      </trkpt>
      <trkpt lat="45.0649" lon="5.39257">
        <ele>274.121</ele>
        <time>2019-06-29T14:30:11Z</time>
      </trkpt>
      <trkpt lat="45.06498" lon="5.39238">
        <ele>272.387</ele>
        <time>2019-06-29T14:30:24Z</time>
      </trkpt>
      <trkpt lat="45.06507" lon="5.39221">
        <ele>271.502</ele>
        <time>2019-06-29T14:30:38Z</time>
      </trkpt>
      <trkpt lat="45.0651" lon="5.39222">
        <ele>271.219</ele>
        <time>2019-06-29T14:30:41Z</time>
      </trkpt>
      <trkpt lat="45.0651" lon="5.39223">
        <ele>270.504</ele>
        <time>2019-06-29T14:30:42Z</time>
      </trkpt>
      <trkpt lat="45.06511" lon="5.39223">
        <ele>270.721</ele>
        <time>2019-06-29T14:30:46Z</time>
      </trkpt>
      <trkpt lat="45.06511" lon="5.39223">
        <ele>270.721</ele>
        <time>2019-06-29T14:30:46Z</time>
      </trkpt>
      <trkpt lat="45.0651" lon="5.39223">
        <ele>270.755</ele>
        <time>2019-06-29T14:30:47Z</time>
      </trkpt>
      <trkpt lat="45.06509" lon="5.39224">
        <ele>269.304</ele>
        <time>2019-06-29T14:30:49Z</time>
      </trkpt>
      <trkpt lat="45.06509" lon="5.39222">
        <ele>268.419</ele>
        <time>2019-06-29T14:30:53Z</time>
      </trkpt>
      <trkpt lat="45.06509" lon="5.39221">
        <ele>268.212</ele>
        <time>2019-06-29T14:30:54Z</time>
      </trkpt>
      <trkpt lat="45.06509" lon="5.39221">
        <ele>267.658</ele>
        <time>2019-06-29T14:30:55Z</time>
      </trkpt>
      <trkpt lat="45.06513" lon="5.3922">
        <ele>265.983</ele>
        <time>2019-06-29T14:31:00Z</time>
      </trkpt>
      <trkpt lat="45.06523" lon="5.39226">
        <ele>264.365</ele>
        <time>2019-06-29T14:31:09Z</time>
      </trkpt>
      <trkpt lat="45.06558" lon="5.39249">
        <ele>265.844</ele>
        <time>2019-06-29T14:31:45Z</time>
      </trkpt>
      <trkpt lat="45.06562" lon="5.3925">
        <ele>265.011</ele>
        <time>2019-06-29T14:31:49Z</time>
      </trkpt>
      <trkpt lat="45.06562" lon="5.3925">
        <ele>265.468</ele>
        <time>2019-06-29T14:31:50Z</time>
      </trkpt>
      <trkpt lat="45.06562" lon="5.3925">
        <ele>266.375</ele>
        <time>2019-06-29T14:32:02Z</time>
      </trkpt>
      <trkpt lat="45.06562" lon="5.39251">
        <ele>266.295</ele>
        <time>2019-06-29T14:32:03Z</time>
      </trkpt>
      <trkpt lat="45.06561" lon="5.3925">
        <ele>266.299</ele>
        <time>2019-06-29T14:32:07Z</time>
      </trkpt>
      <trkpt lat="45.06561" lon="5.3925">
        <ele>266.343</ele>
        <time>2019-06-29T14:32:30Z</time>
      </trkpt>
      <trkpt lat="45.0656" lon="5.3925">
        <ele>266.122</ele>
        <time>2019-06-29T14:32:31Z</time>
      </trkpt>
      <trkpt lat="45.06558" lon="5.39254">
        <ele>263.948</ele>
        <time>2019-06-29T14:32:35Z</time>
      </trkpt>
      <trkpt lat="45.06558" lon="5.39256">
        <ele>264.765</ele>
        <time>2019-06-29T14:32:37Z</time>
      </trkpt>
      <trkpt lat="45.06558" lon="5.39256">
        <ele>264.67</ele>
        <time>2019-06-29T14:32:38Z</time>
      </trkpt>
      <trkpt lat="45.06558" lon="5.39256">
        <ele>264.829</ele>
        <time>2019-06-29T14:32:46Z</time>
      </trkpt>
      <trkpt lat="45.06558" lon="5.39257">
        <ele>264.865</ele>
        <time>2019-06-29T14:32:47Z</time>
      </trkpt>
      <trkpt lat="45.06558" lon="5.39257">
        <ele>265.843</ele>
        <time>2019-06-29T14:32:49Z</time>
      </trkpt>
      <trkpt lat="45.06558" lon="5.39257">
        <ele>265.843</ele>
        <time>2019-06-29T14:32:49Z</time>
      </trkpt>
      <trkpt lat="45.06558" lon="5.39258">
        <ele>266.268</ele>
        <time>2019-06-29T14:32:50Z</time>
      </trkpt>
      <trkpt lat="45.06558" lon="5.39256">
        <ele>261.868</ele>
        <time>2019-06-29T14:32:53Z</time>
      </trkpt>
      <trkpt lat="45.06557" lon="5.39255">
        <ele>261.904</ele>
        <time>2019-06-29T14:33:05Z</time>
      </trkpt>
      <trkpt lat="45.06557" lon="5.39255">
        <ele>261.98</ele>
        <time>2019-06-29T14:33:06Z</time>
      </trkpt>
      <trkpt lat="45.06557" lon="5.39255">
        <ele>262.766</ele>
        <time>2019-06-29T14:33:07Z</time>
      </trkpt>
      <trkpt lat="45.06557" lon="5.39255">
        <ele>262.808</ele>
        <time>2019-06-29T14:33:08Z</time>
      </trkpt>
      <trkpt lat="45.06557" lon="5.39255">
        <ele>262.834</ele>
        <time>2019-06-29T14:33:13Z</time>
      </trkpt>
      <trkpt lat="45.06557" lon="5.39254">
        <ele>262.791</ele>
        <time>2019-06-29T14:33:14Z</time>
      </trkpt>
      <trkpt lat="45.0656" lon="5.39255">
        <ele>265.197</ele>
        <time>2019-06-29T14:33:17Z</time>
      </trkpt>
      <trkpt lat="45.06569" lon="5.39259">
        <ele>267.368</ele>
        <time>2019-06-29T14:33:23Z</time>
      </trkpt>
      <trkpt lat="45.06574" lon="5.39259">
        <ele>267.818</ele>
        <time>2019-06-29T14:33:26Z</time>
      </trkpt>
      <trkpt lat="45.06577" lon="5.3926">
        <ele>267.27</ele>
        <time>2019-06-29T14:33:28Z</time>
      </trkpt>
      <trkpt lat="45.06582" lon="5.39261">
        <ele>267.556</ele>
        <time>2019-06-29T14:33:32Z</time>
      </trkpt>
      <trkpt lat="45.06616" lon="5.39261">
        <ele>268.929</ele>
        <time>2019-06-29T14:34:00Z</time>
      </trkpt>
      <trkpt lat="45.06619" lon="5.3926">
        <ele>267.951</ele>
        <time>2019-06-29T14:34:04Z</time>
      </trkpt>
      <trkpt lat="45.06636" lon="5.39259">
        <ele>269.328</ele>
        <time>2019-06-29T14:34:21Z</time>
      </trkpt>
      <trkpt lat="45.06637" lon="5.3926">
        <ele>269.385</ele>
        <time>2019-06-29T14:34:22Z</time>
      </trkpt>
      <trkpt lat="45.0664" lon="5.3926">
        <ele>269.614</ele>
        <time>2019-06-29T14:34:26Z</time>
      </trkpt>
      <trkpt lat="45.06641" lon="5.3926">
        <ele>269.775</ele>
        <time>2019-06-29T14:34:27Z</time>
      </trkpt>
      <trkpt lat="45.06644" lon="5.39261">
        <ele>269.997</ele>
        <time>2019-06-29T14:34:30Z</time>
      </trkpt>
      <trkpt lat="45.0665" lon="5.3926">
        <ele>270.567</ele>
        <time>2019-06-29T14:34:36Z</time>
      </trkpt>
      <trkpt lat="45.06651" lon="5.3926">
        <ele>270.828</ele>
        <time>2019-06-29T14:34:40Z</time>
      </trkpt>
      <trkpt lat="45.06651" lon="5.3926">
        <ele>270.828</ele>
        <time>2019-06-29T14:34:40Z</time>
      </trkpt>
      <trkpt lat="45.06651" lon="5.3926">
        <ele>270.916</ele>
        <time>2019-06-29T14:34:41Z</time>
      </trkpt>
      <trkpt lat="45.06651" lon="5.3926">
        <ele>271.048</ele>
        <time>2019-06-29T14:34:42Z</time>
      </trkpt>
      <trkpt lat="45.06652" lon="5.39261">
        <ele>271.119</ele>
        <time>2019-06-29T14:34:43Z</time>
      </trkpt>
      <trkpt lat="45.06651" lon="5.39261">
        <ele>270.901</ele>
        <time>2019-06-29T14:34:45Z</time>
      </trkpt>
      <trkpt lat="45.06651" lon="5.39261">
        <ele>271.533</ele>
        <time>2019-06-29T14:34:46Z</time>
      </trkpt>
      <trkpt lat="45.06649" lon="5.39261">
        <ele>271.341</ele>
        <time>2019-06-29T14:34:50Z</time>
      </trkpt>
      <trkpt lat="45.06649" lon="5.39262">
        <ele>271.562</ele>
        <time>2019-06-29T14:34:51Z</time>
      </trkpt>
      <trkpt lat="45.06647" lon="5.39262">
        <ele>271.738</ele>
        <time>2019-06-29T14:34:53Z</time>
      </trkpt>
      <trkpt lat="45.06644" lon="5.39262">
        <ele>271.261</ele>
        <time>2019-06-29T14:34:58Z</time>
      </trkpt>
      <trkpt lat="45.06643" lon="5.3926">
        <ele>271.438</ele>
        <time>2019-06-29T14:35:01Z</time>
      </trkpt>
      <trkpt lat="45.06643" lon="5.3926">
        <ele>271.266</ele>
        <time>2019-06-29T14:35:03Z</time>
      </trkpt>
      <trkpt lat="45.06643" lon="5.3926">
        <ele>271.266</ele>
        <time>2019-06-29T14:35:03Z</time>
      </trkpt>
      <trkpt lat="45.06644" lon="5.39259">
        <ele>271.485</ele>
        <time>2019-06-29T14:35:04Z</time>
      </trkpt>
      <trkpt lat="45.06645" lon="5.39258">
        <ele>271.333</ele>
        <time>2019-06-29T14:35:06Z</time>
      </trkpt>
      <trkpt lat="45.06656" lon="5.39245">
        <ele>271.045</ele>
        <time>2019-06-29T14:35:27Z</time>
      </trkpt>
      <trkpt lat="45.06657" lon="5.39236">
        <ele>271.377</ele>
        <time>2019-06-29T14:35:32Z</time>
      </trkpt>
      <trkpt lat="45.0666" lon="5.3923">
        <ele>271.732</ele>
        <time>2019-06-29T14:35:36Z</time>
      </trkpt>
      <trkpt lat="45.06667" lon="5.39214">
        <ele>272.418</ele>
        <time>2019-06-29T14:35:48Z</time>
      </trkpt>
      <trkpt lat="45.06669" lon="5.39206">
        <ele>272.967</ele>
        <time>2019-06-29T14:35:54Z</time>
      </trkpt>
      <trkpt lat="45.06669" lon="5.39205">
        <ele>272.927</ele>
        <time>2019-06-29T14:35:56Z</time>
      </trkpt>
      <trkpt lat="45.06669" lon="5.39205">
        <ele>273.64</ele>
        <time>2019-06-29T14:36:21Z</time>
      </trkpt>
      <trkpt lat="45.06669" lon="5.39206">
        <ele>273.683</ele>
        <time>2019-06-29T14:36:22Z</time>
      </trkpt>
      <trkpt lat="45.06669" lon="5.39206">
        <ele>273.683</ele>
        <time>2019-06-29T14:36:22Z</time>
      </trkpt>
      <trkpt lat="45.0667" lon="5.39206">
        <ele>273.745</ele>
        <time>2019-06-29T14:36:23Z</time>
      </trkpt>
      <trkpt lat="45.06671" lon="5.39201">
        <ele>272.591</ele>
        <time>2019-06-29T14:36:26Z</time>
      </trkpt>
      <trkpt lat="45.06673" lon="5.39195">
        <ele>272.067</ele>
        <time>2019-06-29T14:36:29Z</time>
      </trkpt>
      <trkpt lat="45.06675" lon="5.39191">
        <ele>272.627</ele>
        <time>2019-06-29T14:36:31Z</time>
      </trkpt>
      <trkpt lat="45.06677" lon="5.39188">
        <ele>273.15</ele>
        <time>2019-06-29T14:36:34Z</time>
      </trkpt>
      <trkpt lat="45.06679" lon="5.39185">
        <ele>273.683</ele>
        <time>2019-06-29T14:36:37Z</time>
      </trkpt>
      <trkpt lat="45.06679" lon="5.39181">
        <ele>274.164</ele>
        <time>2019-06-29T14:36:40Z</time>
      </trkpt>
      <trkpt lat="45.0668" lon="5.39176">
        <ele>275.097</ele>
        <time>2019-06-29T14:36:44Z</time>
      </trkpt>
      <trkpt lat="45.06684" lon="5.39171">
        <ele>276</ele>
        <time>2019-06-29T14:36:48Z</time>
      </trkpt>
      <trkpt lat="45.06686" lon="5.39167">
        <ele>276.466</ele>
        <time>2019-06-29T14:36:51Z</time>
      </trkpt>
      <trkpt lat="45.06683" lon="5.39144">
        <ele>276.854</ele>
        <time>2019-06-29T14:37:06Z</time>
      </trkpt>
      <trkpt lat="45.06681" lon="5.39136">
        <ele>276.57</ele>
        <time>2019-06-29T14:37:12Z</time>
      </trkpt>
      <trkpt lat="45.06679" lon="5.39117">
        <ele>277.881</ele>
        <time>2019-06-29T14:37:22Z</time>
      </trkpt>
      <trkpt lat="45.06679" lon="5.39113">
        <ele>278.459</ele>
        <time>2019-06-29T14:37:25Z</time>
      </trkpt>
      <trkpt lat="45.06679" lon="5.39105">
        <ele>279.433</ele>
        <time>2019-06-29T14:37:30Z</time>
      </trkpt>
      <trkpt lat="45.06681" lon="5.39104">
        <ele>279.081</ele>
        <time>2019-06-29T14:37:33Z</time>
      </trkpt>
      <trkpt lat="45.06683" lon="5.39104">
        <ele>279.025</ele>
        <time>2019-06-29T14:37:36Z</time>
      </trkpt>
      <trkpt lat="45.06683" lon="5.39104">
        <ele>278.392</ele>
        <time>2019-06-29T14:37:37Z</time>
      </trkpt>
      <trkpt lat="45.06683" lon="5.39104">
        <ele>278.25</ele>
        <time>2019-06-29T14:37:38Z</time>
      </trkpt>
      <trkpt lat="45.06683" lon="5.39104">
        <ele>278.2</ele>
        <time>2019-06-29T14:37:39Z</time>
      </trkpt>
      <trkpt lat="45.06683" lon="5.39104">
        <ele>278.2</ele>
        <time>2019-06-29T14:37:39Z</time>
      </trkpt>
      <trkpt lat="45.06683" lon="5.39104">
        <ele>277.886</ele>
        <time>2019-06-29T14:37:40Z</time>
      </trkpt>
      <trkpt lat="45.06683" lon="5.39104">
        <ele>277.886</ele>
        <time>2019-06-29T14:37:40Z</time>
      </trkpt>
      <trkpt lat="45.06683" lon="5.39104">
        <ele>278.025</ele>
        <time>2019-06-29T14:37:41Z</time>
      </trkpt>
      <trkpt lat="45.06683" lon="5.39104">
        <ele>278.025</ele>
        <time>2019-06-29T14:37:41Z</time>
      </trkpt>
      <trkpt lat="45.06683" lon="5.39104">
        <ele>277.821</ele>
        <time>2019-06-29T14:37:42Z</time>
      </trkpt>
      <trkpt lat="45.06683" lon="5.39104">
        <ele>277.821</ele>
        <time>2019-06-29T14:37:42Z</time>
      </trkpt>
      <trkpt lat="45.06683" lon="5.39104">
        <ele>277.752</ele>
        <time>2019-06-29T14:37:43Z</time>
      </trkpt>
      <trkpt lat="45.06683" lon="5.39104">
        <ele>277.51</ele>
        <time>2019-06-29T14:37:50Z</time>
      </trkpt>
      <trkpt lat="45.06683" lon="5.39102">
        <ele>277.517</ele>
        <time>2019-06-29T14:37:51Z</time>
      </trkpt>
      <trkpt lat="45.06683" lon="5.39101">
        <ele>277.438</ele>
        <time>2019-06-29T14:37:52Z</time>
      </trkpt>
      <trkpt lat="45.06683" lon="5.39101">
        <ele>277.438</ele>
        <time>2019-06-29T14:37:52Z</time>
      </trkpt>
      <trkpt lat="45.06684" lon="5.39101">
        <ele>277.566</ele>
        <time>2019-06-29T14:37:53Z</time>
      </trkpt>
      <trkpt lat="45.06683" lon="5.39099">
        <ele>277.306</ele>
        <time>2019-06-29T14:37:54Z</time>
      </trkpt>
      <trkpt lat="45.06679" lon="5.39094">
        <ele>277.863</ele>
        <time>2019-06-29T14:37:58Z</time>
      </trkpt>
      <trkpt lat="45.06677" lon="5.39091">
        <ele>277.354</ele>
        <time>2019-06-29T14:38:01Z</time>
      </trkpt>
      <trkpt lat="45.06668" lon="5.39072">
        <ele>278.451</ele>
        <time>2019-06-29T14:38:10Z</time>
      </trkpt>
      <trkpt lat="45.06668" lon="5.39067">
        <ele>278.492</ele>
        <time>2019-06-29T14:38:13Z</time>
      </trkpt>
      <trkpt lat="45.06665" lon="5.39048">
        <ele>278.601</ele>
        <time>2019-06-29T14:38:27Z</time>
      </trkpt>
      <trkpt lat="45.06663" lon="5.39047">
        <ele>278.899</ele>
        <time>2019-06-29T14:38:30Z</time>
      </trkpt>
      <trkpt lat="45.06663" lon="5.39047">
        <ele>278.797</ele>
        <time>2019-06-29T14:38:31Z</time>
      </trkpt>
      <trkpt lat="45.06663" lon="5.39047">
        <ele>278.797</ele>
        <time>2019-06-29T14:38:31Z</time>
      </trkpt>
      <trkpt lat="45.06663" lon="5.39047">
        <ele>278.65</ele>
        <time>2019-06-29T14:38:32Z</time>
      </trkpt>
      <trkpt lat="45.06662" lon="5.39047">
        <ele>278.513</ele>
        <time>2019-06-29T14:38:34Z</time>
      </trkpt>
      <trkpt lat="45.06662" lon="5.39047">
        <ele>278.518</ele>
        <time>2019-06-29T14:38:35Z</time>
      </trkpt>
      <trkpt lat="45.06662" lon="5.39047">
        <ele>278.845</ele>
        <time>2019-06-29T14:38:36Z</time>
      </trkpt>
      <trkpt lat="45.06661" lon="5.39047">
        <ele>278.702</ele>
        <time>2019-06-29T14:38:37Z</time>
      </trkpt>
      <trkpt lat="45.06661" lon="5.39047">
        <ele>278.937</ele>
        <time>2019-06-29T14:38:39Z</time>
      </trkpt>
      <trkpt lat="45.06661" lon="5.39047">
        <ele>278.937</ele>
        <time>2019-06-29T14:38:39Z</time>
      </trkpt>
      <trkpt lat="45.06661" lon="5.39047">
        <ele>278.704</ele>
        <time>2019-06-29T14:38:40Z</time>
      </trkpt>
      <trkpt lat="45.06661" lon="5.39047">
        <ele>278.591</ele>
        <time>2019-06-29T14:38:42Z</time>
      </trkpt>
      <trkpt lat="45.06661" lon="5.39047">
        <ele>278.591</ele>
        <time>2019-06-29T14:38:42Z</time>
      </trkpt>
      <trkpt lat="45.0666" lon="5.39047">
        <ele>278.629</ele>
        <time>2019-06-29T14:38:43Z</time>
      </trkpt>
      <trkpt lat="45.0666" lon="5.39047">
        <ele>278.629</ele>
        <time>2019-06-29T14:38:43Z</time>
      </trkpt>
      <trkpt lat="45.0666" lon="5.39047">
        <ele>279.052</ele>
        <time>2019-06-29T14:38:44Z</time>
      </trkpt>
      <trkpt lat="45.0666" lon="5.39047">
        <ele>279.052</ele>
        <time>2019-06-29T14:38:44Z</time>
      </trkpt>
      <trkpt lat="45.0666" lon="5.39046">
        <ele>278.683</ele>
        <time>2019-06-29T14:38:45Z</time>
      </trkpt>
      <trkpt lat="45.0666" lon="5.39046">
        <ele>278.665</ele>
        <time>2019-06-29T14:38:46Z</time>
      </trkpt>
      <trkpt lat="45.0666" lon="5.39046">
        <ele>278.427</ele>
        <time>2019-06-29T14:38:47Z</time>
      </trkpt>
      <trkpt lat="45.0666" lon="5.39046">
        <ele>278.339</ele>
        <time>2019-06-29T14:38:49Z</time>
      </trkpt>
      <trkpt lat="45.0666" lon="5.39046">
        <ele>278.613</ele>
        <time>2019-06-29T14:38:50Z</time>
      </trkpt>
      <trkpt lat="45.0666" lon="5.39046">
        <ele>278.235</ele>
        <time>2019-06-29T14:38:51Z</time>
      </trkpt>
      <trkpt lat="45.0666" lon="5.39046">
        <ele>278.941</ele>
        <time>2019-06-29T14:38:53Z</time>
      </trkpt>
      <trkpt lat="45.06662" lon="5.39045">
        <ele>278.767</ele>
        <time>2019-06-29T14:38:54Z</time>
      </trkpt>
      <trkpt lat="45.06663" lon="5.39046">
        <ele>279.806</ele>
        <time>2019-06-29T14:38:56Z</time>
      </trkpt>
      <trkpt lat="45.06661" lon="5.39045">
        <ele>279.752</ele>
        <time>2019-06-29T14:39:00Z</time>
      </trkpt>
      <trkpt lat="45.06661" lon="5.39045">
        <ele>279.851</ele>
        <time>2019-06-29T14:39:01Z</time>
      </trkpt>
      <trkpt lat="45.0666" lon="5.39043">
        <ele>280.298</ele>
        <time>2019-06-29T14:39:02Z</time>
      </trkpt>
      <trkpt lat="45.0666" lon="5.39044">
        <ele>279.043</ele>
        <time>2019-06-29T14:39:04Z</time>
      </trkpt>
      <trkpt lat="45.0666" lon="5.39044">
        <ele>279.082</ele>
        <time>2019-06-29T14:39:05Z</time>
      </trkpt>
      <trkpt lat="45.0666" lon="5.39044">
        <ele>279.208</ele>
        <time>2019-06-29T14:39:10Z</time>
      </trkpt>
      <trkpt lat="45.06658" lon="5.39044">
        <ele>279.113</ele>
        <time>2019-06-29T14:39:11Z</time>
      </trkpt>
      <trkpt lat="45.06659" lon="5.39044">
        <ele>278.412</ele>
        <time>2019-06-29T14:39:13Z</time>
      </trkpt>
      <trkpt lat="45.06659" lon="5.39044">
        <ele>278.412</ele>
        <time>2019-06-29T14:39:13Z</time>
      </trkpt>
      <trkpt lat="45.06659" lon="5.39045">
        <ele>277.326</ele>
        <time>2019-06-29T14:39:14Z</time>
      </trkpt>
      <trkpt lat="45.06659" lon="5.39046">
        <ele>277.972</ele>
        <time>2019-06-29T14:39:15Z</time>
      </trkpt>
      <trkpt lat="45.06659" lon="5.39046">
        <ele>277.972</ele>
        <time>2019-06-29T14:39:15Z</time>
      </trkpt>
      <trkpt lat="45.06659" lon="5.39046">
        <ele>278.234</ele>
        <time>2019-06-29T14:39:16Z</time>
      </trkpt>
      <trkpt lat="45.06659" lon="5.39046">
        <ele>278.234</ele>
        <time>2019-06-29T14:39:16Z</time>
      </trkpt>
      <trkpt lat="45.06659" lon="5.39047">
        <ele>277.599</ele>
        <time>2019-06-29T14:39:17Z</time>
      </trkpt>
      <trkpt lat="45.06659" lon="5.39047">
        <ele>277.599</ele>
        <time>2019-06-29T14:39:17Z</time>
      </trkpt>
      <trkpt lat="45.06659" lon="5.39047">
        <ele>277.56</ele>
        <time>2019-06-29T14:39:18Z</time>
      </trkpt>
      <trkpt lat="45.06659" lon="5.39047">
        <ele>277.707</ele>
        <time>2019-06-29T14:39:34Z</time>
      </trkpt>
      <trkpt lat="45.0666" lon="5.39049">
        <ele>277.641</ele>
        <time>2019-06-29T14:39:35Z</time>
      </trkpt>
      <trkpt lat="45.0666" lon="5.39049">
        <ele>276.269</ele>
        <time>2019-06-29T14:39:37Z</time>
      </trkpt>
      <trkpt lat="45.0666" lon="5.39049">
        <ele>276.283</ele>
        <time>2019-06-29T14:39:45Z</time>
      </trkpt>
      <trkpt lat="45.0666" lon="5.39048">
        <ele>275.9</ele>
        <time>2019-06-29T14:39:46Z</time>
      </trkpt>
      <trkpt lat="45.06661" lon="5.39047">
        <ele>276.153</ele>
        <time>2019-06-29T14:39:48Z</time>
      </trkpt>
      <trkpt lat="45.06662" lon="5.39046">
        <ele>276.169</ele>
        <time>2019-06-29T14:39:49Z</time>
      </trkpt>
      <trkpt lat="45.06663" lon="5.39045">
        <ele>276.712</ele>
        <time>2019-06-29T14:39:50Z</time>
      </trkpt>
      <trkpt lat="45.06665" lon="5.39041">
        <ele>276.387</ele>
        <time>2019-06-29T14:39:53Z</time>
      </trkpt>
      <trkpt lat="45.06666" lon="5.39037">
        <ele>276.795</ele>
        <time>2019-06-29T14:39:56Z</time>
      </trkpt>
      <trkpt lat="45.06665" lon="5.39033">
        <ele>276.451</ele>
        <time>2019-06-29T14:39:59Z</time>
      </trkpt>
      <trkpt lat="45.06664" lon="5.39029">
        <ele>277.156</ele>
        <time>2019-06-29T14:40:02Z</time>
      </trkpt>
      <trkpt lat="45.06661" lon="5.39022">
        <ele>276.204</ele>
        <time>2019-06-29T14:40:06Z</time>
      </trkpt>
      <trkpt lat="45.06661" lon="5.39018">
        <ele>275.968</ele>
        <time>2019-06-29T14:40:09Z</time>
      </trkpt>
      <trkpt lat="45.06662" lon="5.38998">
        <ele>275.506</ele>
        <time>2019-06-29T14:40:21Z</time>
      </trkpt>
      <trkpt lat="45.06673" lon="5.38984">
        <ele>274.053</ele>
        <time>2019-06-29T14:40:32Z</time>
      </trkpt>
      <trkpt lat="45.06683" lon="5.38973">
        <ele>274.879</ele>
        <time>2019-06-29T14:40:43Z</time>
      </trkpt>
      <trkpt lat="45.06684" lon="5.3897">
        <ele>275.012</ele>
        <time>2019-06-29T14:40:45Z</time>
      </trkpt>
      <trkpt lat="45.06686" lon="5.38966">
        <ele>274.94</ele>
        <time>2019-06-29T14:40:49Z</time>
      </trkpt>
      <trkpt lat="45.06693" lon="5.38957">
        <ele>275.874</ele>
        <time>2019-06-29T14:40:57Z</time>
      </trkpt>
      <trkpt lat="45.06703" lon="5.38948">
        <ele>275.864</ele>
        <time>2019-06-29T14:41:07Z</time>
      </trkpt>
      <trkpt lat="45.06723" lon="5.38932">
        <ele>276.942</ele>
        <time>2019-06-29T14:41:28Z</time>
      </trkpt>
      <trkpt lat="45.06723" lon="5.38931">
        <ele>277.194</ele>
        <time>2019-06-29T14:41:29Z</time>
      </trkpt>
      <trkpt lat="45.06723" lon="5.38931">
        <ele>277.39</ele>
        <time>2019-06-29T14:41:30Z</time>
      </trkpt>
      <trkpt lat="45.06723" lon="5.38931">
        <ele>278.153</ele>
        <time>2019-06-29T14:41:32Z</time>
      </trkpt>
      <trkpt lat="45.06721" lon="5.3893">
        <ele>278.166</ele>
        <time>2019-06-29T14:41:33Z</time>
      </trkpt>
      <trkpt lat="45.06721" lon="5.3893">
        <ele>278.17</ele>
        <time>2019-06-29T14:41:34Z</time>
      </trkpt>
      <trkpt lat="45.06721" lon="5.3893">
        <ele>278.17</ele>
        <time>2019-06-29T14:41:34Z</time>
      </trkpt>
      <trkpt lat="45.06721" lon="5.3893">
        <ele>278.308</ele>
        <time>2019-06-29T14:41:35Z</time>
      </trkpt>
      <trkpt lat="45.06721" lon="5.3893">
        <ele>278.607</ele>
        <time>2019-06-29T14:41:36Z</time>
      </trkpt>
      <trkpt lat="45.06721" lon="5.3893">
        <ele>278.598</ele>
        <time>2019-06-29T14:41:37Z</time>
      </trkpt>
      <trkpt lat="45.06721" lon="5.3893">
        <ele>278.234</ele>
        <time>2019-06-29T14:41:38Z</time>
      </trkpt>
      <trkpt lat="45.06721" lon="5.38931">
        <ele>278.569</ele>
        <time>2019-06-29T14:41:39Z</time>
      </trkpt>
      <trkpt lat="45.06721" lon="5.38931">
        <ele>278.569</ele>
        <time>2019-06-29T14:41:39Z</time>
      </trkpt>
      <trkpt lat="45.06721" lon="5.38932">
        <ele>278.639</ele>
        <time>2019-06-29T14:41:40Z</time>
      </trkpt>
      <trkpt lat="45.06724" lon="5.38934">
        <ele>278.439</ele>
        <time>2019-06-29T14:41:44Z</time>
      </trkpt>
      <trkpt lat="45.06725" lon="5.38934">
        <ele>279.604</ele>
        <time>2019-06-29T14:41:46Z</time>
      </trkpt>
      <trkpt lat="45.06725" lon="5.38934">
        <ele>279.604</ele>
        <time>2019-06-29T14:41:46Z</time>
      </trkpt>
      <trkpt lat="45.06727" lon="5.38934">
        <ele>279.461</ele>
        <time>2019-06-29T14:41:47Z</time>
      </trkpt>
      <trkpt lat="45.06731" lon="5.38933">
        <ele>279.435</ele>
        <time>2019-06-29T14:41:49Z</time>
      </trkpt>
      <trkpt lat="45.06744" lon="5.38928">
        <ele>279.631</ele>
        <time>2019-06-29T14:42:00Z</time>
      </trkpt>
      <trkpt lat="45.06744" lon="5.38928">
        <ele>279.559</ele>
        <time>2019-06-29T14:42:01Z</time>
      </trkpt>
      <trkpt lat="45.06744" lon="5.38927">
        <ele>279.632</ele>
        <time>2019-06-29T14:42:02Z</time>
      </trkpt>
      <trkpt lat="45.06745" lon="5.38923">
        <ele>279.642</ele>
        <time>2019-06-29T14:42:06Z</time>
      </trkpt>
      <trkpt lat="45.0675" lon="5.38909">
        <ele>280.04</ele>
        <time>2019-06-29T14:42:16Z</time>
      </trkpt>
      <trkpt lat="45.06751" lon="5.38906">
        <ele>280.489</ele>
        <time>2019-06-29T14:42:19Z</time>
      </trkpt>
      <trkpt lat="45.06751" lon="5.38902">
        <ele>280.664</ele>
        <time>2019-06-29T14:42:24Z</time>
      </trkpt>
      <trkpt lat="45.06752" lon="5.38899">
        <ele>281.063</ele>
        <time>2019-06-29T14:42:29Z</time>
      </trkpt>
      <trkpt lat="45.06752" lon="5.38898">
        <ele>281.343</ele>
        <time>2019-06-29T14:42:33Z</time>
      </trkpt>
      <trkpt lat="45.06752" lon="5.38898">
        <ele>281.343</ele>
        <time>2019-06-29T14:42:33Z</time>
      </trkpt>
      <trkpt lat="45.06751" lon="5.38898">
        <ele>281.348</ele>
        <time>2019-06-29T14:42:34Z</time>
      </trkpt>
      <trkpt lat="45.06751" lon="5.38897">
        <ele>281.238</ele>
        <time>2019-06-29T14:42:37Z</time>
      </trkpt>
      <trkpt lat="45.06751" lon="5.38894">
        <ele>280.716</ele>
        <time>2019-06-29T14:42:41Z</time>
      </trkpt>
      <trkpt lat="45.06752" lon="5.38889">
        <ele>281.247</ele>
        <time>2019-06-29T14:42:45Z</time>
      </trkpt>
      <trkpt lat="45.06752" lon="5.38888">
        <ele>281.143</ele>
        <time>2019-06-29T14:42:47Z</time>
      </trkpt>
      <trkpt lat="45.06751" lon="5.38883">
        <ele>281.96</ele>
        <time>2019-06-29T14:42:53Z</time>
      </trkpt>
      <trkpt lat="45.06751" lon="5.38882">
        <ele>282.14</ele>
        <time>2019-06-29T14:42:54Z</time>
      </trkpt>
      <trkpt lat="45.06754" lon="5.38874">
        <ele>283.098</ele>
        <time>2019-06-29T14:43:01Z</time>
      </trkpt>
      <trkpt lat="45.06754" lon="5.38874">
        <ele>283.297</ele>
        <time>2019-06-29T14:43:02Z</time>
      </trkpt>
      <trkpt lat="45.06756" lon="5.38869">
        <ele>283.294</ele>
        <time>2019-06-29T14:43:06Z</time>
      </trkpt>
      <trkpt lat="45.06757" lon="5.38866">
        <ele>284.048</ele>
        <time>2019-06-29T14:43:09Z</time>
      </trkpt>
      <trkpt lat="45.06759" lon="5.38864">
        <ele>284.186</ele>
        <time>2019-06-29T14:43:11Z</time>
      </trkpt>
      <trkpt lat="45.0676" lon="5.38862">
        <ele>284.815</ele>
        <time>2019-06-29T14:43:13Z</time>
      </trkpt>
      <trkpt lat="45.06761" lon="5.3886">
        <ele>284.968</ele>
        <time>2019-06-29T14:43:15Z</time>
      </trkpt>
      <trkpt lat="45.06763" lon="5.38855">
        <ele>284.725</ele>
        <time>2019-06-29T14:43:21Z</time>
      </trkpt>
      <trkpt lat="45.06763" lon="5.38854">
        <ele>284.753</ele>
        <time>2019-06-29T14:43:22Z</time>
      </trkpt>
      <trkpt lat="45.06765" lon="5.38849">
        <ele>285.28</ele>
        <time>2019-06-29T14:43:27Z</time>
      </trkpt>
      <trkpt lat="45.06766" lon="5.38845">
        <ele>285.759</ele>
        <time>2019-06-29T14:43:32Z</time>
      </trkpt>
      <trkpt lat="45.06767" lon="5.38844">
        <ele>285.902</ele>
        <time>2019-06-29T14:43:33Z</time>
      </trkpt>
      <trkpt lat="45.06767" lon="5.38844">
        <ele>285.507</ele>
        <time>2019-06-29T14:43:34Z</time>
      </trkpt>
      <trkpt lat="45.06769" lon="5.3884">
        <ele>285.8</ele>
        <time>2019-06-29T14:43:37Z</time>
      </trkpt>
      <trkpt lat="45.06769" lon="5.38836">
        <ele>286.274</ele>
        <time>2019-06-29T14:43:40Z</time>
      </trkpt>
      <trkpt lat="45.0677" lon="5.38829">
        <ele>286.341</ele>
        <time>2019-06-29T14:43:47Z</time>
      </trkpt>
      <trkpt lat="45.0677" lon="5.38826">
        <ele>287.078</ele>
        <time>2019-06-29T14:43:51Z</time>
      </trkpt>
      <trkpt lat="45.0677" lon="5.38825">
        <ele>286.778</ele>
        <time>2019-06-29T14:43:53Z</time>
      </trkpt>
      <trkpt lat="45.0677" lon="5.38821">
        <ele>287.806</ele>
        <time>2019-06-29T14:43:56Z</time>
      </trkpt>
      <trkpt lat="45.0677" lon="5.3882">
        <ele>287.644</ele>
        <time>2019-06-29T14:43:57Z</time>
      </trkpt>
      <trkpt lat="45.06774" lon="5.3881">
        <ele>288.611</ele>
        <time>2019-06-29T14:44:09Z</time>
      </trkpt>
      <trkpt lat="45.06776" lon="5.38806">
        <ele>288.61</ele>
        <time>2019-06-29T14:44:13Z</time>
      </trkpt>
      <trkpt lat="45.06778" lon="5.38802">
        <ele>288.668</ele>
        <time>2019-06-29T14:44:16Z</time>
      </trkpt>
      <trkpt lat="45.06779" lon="5.38802">
        <ele>288.532</ele>
        <time>2019-06-29T14:44:17Z</time>
      </trkpt>
      <trkpt lat="45.0678" lon="5.38801">
        <ele>288.356</ele>
        <time>2019-06-29T14:44:18Z</time>
      </trkpt>
      <trkpt lat="45.06782" lon="5.38797">
        <ele>288.386</ele>
        <time>2019-06-29T14:44:21Z</time>
      </trkpt>
      <trkpt lat="45.06791" lon="5.38779">
        <ele>290.546</ele>
        <time>2019-06-29T14:44:35Z</time>
      </trkpt>
      <trkpt lat="45.06794" lon="5.38775">
        <ele>291.765</ele>
        <time>2019-06-29T14:44:40Z</time>
      </trkpt>
      <trkpt lat="45.06794" lon="5.38774">
        <ele>292.005</ele>
        <time>2019-06-29T14:44:41Z</time>
      </trkpt>
      <trkpt lat="45.06796" lon="5.38772">
        <ele>292.813</ele>
        <time>2019-06-29T14:44:44Z</time>
      </trkpt>
      <trkpt lat="45.06796" lon="5.38771">
        <ele>292.626</ele>
        <time>2019-06-29T14:44:45Z</time>
      </trkpt>
      <trkpt lat="45.06804" lon="5.38759">
        <ele>292.715</ele>
        <time>2019-06-29T14:44:57Z</time>
      </trkpt>
      <trkpt lat="45.06804" lon="5.38758">
        <ele>292.722</ele>
        <time>2019-06-29T14:44:58Z</time>
      </trkpt>
      <trkpt lat="45.06806" lon="5.38755">
        <ele>292.946</ele>
        <time>2019-06-29T14:45:01Z</time>
      </trkpt>
      <trkpt lat="45.06806" lon="5.38755">
        <ele>292.756</ele>
        <time>2019-06-29T14:45:03Z</time>
      </trkpt>
      <trkpt lat="45.06806" lon="5.38755">
        <ele>293.412</ele>
        <time>2019-06-29T14:45:12Z</time>
      </trkpt>
      <trkpt lat="45.06809" lon="5.38751">
        <ele>293.278</ele>
        <time>2019-06-29T14:45:13Z</time>
      </trkpt>
      <trkpt lat="45.06811" lon="5.38748">
        <ele>293.568</ele>
        <time>2019-06-29T14:45:18Z</time>
      </trkpt>
      <trkpt lat="45.06817" lon="5.3873">
        <ele>294.936</ele>
        <time>2019-06-29T14:45:34Z</time>
      </trkpt>
      <trkpt lat="45.06824" lon="5.38712">
        <ele>296.982</ele>
        <time>2019-06-29T14:45:49Z</time>
      </trkpt>
      <trkpt lat="45.06825" lon="5.38707">
        <ele>297.137</ele>
        <time>2019-06-29T14:45:53Z</time>
      </trkpt>
      <trkpt lat="45.06828" lon="5.38695">
        <ele>297.322</ele>
        <time>2019-06-29T14:46:03Z</time>
      </trkpt>
      <trkpt lat="45.0683" lon="5.3869">
        <ele>298.143</ele>
        <time>2019-06-29T14:46:07Z</time>
      </trkpt>
      <trkpt lat="45.06834" lon="5.38679">
        <ele>298.885</ele>
        <time>2019-06-29T14:46:17Z</time>
      </trkpt>
      <trkpt lat="45.06836" lon="5.38675">
        <ele>298.457</ele>
        <time>2019-06-29T14:46:21Z</time>
      </trkpt>
      <trkpt lat="45.06839" lon="5.38667">
        <ele>298.589</ele>
        <time>2019-06-29T14:46:28Z</time>
      </trkpt>
      <trkpt lat="45.0684" lon="5.38665">
        <ele>299.149</ele>
        <time>2019-06-29T14:46:30Z</time>
      </trkpt>
      <trkpt lat="45.0684" lon="5.38664">
        <ele>299.159</ele>
        <time>2019-06-29T14:46:31Z</time>
      </trkpt>
      <trkpt lat="45.06842" lon="5.38652">
        <ele>300.778</ele>
        <time>2019-06-29T14:46:42Z</time>
      </trkpt>
      <trkpt lat="45.06842" lon="5.38652">
        <ele>300.694</ele>
        <time>2019-06-29T14:46:43Z</time>
      </trkpt>
      <trkpt lat="45.06842" lon="5.38652">
        <ele>300.803</ele>
        <time>2019-06-29T14:46:44Z</time>
      </trkpt>
      <trkpt lat="45.06842" lon="5.38652">
        <ele>301.558</ele>
        <time>2019-06-29T14:46:48Z</time>
      </trkpt>
      <trkpt lat="45.06843" lon="5.38654">
        <ele>301.843</ele>
        <time>2019-06-29T14:46:49Z</time>
      </trkpt>
      <trkpt lat="45.06843" lon="5.38654">
        <ele>301.717</ele>
        <time>2019-06-29T14:46:50Z</time>
      </trkpt>
      <trkpt lat="45.06843" lon="5.38654">
        <ele>301.401</ele>
        <time>2019-06-29T14:46:52Z</time>
      </trkpt>
      <trkpt lat="45.06843" lon="5.38656">
        <ele>301.567</ele>
        <time>2019-06-29T14:46:53Z</time>
      </trkpt>
      <trkpt lat="45.06843" lon="5.38656">
        <ele>301.876</ele>
        <time>2019-06-29T14:46:55Z</time>
      </trkpt>
      <trkpt lat="45.06843" lon="5.38656">
        <ele>300.135</ele>
        <time>2019-06-29T14:47:13Z</time>
      </trkpt>
      <trkpt lat="45.06844" lon="5.38653">
        <ele>300.07</ele>
        <time>2019-06-29T14:47:14Z</time>
      </trkpt>
      <trkpt lat="45.06846" lon="5.38637">
        <ele>302.263</ele>
        <time>2019-06-29T14:47:25Z</time>
      </trkpt>
      <trkpt lat="45.06847" lon="5.38636">
        <ele>302.851</ele>
        <time>2019-06-29T14:47:26Z</time>
      </trkpt>
      <trkpt lat="45.06847" lon="5.38635">
        <ele>303.066</ele>
        <time>2019-06-29T14:47:27Z</time>
      </trkpt>
      <trkpt lat="45.06851" lon="5.3863">
        <ele>305.275</ele>
        <time>2019-06-29T14:47:32Z</time>
      </trkpt>
      <trkpt lat="45.06859" lon="5.38617">
        <ele>307.532</ele>
        <time>2019-06-29T14:47:45Z</time>
      </trkpt>
      <trkpt lat="45.06861" lon="5.38614">
        <ele>308.182</ele>
        <time>2019-06-29T14:47:48Z</time>
      </trkpt>
      <trkpt lat="45.06862" lon="5.38612">
        <ele>308.596</ele>
        <time>2019-06-29T14:47:50Z</time>
      </trkpt>
      <trkpt lat="45.06863" lon="5.38608">
        <ele>309</ele>
        <time>2019-06-29T14:47:53Z</time>
      </trkpt>
      <trkpt lat="45.06863" lon="5.38608">
        <ele>309.087</ele>
        <time>2019-06-29T14:47:54Z</time>
      </trkpt>
      <trkpt lat="45.06863" lon="5.38607">
        <ele>309.232</ele>
        <time>2019-06-29T14:47:55Z</time>
      </trkpt>
      <trkpt lat="45.06864" lon="5.38605">
        <ele>309.9</ele>
        <time>2019-06-29T14:47:58Z</time>
      </trkpt>
      <trkpt lat="45.06864" lon="5.38604">
        <ele>310.452</ele>
        <time>2019-06-29T14:48:01Z</time>
      </trkpt>
      <trkpt lat="45.06864" lon="5.38604">
        <ele>310.452</ele>
        <time>2019-06-29T14:48:01Z</time>
      </trkpt>
      <trkpt lat="45.06864" lon="5.38604">
        <ele>310.558</ele>
        <time>2019-06-29T14:48:02Z</time>
      </trkpt>
      <trkpt lat="45.06864" lon="5.38604">
        <ele>310.459</ele>
        <time>2019-06-29T14:48:42Z</time>
      </trkpt>
      <trkpt lat="45.06864" lon="5.38604">
        <ele>311.203</ele>
        <time>2019-06-29T14:48:43Z</time>
      </trkpt>
      <trkpt lat="45.06865" lon="5.38602">
        <ele>312.285</ele>
        <time>2019-06-29T14:48:47Z</time>
      </trkpt>
      <trkpt lat="45.06865" lon="5.38597">
        <ele>314.168</ele>
        <time>2019-06-29T14:48:50Z</time>
      </trkpt>
      <trkpt lat="45.06865" lon="5.38597">
        <ele>314.711</ele>
        <time>2019-06-29T14:48:51Z</time>
      </trkpt>
      <trkpt lat="45.06865" lon="5.38597">
        <ele>315.698</ele>
        <time>2019-06-29T14:48:52Z</time>
      </trkpt>
      <trkpt lat="45.06865" lon="5.38597">
        <ele>315.698</ele>
        <time>2019-06-29T14:48:52Z</time>
      </trkpt>
      <trkpt lat="45.06865" lon="5.38597">
        <ele>316.561</ele>
        <time>2019-06-29T14:48:53Z</time>
      </trkpt>
      <trkpt lat="45.06866" lon="5.38597">
        <ele>318.315</ele>
        <time>2019-06-29T14:48:56Z</time>
      </trkpt>
      <trkpt lat="45.06866" lon="5.38597">
        <ele>313.339</ele>
        <time>2019-06-29T14:50:00Z</time>
      </trkpt>
      <trkpt lat="45.06867" lon="5.38596">
        <ele>313.29</ele>
        <time>2019-06-29T14:50:01Z</time>
      </trkpt>
      <trkpt lat="45.06867" lon="5.38595">
        <ele>315.118</ele>
        <time>2019-06-29T14:50:03Z</time>
      </trkpt>
      <trkpt lat="45.06871" lon="5.38588">
        <ele>317.131</ele>
        <time>2019-06-29T14:50:09Z</time>
      </trkpt>
      <trkpt lat="45.06875" lon="5.38579">
        <ele>318.471</ele>
        <time>2019-06-29T14:50:18Z</time>
      </trkpt>
      <trkpt lat="45.06875" lon="5.38578">
        <ele>318.314</ele>
        <time>2019-06-29T14:50:19Z</time>
      </trkpt>
      <trkpt lat="45.06876" lon="5.38573">
        <ele>319.087</ele>
        <time>2019-06-29T14:50:24Z</time>
      </trkpt>
      <trkpt lat="45.06875" lon="5.38573">
        <ele>319.542</ele>
        <time>2019-06-29T14:50:25Z</time>
      </trkpt>
      <trkpt lat="45.06875" lon="5.38568">
        <ele>320.461</ele>
        <time>2019-06-29T14:50:30Z</time>
      </trkpt>
      <trkpt lat="45.06876" lon="5.38567">
        <ele>320.798</ele>
        <time>2019-06-29T14:50:32Z</time>
      </trkpt>
      <trkpt lat="45.06876" lon="5.38565">
        <ele>321.275</ele>
        <time>2019-06-29T14:50:35Z</time>
      </trkpt>
      <trkpt lat="45.06875" lon="5.3856">
        <ele>321.691</ele>
        <time>2019-06-29T14:50:40Z</time>
      </trkpt>
      <trkpt lat="45.06873" lon="5.38553">
        <ele>322.984</ele>
        <time>2019-06-29T14:50:46Z</time>
      </trkpt>
      <trkpt lat="45.06873" lon="5.3855">
        <ele>323.055</ele>
        <time>2019-06-29T14:50:50Z</time>
      </trkpt>
      <trkpt lat="45.06873" lon="5.38546">
        <ele>323.551</ele>
        <time>2019-06-29T14:50:53Z</time>
      </trkpt>
      <trkpt lat="45.06875" lon="5.38541">
        <ele>323.999</ele>
        <time>2019-06-29T14:50:57Z</time>
      </trkpt>
      <trkpt lat="45.06878" lon="5.38538">
        <ele>324.283</ele>
        <time>2019-06-29T14:51:01Z</time>
      </trkpt>
      <trkpt lat="45.06881" lon="5.38537">
        <ele>324.726</ele>
        <time>2019-06-29T14:51:04Z</time>
      </trkpt>
      <trkpt lat="45.06892" lon="5.38532">
        <ele>324.636</ele>
        <time>2019-06-29T14:51:16Z</time>
      </trkpt>
      <trkpt lat="45.06894" lon="5.38532">
        <ele>326.057</ele>
        <time>2019-06-29T14:51:18Z</time>
      </trkpt>
      <trkpt lat="45.06897" lon="5.38532">
        <ele>325.515</ele>
        <time>2019-06-29T14:51:21Z</time>
      </trkpt>
      <trkpt lat="45.06903" lon="5.38532">
        <ele>325.04</ele>
        <time>2019-06-29T14:51:25Z</time>
      </trkpt>
      <trkpt lat="45.06908" lon="5.3853">
        <ele>324.016</ele>
        <time>2019-06-29T14:51:30Z</time>
      </trkpt>
      <trkpt lat="45.06908" lon="5.3853">
        <ele>323.766</ele>
        <time>2019-06-29T14:51:33Z</time>
      </trkpt>
      <trkpt lat="45.06909" lon="5.3853">
        <ele>323.966</ele>
        <time>2019-06-29T14:51:34Z</time>
      </trkpt>
      <trkpt lat="45.0691" lon="5.38526">
        <ele>327.132</ele>
        <time>2019-06-29T14:51:40Z</time>
      </trkpt>
      <trkpt lat="45.06911" lon="5.38524">
        <ele>326.553</ele>
        <time>2019-06-29T14:51:43Z</time>
      </trkpt>
      <trkpt lat="45.06911" lon="5.38524">
        <ele>326.553</ele>
        <time>2019-06-29T14:51:43Z</time>
      </trkpt>
      <trkpt lat="45.06911" lon="5.38524">
        <ele>326.501</ele>
        <time>2019-06-29T14:51:44Z</time>
      </trkpt>
      <trkpt lat="45.06912" lon="5.38523">
        <ele>326.931</ele>
        <time>2019-06-29T14:51:46Z</time>
      </trkpt>
      <trkpt lat="45.06914" lon="5.38525">
        <ele>326.775</ele>
        <time>2019-06-29T14:51:50Z</time>
      </trkpt>
      <trkpt lat="45.06916" lon="5.38525">
        <ele>327.812</ele>
        <time>2019-06-29T14:51:51Z</time>
      </trkpt>
      <trkpt lat="45.06917" lon="5.38523">
        <ele>327.731</ele>
        <time>2019-06-29T14:51:52Z</time>
      </trkpt>
      <trkpt lat="45.06917" lon="5.3852">
        <ele>327.249</ele>
        <time>2019-06-29T14:51:54Z</time>
      </trkpt>
      <trkpt lat="45.06916" lon="5.38518">
        <ele>326.507</ele>
        <time>2019-06-29T14:51:56Z</time>
      </trkpt>
      <trkpt lat="45.06916" lon="5.38518">
        <ele>326.507</ele>
        <time>2019-06-29T14:51:56Z</time>
      </trkpt>
      <trkpt lat="45.06914" lon="5.38515">
        <ele>326.444</ele>
        <time>2019-06-29T14:51:57Z</time>
      </trkpt>
      <trkpt lat="45.06914" lon="5.38515">
        <ele>326.263</ele>
        <time>2019-06-29T14:51:58Z</time>
      </trkpt>
      <trkpt lat="45.06914" lon="5.38513">
        <ele>325.005</ele>
        <time>2019-06-29T14:52:00Z</time>
      </trkpt>
      <trkpt lat="45.06914" lon="5.38512">
        <ele>324.54</ele>
        <time>2019-06-29T14:52:02Z</time>
      </trkpt>
      <trkpt lat="45.06915" lon="5.38511">
        <ele>324.232</ele>
        <time>2019-06-29T14:52:04Z</time>
      </trkpt>
      <trkpt lat="45.06915" lon="5.38511">
        <ele>325.914</ele>
        <time>2019-06-29T14:52:05Z</time>
      </trkpt>
      <trkpt lat="45.06915" lon="5.38511">
        <ele>325.914</ele>
        <time>2019-06-29T14:52:05Z</time>
      </trkpt>
      <trkpt lat="45.06915" lon="5.3851">
        <ele>326.409</ele>
        <time>2019-06-29T14:52:06Z</time>
      </trkpt>
      <trkpt lat="45.06915" lon="5.38511">
        <ele>326.958</ele>
        <time>2019-06-29T14:52:08Z</time>
      </trkpt>
      <trkpt lat="45.06915" lon="5.38511">
        <ele>327.348</ele>
        <time>2019-06-29T14:52:10Z</time>
      </trkpt>
      <trkpt lat="45.06915" lon="5.38511">
        <ele>325.376</ele>
        <time>2019-06-29T14:52:39Z</time>
      </trkpt>
      <trkpt lat="45.06913" lon="5.38512">
        <ele>325.477</ele>
        <time>2019-06-29T14:52:40Z</time>
      </trkpt>
      <trkpt lat="45.06913" lon="5.38511">
        <ele>325.343</ele>
        <time>2019-06-29T14:52:41Z</time>
      </trkpt>
      <trkpt lat="45.06915" lon="5.3851">
        <ele>324.942</ele>
        <time>2019-06-29T14:52:43Z</time>
      </trkpt>
      <trkpt lat="45.06916" lon="5.38509">
        <ele>324.624</ele>
        <time>2019-06-29T14:52:45Z</time>
      </trkpt>
      <trkpt lat="45.06917" lon="5.38509">
        <ele>325.7</ele>
        <time>2019-06-29T14:52:46Z</time>
      </trkpt>
      <trkpt lat="45.06917" lon="5.38509">
        <ele>326.003</ele>
        <time>2019-06-29T14:52:47Z</time>
      </trkpt>
      <trkpt lat="45.06917" lon="5.38509">
        <ele>327.177</ele>
        <time>2019-06-29T14:52:48Z</time>
      </trkpt>
      <trkpt lat="45.06917" lon="5.38509">
        <ele>327.177</ele>
        <time>2019-06-29T14:52:48Z</time>
      </trkpt>
      <trkpt lat="45.06918" lon="5.38509">
        <ele>327.845</ele>
        <time>2019-06-29T14:52:49Z</time>
      </trkpt>
      <trkpt lat="45.06918" lon="5.38509">
        <ele>328.83</ele>
        <time>2019-06-29T14:52:50Z</time>
      </trkpt>
      <trkpt lat="45.06918" lon="5.38508">
        <ele>329.028</ele>
        <time>2019-06-29T14:52:51Z</time>
      </trkpt>
      <trkpt lat="45.06918" lon="5.38507">
        <ele>329.014</ele>
        <time>2019-06-29T14:52:52Z</time>
      </trkpt>
      <trkpt lat="45.06919" lon="5.38504">
        <ele>328.912</ele>
        <time>2019-06-29T14:52:56Z</time>
      </trkpt>
      <trkpt lat="45.06919" lon="5.38503">
        <ele>329.1</ele>
        <time>2019-06-29T14:52:57Z</time>
      </trkpt>
      <trkpt lat="45.06919" lon="5.38503">
        <ele>329.1</ele>
        <time>2019-06-29T14:52:57Z</time>
      </trkpt>
      <trkpt lat="45.06919" lon="5.38503">
        <ele>329.244</ele>
        <time>2019-06-29T14:52:58Z</time>
      </trkpt>
      <trkpt lat="45.06919" lon="5.38503">
        <ele>329.483</ele>
        <time>2019-06-29T14:53:05Z</time>
      </trkpt>
      <trkpt lat="45.0692" lon="5.38499">
        <ele>330.168</ele>
        <time>2019-06-29T14:53:06Z</time>
      </trkpt>
      <trkpt lat="45.06919" lon="5.38496">
        <ele>330.376</ele>
        <time>2019-06-29T14:53:10Z</time>
      </trkpt>
      <trkpt lat="45.06919" lon="5.38496">
        <ele>330.376</ele>
        <time>2019-06-29T14:53:10Z</time>
      </trkpt>
      <trkpt lat="45.06919" lon="5.38495">
        <ele>331.187</ele>
        <time>2019-06-29T14:53:11Z</time>
      </trkpt>
      <trkpt lat="45.06919" lon="5.38495">
        <ele>331.838</ele>
        <time>2019-06-29T14:53:12Z</time>
      </trkpt>
      <trkpt lat="45.06919" lon="5.38495">
        <ele>332.382</ele>
        <time>2019-06-29T14:53:18Z</time>
      </trkpt>
      <trkpt lat="45.06917" lon="5.38498">
        <ele>332.307</ele>
        <time>2019-06-29T14:53:19Z</time>
      </trkpt>
      <trkpt lat="45.06917" lon="5.38498">
        <ele>332.081</ele>
        <time>2019-06-29T14:53:20Z</time>
      </trkpt>
      <trkpt lat="45.06917" lon="5.38498">
        <ele>331.85</ele>
        <time>2019-06-29T14:53:21Z</time>
      </trkpt>
      <trkpt lat="45.06917" lon="5.38498">
        <ele>331.367</ele>
        <time>2019-06-29T14:53:23Z</time>
      </trkpt>
      <trkpt lat="45.06917" lon="5.38496">
        <ele>330.657</ele>
        <time>2019-06-29T14:53:24Z</time>
      </trkpt>
      <trkpt lat="45.06916" lon="5.38495">
        <ele>331.733</ele>
        <time>2019-06-29T14:53:25Z</time>
      </trkpt>
      <trkpt lat="45.06915" lon="5.3849">
        <ele>334.168</ele>
        <time>2019-06-29T14:53:28Z</time>
      </trkpt>
      <trkpt lat="45.06915" lon="5.38484">
        <ele>336.212</ele>
        <time>2019-06-29T14:53:31Z</time>
      </trkpt>
      <trkpt lat="45.06917" lon="5.38481">
        <ele>335.764</ele>
        <time>2019-06-29T14:53:34Z</time>
      </trkpt>
      <trkpt lat="45.06917" lon="5.3848">
        <ele>336.355</ele>
        <time>2019-06-29T14:53:35Z</time>
      </trkpt>
      <trkpt lat="45.0692" lon="5.38484">
        <ele>336.8</ele>
        <time>2019-06-29T14:53:40Z</time>
      </trkpt>
      <trkpt lat="45.0692" lon="5.38488">
        <ele>338.256</ele>
        <time>2019-06-29T14:53:44Z</time>
      </trkpt>
      <trkpt lat="45.06917" lon="5.385">
        <ele>338.223</ele>
        <time>2019-06-29T14:53:53Z</time>
      </trkpt>
      <trkpt lat="45.06912" lon="5.38524">
        <ele>337.327</ele>
        <time>2019-06-29T14:54:08Z</time>
      </trkpt>
      <trkpt lat="45.06906" lon="5.38556">
        <ele>336.813</ele>
        <time>2019-06-29T14:54:27Z</time>
      </trkpt>
      <trkpt lat="45.06905" lon="5.38561">
        <ele>335.714</ele>
        <time>2019-06-29T14:54:34Z</time>
      </trkpt>
      <trkpt lat="45.06905" lon="5.38562">
        <ele>335.214</ele>
        <time>2019-06-29T14:54:35Z</time>
      </trkpt>
      <trkpt lat="45.06906" lon="5.38569">
        <ele>335.599</ele>
        <time>2019-06-29T14:54:39Z</time>
      </trkpt>
      <trkpt lat="45.06907" lon="5.38579">
        <ele>336.93</ele>
        <time>2019-06-29T14:54:43Z</time>
      </trkpt>
      <trkpt lat="45.06907" lon="5.38583">
        <ele>337.277</ele>
        <time>2019-06-29T14:54:45Z</time>
      </trkpt>
      <trkpt lat="45.06906" lon="5.38587">
        <ele>336.588</ele>
        <time>2019-06-29T14:54:49Z</time>
      </trkpt>
      <trkpt lat="45.06905" lon="5.38598">
        <ele>337.796</ele>
        <time>2019-06-29T14:54:56Z</time>
      </trkpt>
      <trkpt lat="45.06905" lon="5.38616">
        <ele>338.98</ele>
        <time>2019-06-29T14:55:07Z</time>
      </trkpt>
      <trkpt lat="45.06905" lon="5.38618">
        <ele>338.669</ele>
        <time>2019-06-29T14:55:08Z</time>
      </trkpt>
      <trkpt lat="45.06905" lon="5.38632">
        <ele>339.883</ele>
        <time>2019-06-29T14:55:19Z</time>
      </trkpt>
      <trkpt lat="45.06906" lon="5.38653">
        <ele>340.957</ele>
        <time>2019-06-29T14:55:31Z</time>
      </trkpt>
      <trkpt lat="45.06906" lon="5.38654">
        <ele>341.012</ele>
        <time>2019-06-29T14:55:32Z</time>
      </trkpt>
      <trkpt lat="45.06905" lon="5.38659">
        <ele>341.426</ele>
        <time>2019-06-29T14:55:35Z</time>
      </trkpt>
      <trkpt lat="45.06903" lon="5.38669">
        <ele>342.087</ele>
        <time>2019-06-29T14:55:42Z</time>
      </trkpt>
      <trkpt lat="45.06903" lon="5.38674">
        <ele>342.344</ele>
        <time>2019-06-29T14:55:46Z</time>
      </trkpt>
      <trkpt lat="45.06904" lon="5.38699">
        <ele>342.953</ele>
        <time>2019-06-29T14:56:01Z</time>
      </trkpt>
      <trkpt lat="45.06911" lon="5.3872">
        <ele>343.629</ele>
        <time>2019-06-29T14:56:14Z</time>
      </trkpt>
      <trkpt lat="45.06921" lon="5.38747">
        <ele>344.891</ele>
        <time>2019-06-29T14:56:31Z</time>
      </trkpt>
      <trkpt lat="45.06922" lon="5.38752">
        <ele>346.592</ele>
        <time>2019-06-29T14:56:34Z</time>
      </trkpt>
      <trkpt lat="45.06922" lon="5.38753">
        <ele>346.811</ele>
        <time>2019-06-29T14:56:35Z</time>
      </trkpt>
      <trkpt lat="45.06922" lon="5.38754">
        <ele>346.623</ele>
        <time>2019-06-29T14:56:37Z</time>
      </trkpt>
      <trkpt lat="45.06922" lon="5.38754">
        <ele>346.626</ele>
        <time>2019-06-29T14:56:42Z</time>
      </trkpt>
      <trkpt lat="45.06922" lon="5.38756">
        <ele>346.664</ele>
        <time>2019-06-29T14:56:43Z</time>
      </trkpt>
      <trkpt lat="45.06922" lon="5.38756">
        <ele>346.748</ele>
        <time>2019-06-29T14:56:45Z</time>
      </trkpt>
      <trkpt lat="45.06922" lon="5.38756">
        <ele>346.748</ele>
        <time>2019-06-29T14:56:45Z</time>
      </trkpt>
      <trkpt lat="45.06923" lon="5.38756">
        <ele>346.616</ele>
        <time>2019-06-29T14:56:46Z</time>
      </trkpt>
      <trkpt lat="45.06923" lon="5.38757">
        <ele>346.578</ele>
        <time>2019-06-29T14:56:47Z</time>
      </trkpt>
      <trkpt lat="45.06927" lon="5.38763">
        <ele>346.165</ele>
        <time>2019-06-29T14:56:51Z</time>
      </trkpt>
      <trkpt lat="45.06934" lon="5.38779">
        <ele>346.657</ele>
        <time>2019-06-29T14:57:01Z</time>
      </trkpt>
      <trkpt lat="45.06937" lon="5.38787">
        <ele>345.992</ele>
        <time>2019-06-29T14:57:09Z</time>
      </trkpt>
      <trkpt lat="45.06937" lon="5.38787">
        <ele>345.149</ele>
        <time>2019-06-29T14:57:25Z</time>
      </trkpt>
      <trkpt lat="45.06937" lon="5.38788">
        <ele>345.55</ele>
        <time>2019-06-29T14:57:26Z</time>
      </trkpt>
      <trkpt lat="45.0694" lon="5.38791">
        <ele>344.463</ele>
        <time>2019-06-29T14:57:30Z</time>
      </trkpt>
      <trkpt lat="45.06942" lon="5.38794">
        <ele>344.949</ele>
        <time>2019-06-29T14:57:33Z</time>
      </trkpt>
      <trkpt lat="45.06943" lon="5.38799">
        <ele>344.962</ele>
        <time>2019-06-29T14:57:36Z</time>
      </trkpt>
      <trkpt lat="45.06949" lon="5.38845">
        <ele>346.092</ele>
        <time>2019-06-29T14:57:59Z</time>
      </trkpt>
      <trkpt lat="45.06949" lon="5.38846">
        <ele>346.466</ele>
        <time>2019-06-29T14:58:00Z</time>
      </trkpt>
      <trkpt lat="45.06953" lon="5.38867">
        <ele>346.36</ele>
        <time>2019-06-29T14:58:14Z</time>
      </trkpt>
      <trkpt lat="45.06954" lon="5.38874">
        <ele>346.35</ele>
        <time>2019-06-29T14:58:19Z</time>
      </trkpt>
      <trkpt lat="45.06959" lon="5.38884">
        <ele>346.837</ele>
        <time>2019-06-29T14:58:27Z</time>
      </trkpt>
      <trkpt lat="45.06961" lon="5.38887">
        <ele>347.326</ele>
        <time>2019-06-29T14:58:30Z</time>
      </trkpt>
      <trkpt lat="45.06964" lon="5.3889">
        <ele>346.983</ele>
        <time>2019-06-29T14:58:33Z</time>
      </trkpt>
      <trkpt lat="45.06967" lon="5.38891">
        <ele>347.058</ele>
        <time>2019-06-29T14:58:37Z</time>
      </trkpt>
      <trkpt lat="45.06969" lon="5.3889">
        <ele>346.935</ele>
        <time>2019-06-29T14:58:38Z</time>
      </trkpt>
      <trkpt lat="45.06975" lon="5.38884">
        <ele>347.188</ele>
        <time>2019-06-29T14:58:42Z</time>
      </trkpt>
      <trkpt lat="45.06976" lon="5.38884">
        <ele>347.603</ele>
        <time>2019-06-29T14:58:45Z</time>
      </trkpt>
      <trkpt lat="45.06977" lon="5.38884">
        <ele>347.909</ele>
        <time>2019-06-29T14:58:46Z</time>
      </trkpt>
      <trkpt lat="45.06976" lon="5.38885">
        <ele>348.285</ele>
        <time>2019-06-29T14:58:48Z</time>
      </trkpt>
      <trkpt lat="45.06976" lon="5.38885">
        <ele>348.433</ele>
        <time>2019-06-29T14:58:49Z</time>
      </trkpt>
      <trkpt lat="45.06976" lon="5.38885">
        <ele>348.513</ele>
        <time>2019-06-29T14:58:50Z</time>
      </trkpt>
      <trkpt lat="45.06976" lon="5.38885">
        <ele>348.442</ele>
        <time>2019-06-29T14:58:51Z</time>
      </trkpt>
      <trkpt lat="45.06977" lon="5.38886">
        <ele>348.429</ele>
        <time>2019-06-29T14:58:52Z</time>
      </trkpt>
      <trkpt lat="45.06977" lon="5.38887">
        <ele>348.267</ele>
        <time>2019-06-29T14:58:54Z</time>
      </trkpt>
      <trkpt lat="45.06976" lon="5.38887">
        <ele>348.218</ele>
        <time>2019-06-29T14:58:55Z</time>
      </trkpt>
      <trkpt lat="45.06976" lon="5.38887">
        <ele>348.102</ele>
        <time>2019-06-29T14:58:56Z</time>
      </trkpt>
      <trkpt lat="45.06977" lon="5.38886">
        <ele>348.229</ele>
        <time>2019-06-29T14:58:59Z</time>
      </trkpt>
      <trkpt lat="45.0698" lon="5.38885">
        <ele>348.421</ele>
        <time>2019-06-29T14:59:02Z</time>
      </trkpt>
      <trkpt lat="45.06981" lon="5.38885">
        <ele>348.613</ele>
        <time>2019-06-29T14:59:04Z</time>
      </trkpt>
      <trkpt lat="45.06981" lon="5.38885">
        <ele>348.613</ele>
        <time>2019-06-29T14:59:04Z</time>
      </trkpt>
      <trkpt lat="45.06982" lon="5.38885">
        <ele>348.573</ele>
        <time>2019-06-29T14:59:05Z</time>
      </trkpt>
      <trkpt lat="45.06985" lon="5.38886">
        <ele>348.459</ele>
        <time>2019-06-29T14:59:08Z</time>
      </trkpt>
      <trkpt lat="45.06988" lon="5.38884">
        <ele>349.172</ele>
        <time>2019-06-29T14:59:11Z</time>
      </trkpt>
      <trkpt lat="45.0699" lon="5.38883">
        <ele>349.288</ele>
        <time>2019-06-29T14:59:13Z</time>
      </trkpt>
      <trkpt lat="45.0699" lon="5.3888">
        <ele>349.117</ele>
        <time>2019-06-29T14:59:15Z</time>
      </trkpt>
      <trkpt lat="45.06992" lon="5.38877">
        <ele>349.205</ele>
        <time>2019-06-29T14:59:18Z</time>
      </trkpt>
      <trkpt lat="45.06995" lon="5.38877">
        <ele>349.973</ele>
        <time>2019-06-29T14:59:20Z</time>
      </trkpt>
      <trkpt lat="45.06995" lon="5.38877">
        <ele>349.68</ele>
        <time>2019-06-29T14:59:21Z</time>
      </trkpt>
      <trkpt lat="45.06996" lon="5.38877">
        <ele>350.085</ele>
        <time>2019-06-29T14:59:22Z</time>
      </trkpt>
      <trkpt lat="45.06995" lon="5.38876">
        <ele>350.147</ele>
        <time>2019-06-29T14:59:23Z</time>
      </trkpt>
      <trkpt lat="45.06995" lon="5.38877">
        <ele>350.086</ele>
        <time>2019-06-29T14:59:24Z</time>
      </trkpt>
      <trkpt lat="45.06992" lon="5.38879">
        <ele>350.909</ele>
        <time>2019-06-29T14:59:27Z</time>
      </trkpt>
      <trkpt lat="45.06993" lon="5.38879">
        <ele>351.107</ele>
        <time>2019-06-29T14:59:29Z</time>
      </trkpt>
      <trkpt lat="45.06993" lon="5.38879">
        <ele>351.107</ele>
        <time>2019-06-29T14:59:29Z</time>
      </trkpt>
      <trkpt lat="45.06993" lon="5.38879">
        <ele>351.388</ele>
        <time>2019-06-29T14:59:30Z</time>
      </trkpt>
      <trkpt lat="45.06993" lon="5.3888">
        <ele>351.928</ele>
        <time>2019-06-29T14:59:31Z</time>
      </trkpt>
      <trkpt lat="45.06993" lon="5.3888">
        <ele>352.119</ele>
        <time>2019-06-29T14:59:32Z</time>
      </trkpt>
      <trkpt lat="45.06993" lon="5.3888">
        <ele>352.116</ele>
        <time>2019-06-29T14:59:33Z</time>
      </trkpt>
      <trkpt lat="45.06993" lon="5.3888">
        <ele>352.161</ele>
        <time>2019-06-29T14:59:34Z</time>
      </trkpt>
      <trkpt lat="45.06993" lon="5.3888">
        <ele>352.313</ele>
        <time>2019-06-29T14:59:35Z</time>
      </trkpt>
      <trkpt lat="45.06993" lon="5.38881">
        <ele>352.418</ele>
        <time>2019-06-29T14:59:36Z</time>
      </trkpt>
      <trkpt lat="45.06993" lon="5.38881">
        <ele>352.388</ele>
        <time>2019-06-29T14:59:37Z</time>
      </trkpt>
      <trkpt lat="45.06993" lon="5.38881">
        <ele>352.682</ele>
        <time>2019-06-29T14:59:48Z</time>
      </trkpt>
      <trkpt lat="45.06993" lon="5.38883">
        <ele>352.654</ele>
        <time>2019-06-29T14:59:49Z</time>
      </trkpt>
      <trkpt lat="45.06993" lon="5.38883">
        <ele>352.395</ele>
        <time>2019-06-29T14:59:50Z</time>
      </trkpt>
      <trkpt lat="45.06993" lon="5.38883">
        <ele>352.395</ele>
        <time>2019-06-29T14:59:50Z</time>
      </trkpt>
      <trkpt lat="45.06993" lon="5.38883">
        <ele>352.328</ele>
        <time>2019-06-29T14:59:51Z</time>
      </trkpt>
      <trkpt lat="45.06992" lon="5.38883">
        <ele>353.452</ele>
        <time>2019-06-29T14:59:54Z</time>
      </trkpt>
      <trkpt lat="45.06992" lon="5.38883">
        <ele>352.659</ele>
        <time>2019-06-29T14:59:55Z</time>
      </trkpt>
      <trkpt lat="45.06991" lon="5.38883">
        <ele>353.086</ele>
        <time>2019-06-29T14:59:56Z</time>
      </trkpt>
      <trkpt lat="45.06992" lon="5.38882">
        <ele>353.545</ele>
        <time>2019-06-29T14:59:59Z</time>
      </trkpt>
      <trkpt lat="45.06992" lon="5.38882">
        <ele>353.522</ele>
        <time>2019-06-29T15:00:00Z</time>
      </trkpt>
      <trkpt lat="45.06994" lon="5.38884">
        <ele>353.473</ele>
        <time>2019-06-29T15:00:01Z</time>
      </trkpt>
      <trkpt lat="45.06994" lon="5.38884">
        <ele>353.473</ele>
        <time>2019-06-29T15:00:01Z</time>
      </trkpt>
      <trkpt lat="45.06994" lon="5.38884">
        <ele>353.388</ele>
        <time>2019-06-29T15:00:02Z</time>
      </trkpt>
      <trkpt lat="45.06994" lon="5.38884">
        <ele>353.831</ele>
        <time>2019-06-29T15:00:11Z</time>
      </trkpt>
      <trkpt lat="45.06995" lon="5.38884">
        <ele>353.849</ele>
        <time>2019-06-29T15:00:12Z</time>
      </trkpt>
      <trkpt lat="45.06995" lon="5.38884">
        <ele>354.432</ele>
        <time>2019-06-29T15:00:13Z</time>
      </trkpt>
      <trkpt lat="45.06995" lon="5.38884">
        <ele>354.432</ele>
        <time>2019-06-29T15:00:13Z</time>
      </trkpt>
      <trkpt lat="45.06995" lon="5.38883">
        <ele>354.687</ele>
        <time>2019-06-29T15:00:14Z</time>
      </trkpt>
      <trkpt lat="45.06995" lon="5.38883">
        <ele>354.647</ele>
        <time>2019-06-29T15:00:15Z</time>
      </trkpt>
      <trkpt lat="45.06995" lon="5.38883">
        <ele>354.701</ele>
        <time>2019-06-29T15:00:18Z</time>
      </trkpt>
      <trkpt lat="45.06995" lon="5.38883">
        <ele>354.803</ele>
        <time>2019-06-29T15:00:19Z</time>
      </trkpt>
      <trkpt lat="45.06994" lon="5.38883">
        <ele>355.495</ele>
        <time>2019-06-29T15:00:22Z</time>
      </trkpt>
      <trkpt lat="45.06994" lon="5.38883">
        <ele>356.092</ele>
        <time>2019-06-29T15:00:23Z</time>
      </trkpt>
      <trkpt lat="45.06994" lon="5.38883">
        <ele>355.994</ele>
        <time>2019-06-29T15:00:24Z</time>
      </trkpt>
      <trkpt lat="45.06996" lon="5.38883">
        <ele>353.255</ele>
        <time>2019-06-29T15:00:27Z</time>
      </trkpt>
      <trkpt lat="45.06997" lon="5.38882">
        <ele>353.818</ele>
        <time>2019-06-29T15:00:29Z</time>
      </trkpt>
      <trkpt lat="45.07001" lon="5.3888">
        <ele>352.947</ele>
        <time>2019-06-29T15:00:32Z</time>
      </trkpt>
      <trkpt lat="45.07001" lon="5.3888">
        <ele>353.003</ele>
        <time>2019-06-29T15:00:33Z</time>
      </trkpt>
      <trkpt lat="45.07004" lon="5.38878">
        <ele>353.991</ele>
        <time>2019-06-29T15:00:38Z</time>
      </trkpt>
      <trkpt lat="45.07005" lon="5.38877">
        <ele>353.962</ele>
        <time>2019-06-29T15:00:39Z</time>
      </trkpt>
      <trkpt lat="45.07018" lon="5.38875">
        <ele>354.896</ele>
        <time>2019-06-29T15:00:51Z</time>
      </trkpt>
      <trkpt lat="45.07019" lon="5.38876">
        <ele>355.172</ele>
        <time>2019-06-29T15:00:52Z</time>
      </trkpt>
      <trkpt lat="45.0702" lon="5.38878">
        <ele>355.652</ele>
        <time>2019-06-29T15:00:56Z</time>
      </trkpt>
      <trkpt lat="45.0702" lon="5.38879">
        <ele>354.708</ele>
        <time>2019-06-29T15:00:57Z</time>
      </trkpt>
      <trkpt lat="45.0702" lon="5.38879">
        <ele>354.592</ele>
        <time>2019-06-29T15:00:58Z</time>
      </trkpt>
      <trkpt lat="45.0702" lon="5.38879">
        <ele>354.592</ele>
        <time>2019-06-29T15:00:58Z</time>
      </trkpt>
      <trkpt lat="45.07021" lon="5.38879">
        <ele>354.601</ele>
        <time>2019-06-29T15:00:59Z</time>
      </trkpt>
      <trkpt lat="45.07021" lon="5.38879">
        <ele>354.304</ele>
        <time>2019-06-29T15:01:00Z</time>
      </trkpt>
      <trkpt lat="45.07021" lon="5.38878">
        <ele>354.661</ele>
        <time>2019-06-29T15:01:01Z</time>
      </trkpt>
      <trkpt lat="45.07023" lon="5.38875">
        <ele>355.376</ele>
        <time>2019-06-29T15:01:05Z</time>
      </trkpt>
      <trkpt lat="45.07023" lon="5.38875">
        <ele>355.376</ele>
        <time>2019-06-29T15:01:05Z</time>
      </trkpt>
      <trkpt lat="45.07023" lon="5.38876">
        <ele>355.235</ele>
        <time>2019-06-29T15:01:06Z</time>
      </trkpt>
      <trkpt lat="45.07023" lon="5.38878">
        <ele>355.112</ele>
        <time>2019-06-29T15:01:08Z</time>
      </trkpt>
      <trkpt lat="45.07024" lon="5.38882">
        <ele>355.776</ele>
        <time>2019-06-29T15:01:14Z</time>
      </trkpt>
      <trkpt lat="45.07024" lon="5.38882">
        <ele>355.684</ele>
        <time>2019-06-29T15:01:15Z</time>
      </trkpt>
      <trkpt lat="45.07024" lon="5.38882">
        <ele>355.684</ele>
        <time>2019-06-29T15:01:15Z</time>
      </trkpt>
      <trkpt lat="45.07024" lon="5.38882">
        <ele>355.926</ele>
        <time>2019-06-29T15:01:16Z</time>
      </trkpt>
      <trkpt lat="45.07025" lon="5.38883">
        <ele>355.824</ele>
        <time>2019-06-29T15:01:19Z</time>
      </trkpt>
      <trkpt lat="45.07025" lon="5.38883">
        <ele>355.911</ele>
        <time>2019-06-29T15:01:20Z</time>
      </trkpt>
      <trkpt lat="45.07025" lon="5.38883">
        <ele>355.941</ele>
        <time>2019-06-29T15:01:22Z</time>
      </trkpt>
      <trkpt lat="45.07026" lon="5.38884">
        <ele>356.022</ele>
        <time>2019-06-29T15:01:23Z</time>
      </trkpt>
      <trkpt lat="45.07025" lon="5.38882">
        <ele>356.965</ele>
        <time>2019-06-29T15:01:27Z</time>
      </trkpt>
      <trkpt lat="45.07025" lon="5.38882">
        <ele>356.892</ele>
        <time>2019-06-29T15:01:28Z</time>
      </trkpt>
      <trkpt lat="45.07025" lon="5.38882">
        <ele>356.892</ele>
        <time>2019-06-29T15:01:28Z</time>
      </trkpt>
      <trkpt lat="45.07024" lon="5.38881">
        <ele>357.139</ele>
        <time>2019-06-29T15:01:29Z</time>
      </trkpt>
      <trkpt lat="45.07023" lon="5.3888">
        <ele>357.417</ele>
        <time>2019-06-29T15:01:31Z</time>
      </trkpt>
      <trkpt lat="45.07023" lon="5.3888">
        <ele>357.152</ele>
        <time>2019-06-29T15:01:56Z</time>
      </trkpt>
      <trkpt lat="45.07022" lon="5.38881">
        <ele>356.986</ele>
        <time>2019-06-29T15:01:57Z</time>
      </trkpt>
      <trkpt lat="45.07025" lon="5.38883">
        <ele>355.801</ele>
        <time>2019-06-29T15:02:00Z</time>
      </trkpt>
      <trkpt lat="45.07028" lon="5.38885">
        <ele>355.783</ele>
        <time>2019-06-29T15:02:02Z</time>
      </trkpt>
      <trkpt lat="45.07032" lon="5.38887">
        <ele>355.76</ele>
        <time>2019-06-29T15:02:04Z</time>
      </trkpt>
      <trkpt lat="45.07035" lon="5.38886">
        <ele>355.446</ele>
        <time>2019-06-29T15:02:07Z</time>
      </trkpt>
      <trkpt lat="45.07036" lon="5.38886">
        <ele>354.414</ele>
        <time>2019-06-29T15:02:08Z</time>
      </trkpt>
      <trkpt lat="45.07039" lon="5.38886">
        <ele>354.608</ele>
        <time>2019-06-29T15:02:11Z</time>
      </trkpt>
      <trkpt lat="45.07048" lon="5.38888">
        <ele>353.899</ele>
        <time>2019-06-29T15:02:18Z</time>
      </trkpt>
      <trkpt lat="45.0705" lon="5.38888">
        <ele>354.481</ele>
        <time>2019-06-29T15:02:20Z</time>
      </trkpt>
      <trkpt lat="45.0705" lon="5.38888">
        <ele>354.913</ele>
        <time>2019-06-29T15:02:21Z</time>
      </trkpt>
      <trkpt lat="45.07053" lon="5.38889">
        <ele>355.377</ele>
        <time>2019-06-29T15:02:23Z</time>
      </trkpt>
      <trkpt lat="45.07053" lon="5.3889">
        <ele>355.479</ele>
        <time>2019-06-29T15:02:24Z</time>
      </trkpt>
      <trkpt lat="45.07054" lon="5.3889">
        <ele>355.605</ele>
        <time>2019-06-29T15:02:25Z</time>
      </trkpt>
      <trkpt lat="45.07055" lon="5.38891">
        <ele>355.772</ele>
        <time>2019-06-29T15:02:28Z</time>
      </trkpt>
      <trkpt lat="45.07057" lon="5.38894">
        <ele>355.51</ele>
        <time>2019-06-29T15:02:32Z</time>
      </trkpt>
      <trkpt lat="45.07067" lon="5.38913">
        <ele>355.596</ele>
        <time>2019-06-29T15:02:50Z</time>
      </trkpt>
      <trkpt lat="45.07075" lon="5.38923">
        <ele>358.229</ele>
        <time>2019-06-29T15:03:02Z</time>
      </trkpt>
      <trkpt lat="45.07076" lon="5.38924">
        <ele>357.152</ele>
        <time>2019-06-29T15:03:04Z</time>
      </trkpt>
      <trkpt lat="45.07076" lon="5.38924">
        <ele>357.152</ele>
        <time>2019-06-29T15:03:04Z</time>
      </trkpt>
      <trkpt lat="45.07076" lon="5.38925">
        <ele>357.936</ele>
        <time>2019-06-29T15:03:05Z</time>
      </trkpt>
      <trkpt lat="45.07076" lon="5.38927">
        <ele>357.872</ele>
        <time>2019-06-29T15:03:07Z</time>
      </trkpt>
      <trkpt lat="45.07077" lon="5.38927">
        <ele>357.631</ele>
        <time>2019-06-29T15:03:08Z</time>
      </trkpt>
      <trkpt lat="45.0708" lon="5.38931">
        <ele>359.891</ele>
        <time>2019-06-29T15:03:11Z</time>
      </trkpt>
      <trkpt lat="45.07081" lon="5.38932">
        <ele>360.386</ele>
        <time>2019-06-29T15:03:12Z</time>
      </trkpt>
      <trkpt lat="45.07083" lon="5.38931">
        <ele>361.217</ele>
        <time>2019-06-29T15:03:15Z</time>
      </trkpt>
      <trkpt lat="45.0709" lon="5.38935">
        <ele>360.148</ele>
        <time>2019-06-29T15:03:22Z</time>
      </trkpt>
      <trkpt lat="45.07092" lon="5.38935">
        <ele>360.575</ele>
        <time>2019-06-29T15:03:24Z</time>
      </trkpt>
      <trkpt lat="45.07094" lon="5.38934">
        <ele>358.783</ele>
        <time>2019-06-29T15:03:27Z</time>
      </trkpt>
      <trkpt lat="45.07095" lon="5.38934">
        <ele>359.143</ele>
        <time>2019-06-29T15:03:28Z</time>
      </trkpt>
      <trkpt lat="45.07097" lon="5.38934">
        <ele>359.96</ele>
        <time>2019-06-29T15:03:31Z</time>
      </trkpt>
      <trkpt lat="45.07097" lon="5.38936">
        <ele>359.615</ele>
        <time>2019-06-29T15:03:33Z</time>
      </trkpt>
      <trkpt lat="45.07097" lon="5.38936">
        <ele>360.009</ele>
        <time>2019-06-29T15:03:34Z</time>
      </trkpt>
      <trkpt lat="45.07097" lon="5.38937">
        <ele>360.16</ele>
        <time>2019-06-29T15:03:35Z</time>
      </trkpt>
      <trkpt lat="45.07097" lon="5.38938">
        <ele>360.465</ele>
        <time>2019-06-29T15:03:36Z</time>
      </trkpt>
      <trkpt lat="45.07097" lon="5.38939">
        <ele>360.057</ele>
        <time>2019-06-29T15:03:38Z</time>
      </trkpt>
      <trkpt lat="45.07097" lon="5.38941">
        <ele>360.683</ele>
        <time>2019-06-29T15:03:40Z</time>
      </trkpt>
      <trkpt lat="45.07097" lon="5.38942">
        <ele>361.757</ele>
        <time>2019-06-29T15:03:44Z</time>
      </trkpt>
      <trkpt lat="45.07096" lon="5.38941">
        <ele>361.784</ele>
        <time>2019-06-29T15:03:45Z</time>
      </trkpt>
      <trkpt lat="45.07094" lon="5.38941">
        <ele>362.037</ele>
        <time>2019-06-29T15:03:48Z</time>
      </trkpt>
      <trkpt lat="45.07094" lon="5.38941">
        <ele>362.037</ele>
        <time>2019-06-29T15:03:48Z</time>
      </trkpt>
      <trkpt lat="45.07094" lon="5.38941">
        <ele>361.909</ele>
        <time>2019-06-29T15:03:49Z</time>
      </trkpt>
      <trkpt lat="45.071" lon="5.38944">
        <ele>362.006</ele>
        <time>2019-06-29T15:03:53Z</time>
      </trkpt>
      <trkpt lat="45.071" lon="5.38944">
        <ele>361.323</ele>
        <time>2019-06-29T15:04:07Z</time>
      </trkpt>
      <trkpt lat="45.07102" lon="5.38946">
        <ele>361.458</ele>
        <time>2019-06-29T15:04:08Z</time>
      </trkpt>
      <trkpt lat="45.07102" lon="5.38946">
        <ele>362.041</ele>
        <time>2019-06-29T15:04:09Z</time>
      </trkpt>
      <trkpt lat="45.07102" lon="5.38946">
        <ele>362.007</ele>
        <time>2019-06-29T15:04:14Z</time>
      </trkpt>
      <trkpt lat="45.07101" lon="5.38946">
        <ele>362.131</ele>
        <time>2019-06-29T15:04:15Z</time>
      </trkpt>
      <trkpt lat="45.07102" lon="5.38946">
        <ele>362.715</ele>
        <time>2019-06-29T15:04:16Z</time>
      </trkpt>
      <trkpt lat="45.07102" lon="5.38946">
        <ele>362.717</ele>
        <time>2019-06-29T15:04:17Z</time>
      </trkpt>
      <trkpt lat="45.07102" lon="5.38946">
        <ele>362.302</ele>
        <time>2019-06-29T15:04:59Z</time>
      </trkpt>
      <trkpt lat="45.07103" lon="5.38946">
        <ele>362.339</ele>
        <time>2019-06-29T15:05:00Z</time>
      </trkpt>
      <trkpt lat="45.07103" lon="5.38946">
        <ele>362.339</ele>
        <time>2019-06-29T15:05:00Z</time>
      </trkpt>
      <trkpt lat="45.07103" lon="5.38946">
        <ele>362.745</ele>
        <time>2019-06-29T15:05:01Z</time>
      </trkpt>
      <trkpt lat="45.07103" lon="5.38946">
        <ele>362.745</ele>
        <time>2019-06-29T15:05:01Z</time>
      </trkpt>
      <trkpt lat="45.07103" lon="5.38946">
        <ele>362.38</ele>
        <time>2019-06-29T15:05:02Z</time>
      </trkpt>
      <trkpt lat="45.07103" lon="5.38946">
        <ele>362.38</ele>
        <time>2019-06-29T15:05:02Z</time>
      </trkpt>
      <trkpt lat="45.07103" lon="5.38946">
        <ele>362.21</ele>
        <time>2019-06-29T15:05:03Z</time>
      </trkpt>
      <trkpt lat="45.07103" lon="5.38946">
        <ele>362.21</ele>
        <time>2019-06-29T15:05:03Z</time>
      </trkpt>
      <trkpt lat="45.07102" lon="5.38946">
        <ele>361.695</ele>
        <time>2019-06-29T15:05:04Z</time>
      </trkpt>
      <trkpt lat="45.07101" lon="5.38947">
        <ele>362.445</ele>
        <time>2019-06-29T15:05:06Z</time>
      </trkpt>
      <trkpt lat="45.07101" lon="5.38947">
        <ele>363.107</ele>
        <time>2019-06-29T15:05:17Z</time>
      </trkpt>
      <trkpt lat="45.07097" lon="5.38947">
        <ele>363.603</ele>
        <time>2019-06-29T15:05:18Z</time>
      </trkpt>
      <trkpt lat="45.07097" lon="5.38947">
        <ele>363.951</ele>
        <time>2019-06-29T15:05:19Z</time>
      </trkpt>
      <trkpt lat="45.07097" lon="5.38947">
        <ele>363.822</ele>
        <time>2019-06-29T15:05:22Z</time>
      </trkpt>
      <trkpt lat="45.07097" lon="5.38947">
        <ele>363.718</ele>
        <time>2019-06-29T15:05:23Z</time>
      </trkpt>
      <trkpt lat="45.07096" lon="5.38947">
        <ele>363.532</ele>
        <time>2019-06-29T15:05:25Z</time>
      </trkpt>
      <trkpt lat="45.07096" lon="5.38948">
        <ele>363.395</ele>
        <time>2019-06-29T15:05:26Z</time>
      </trkpt>
      <trkpt lat="45.07096" lon="5.38948">
        <ele>364.614</ele>
        <time>2019-06-29T15:05:28Z</time>
      </trkpt>
      <trkpt lat="45.07096" lon="5.38948">
        <ele>364.335</ele>
        <time>2019-06-29T15:05:32Z</time>
      </trkpt>
      <trkpt lat="45.07097" lon="5.38951">
        <ele>364.232</ele>
        <time>2019-06-29T15:05:33Z</time>
      </trkpt>
      <trkpt lat="45.07097" lon="5.38951">
        <ele>364.232</ele>
        <time>2019-06-29T15:05:33Z</time>
      </trkpt>
      <trkpt lat="45.07097" lon="5.38951">
        <ele>364.585</ele>
        <time>2019-06-29T15:05:34Z</time>
      </trkpt>
      <trkpt lat="45.07097" lon="5.38951">
        <ele>364.585</ele>
        <time>2019-06-29T15:05:34Z</time>
      </trkpt>
      <trkpt lat="45.07097" lon="5.38952">
        <ele>365.292</ele>
        <time>2019-06-29T15:05:35Z</time>
      </trkpt>
      <trkpt lat="45.07097" lon="5.38952">
        <ele>365.292</ele>
        <time>2019-06-29T15:05:35Z</time>
      </trkpt>
      <trkpt lat="45.07097" lon="5.38952">
        <ele>364.906</ele>
        <time>2019-06-29T15:05:36Z</time>
      </trkpt>
      <trkpt lat="45.07097" lon="5.38952">
        <ele>364.867</ele>
        <time>2019-06-29T15:05:37Z</time>
      </trkpt>
      <trkpt lat="45.07097" lon="5.38952">
        <ele>364.397</ele>
        <time>2019-06-29T15:05:38Z</time>
      </trkpt>
      <trkpt lat="45.07097" lon="5.38952">
        <ele>364.812</ele>
        <time>2019-06-29T15:05:39Z</time>
      </trkpt>
      <trkpt lat="45.07097" lon="5.38952">
        <ele>364.812</ele>
        <time>2019-06-29T15:05:39Z</time>
      </trkpt>
      <trkpt lat="45.07097" lon="5.38951">
        <ele>365.103</ele>
        <time>2019-06-29T15:05:40Z</time>
      </trkpt>
      <trkpt lat="45.07097" lon="5.3895">
        <ele>364.667</ele>
        <time>2019-06-29T15:05:42Z</time>
      </trkpt>
      <trkpt lat="45.07097" lon="5.3895">
        <ele>364.667</ele>
        <time>2019-06-29T15:05:42Z</time>
      </trkpt>
      <trkpt lat="45.07097" lon="5.3895">
        <ele>365.061</ele>
        <time>2019-06-29T15:05:43Z</time>
      </trkpt>
      <trkpt lat="45.07097" lon="5.3895">
        <ele>365.676</ele>
        <time>2019-06-29T15:05:46Z</time>
      </trkpt>
      <trkpt lat="45.07096" lon="5.38949">
        <ele>366.086</ele>
        <time>2019-06-29T15:05:47Z</time>
      </trkpt>
      <trkpt lat="45.07095" lon="5.38948">
        <ele>366.845</ele>
        <time>2019-06-29T15:05:50Z</time>
      </trkpt>
      <trkpt lat="45.07095" lon="5.38948">
        <ele>367.244</ele>
        <time>2019-06-29T15:05:51Z</time>
      </trkpt>
      <trkpt lat="45.07095" lon="5.38948">
        <ele>368.457</ele>
        <time>2019-06-29T15:05:53Z</time>
      </trkpt>
      <trkpt lat="45.07094" lon="5.38946">
        <ele>368.928</ele>
        <time>2019-06-29T15:05:54Z</time>
      </trkpt>
      <trkpt lat="45.07094" lon="5.38946">
        <ele>368.515</ele>
        <time>2019-06-29T15:05:56Z</time>
      </trkpt>
      <trkpt lat="45.07094" lon="5.38946">
        <ele>368.617</ele>
        <time>2019-06-29T15:05:57Z</time>
      </trkpt>
      <trkpt lat="45.07094" lon="5.38946">
        <ele>368.617</ele>
        <time>2019-06-29T15:05:57Z</time>
      </trkpt>
      <trkpt lat="45.07094" lon="5.38945">
        <ele>368.4</ele>
        <time>2019-06-29T15:05:58Z</time>
      </trkpt>
      <trkpt lat="45.07094" lon="5.38946">
        <ele>368.635</ele>
        <time>2019-06-29T15:06:00Z</time>
      </trkpt>
      <trkpt lat="45.07094" lon="5.38946">
        <ele>369.558</ele>
        <time>2019-06-29T15:06:58Z</time>
      </trkpt>
      <trkpt lat="45.07092" lon="5.38945">
        <ele>370.035</ele>
        <time>2019-06-29T15:06:59Z</time>
      </trkpt>
      <trkpt lat="45.07091" lon="5.38945">
        <ele>370.103</ele>
        <time>2019-06-29T15:07:01Z</time>
      </trkpt>
      <trkpt lat="45.07091" lon="5.38945">
        <ele>369.992</ele>
        <time>2019-06-29T15:07:51Z</time>
      </trkpt>
      <trkpt lat="45.0709" lon="5.38945">
        <ele>369.874</ele>
        <time>2019-06-29T15:07:52Z</time>
      </trkpt>
      <trkpt lat="45.0709" lon="5.38945">
        <ele>369.659</ele>
        <time>2019-06-29T15:07:54Z</time>
      </trkpt>
      <trkpt lat="45.0709" lon="5.38945">
        <ele>369.697</ele>
        <time>2019-06-29T15:07:55Z</time>
      </trkpt>
      <trkpt lat="45.0709" lon="5.38944">
        <ele>370.003</ele>
        <time>2019-06-29T15:07:56Z</time>
      </trkpt>
      <trkpt lat="45.0709" lon="5.38944">
        <ele>370.412</ele>
        <time>2019-06-29T15:07:57Z</time>
      </trkpt>
      <trkpt lat="45.0709" lon="5.38944">
        <ele>370.412</ele>
        <time>2019-06-29T15:07:57Z</time>
      </trkpt>
      <trkpt lat="45.07089" lon="5.38944">
        <ele>370.648</ele>
        <time>2019-06-29T15:07:58Z</time>
      </trkpt>
      <trkpt lat="45.07089" lon="5.38944">
        <ele>370.614</ele>
        <time>2019-06-29T15:07:59Z</time>
      </trkpt>
      <trkpt lat="45.07089" lon="5.38944">
        <ele>370.356</ele>
        <time>2019-06-29T15:08:16Z</time>
      </trkpt>
      <trkpt lat="45.07089" lon="5.38943">
        <ele>370.161</ele>
        <time>2019-06-29T15:08:17Z</time>
      </trkpt>
      <trkpt lat="45.07089" lon="5.38946">
        <ele>368.604</ele>
        <time>2019-06-29T15:08:21Z</time>
      </trkpt>
      <trkpt lat="45.07089" lon="5.38946">
        <ele>368.604</ele>
        <time>2019-06-29T15:08:21Z</time>
      </trkpt>
      <trkpt lat="45.07089" lon="5.38945">
        <ele>369.099</ele>
        <time>2019-06-29T15:08:22Z</time>
      </trkpt>
      <trkpt lat="45.0709" lon="5.38945">
        <ele>369.066</ele>
        <time>2019-06-29T15:08:24Z</time>
      </trkpt>
      <trkpt lat="45.07093" lon="5.38947">
        <ele>369.597</ele>
        <time>2019-06-29T15:08:27Z</time>
      </trkpt>
      <trkpt lat="45.07093" lon="5.38948">
        <ele>369.278</ele>
        <time>2019-06-29T15:08:28Z</time>
      </trkpt>
      <trkpt lat="45.07093" lon="5.38948">
        <ele>369.802</ele>
        <time>2019-06-29T15:08:29Z</time>
      </trkpt>
      <trkpt lat="45.07093" lon="5.38948">
        <ele>369.768</ele>
        <time>2019-06-29T15:08:31Z</time>
      </trkpt>
      <trkpt lat="45.07094" lon="5.38949">
        <ele>369.824</ele>
        <time>2019-06-29T15:08:32Z</time>
      </trkpt>
      <trkpt lat="45.07094" lon="5.38948">
        <ele>369.397</ele>
        <time>2019-06-29T15:08:35Z</time>
      </trkpt>
      <trkpt lat="45.07094" lon="5.38947">
        <ele>369.216</ele>
        <time>2019-06-29T15:08:36Z</time>
      </trkpt>
      <trkpt lat="45.07095" lon="5.38948">
        <ele>367.72</ele>
        <time>2019-06-29T15:08:40Z</time>
      </trkpt>
      <trkpt lat="45.07095" lon="5.38949">
        <ele>366.847</ele>
        <time>2019-06-29T15:08:42Z</time>
      </trkpt>
      <trkpt lat="45.07095" lon="5.3895">
        <ele>366.307</ele>
        <time>2019-06-29T15:08:43Z</time>
      </trkpt>
      <trkpt lat="45.07095" lon="5.3895">
        <ele>365.968</ele>
        <time>2019-06-29T15:08:44Z</time>
      </trkpt>
      <trkpt lat="45.07095" lon="5.3895">
        <ele>365.435</ele>
        <time>2019-06-29T15:08:51Z</time>
      </trkpt>
      <trkpt lat="45.07092" lon="5.3895">
        <ele>365.265</ele>
        <time>2019-06-29T15:08:52Z</time>
      </trkpt>
      <trkpt lat="45.07093" lon="5.3895">
        <ele>365.568</ele>
        <time>2019-06-29T15:08:56Z</time>
      </trkpt>
      <trkpt lat="45.07093" lon="5.3895">
        <ele>365.581</ele>
        <time>2019-06-29T15:08:59Z</time>
      </trkpt>
      <trkpt lat="45.07094" lon="5.38948">
        <ele>365.904</ele>
        <time>2019-06-29T15:09:00Z</time>
      </trkpt>
      <trkpt lat="45.07094" lon="5.38948">
        <ele>366.045</ele>
        <time>2019-06-29T15:09:01Z</time>
      </trkpt>
      <trkpt lat="45.07094" lon="5.38948">
        <ele>370.744</ele>
        <time>2019-06-29T15:09:35Z</time>
      </trkpt>
      <trkpt lat="45.07095" lon="5.38943">
        <ele>372.036</ele>
        <time>2019-06-29T15:09:36Z</time>
      </trkpt>
      <trkpt lat="45.07095" lon="5.38943">
        <ele>371.628</ele>
        <time>2019-06-29T15:09:37Z</time>
      </trkpt>
      <trkpt lat="45.07095" lon="5.38943">
        <ele>371.628</ele>
        <time>2019-06-29T15:09:37Z</time>
      </trkpt>
      <trkpt lat="45.07095" lon="5.38943">
        <ele>371.291</ele>
        <time>2019-06-29T15:09:38Z</time>
      </trkpt>
      <trkpt lat="45.07095" lon="5.38944">
        <ele>372.257</ele>
        <time>2019-06-29T15:09:40Z</time>
      </trkpt>
      <trkpt lat="45.07094" lon="5.38945">
        <ele>371.789</ele>
        <time>2019-06-29T15:09:42Z</time>
      </trkpt>
      <trkpt lat="45.07094" lon="5.38945">
        <ele>371.789</ele>
        <time>2019-06-29T15:09:42Z</time>
      </trkpt>
      <trkpt lat="45.07093" lon="5.38945">
        <ele>371.9</ele>
        <time>2019-06-29T15:09:43Z</time>
      </trkpt>
      <trkpt lat="45.07093" lon="5.38945">
        <ele>371.616</ele>
        <time>2019-06-29T15:09:44Z</time>
      </trkpt>
      <trkpt lat="45.07093" lon="5.38945">
        <ele>371.616</ele>
        <time>2019-06-29T15:09:44Z</time>
      </trkpt>
      <trkpt lat="45.07092" lon="5.38945">
        <ele>370.641</ele>
        <time>2019-06-29T15:09:45Z</time>
      </trkpt>
      <trkpt lat="45.0709" lon="5.38945">
        <ele>370.462</ele>
        <time>2019-06-29T15:09:48Z</time>
      </trkpt>
      <trkpt lat="45.0709" lon="5.38945">
        <ele>370.535</ele>
        <time>2019-06-29T15:09:49Z</time>
      </trkpt>
      <trkpt lat="45.0709" lon="5.38945">
        <ele>369.367</ele>
        <time>2019-06-29T15:56:37Z</time>
      </trkpt>
      <trkpt lat="45.07093" lon="5.38942">
        <ele>369.708</ele>
        <time>2019-06-29T15:56:38Z</time>
      </trkpt>
      <trkpt lat="45.07092" lon="5.38942">
        <ele>371.692</ele>
        <time>2019-06-29T15:56:41Z</time>
      </trkpt>
      <trkpt lat="45.07092" lon="5.38943">
        <ele>370.41</ele>
        <time>2019-06-29T15:56:42Z</time>
      </trkpt>
      <trkpt lat="45.07089" lon="5.38945">
        <ele>367.938</ele>
        <time>2019-06-29T15:56:47Z</time>
      </trkpt>
      <trkpt lat="45.07087" lon="5.38946">
        <ele>367.483</ele>
        <time>2019-06-29T15:56:51Z</time>
      </trkpt>
      <trkpt lat="45.07087" lon="5.38946">
        <ele>367.483</ele>
        <time>2019-06-29T15:56:51Z</time>
      </trkpt>
      <trkpt lat="45.07087" lon="5.38946">
        <ele>366.811</ele>
        <time>2019-06-29T15:56:52Z</time>
      </trkpt>
      <trkpt lat="45.07086" lon="5.38945">
        <ele>366.894</ele>
        <time>2019-06-29T15:56:53Z</time>
      </trkpt>
      <trkpt lat="45.07083" lon="5.38945">
        <ele>366.918</ele>
        <time>2019-06-29T15:56:56Z</time>
      </trkpt>
      <trkpt lat="45.07075" lon="5.38946">
        <ele>369.089</ele>
        <time>2019-06-29T15:57:04Z</time>
      </trkpt>
      <trkpt lat="45.07075" lon="5.38946">
        <ele>369.632</ele>
        <time>2019-06-29T15:57:07Z</time>
      </trkpt>
      <trkpt lat="45.07073" lon="5.38948">
        <ele>369.37</ele>
        <time>2019-06-29T15:57:08Z</time>
      </trkpt>
      <trkpt lat="45.0707" lon="5.38951">
        <ele>369.946</ele>
        <time>2019-06-29T15:57:11Z</time>
      </trkpt>
      <trkpt lat="45.07066" lon="5.3896">
        <ele>368.68</ele>
        <time>2019-06-29T15:57:21Z</time>
      </trkpt>
      <trkpt lat="45.07066" lon="5.3896">
        <ele>368.68</ele>
        <time>2019-06-29T15:57:21Z</time>
      </trkpt>
      <trkpt lat="45.07066" lon="5.38962">
        <ele>368.184</ele>
        <time>2019-06-29T15:57:22Z</time>
      </trkpt>
      <trkpt lat="45.07066" lon="5.38963">
        <ele>368.248</ele>
        <time>2019-06-29T15:57:23Z</time>
      </trkpt>
      <trkpt lat="45.07065" lon="5.38968">
        <ele>367.046</ele>
        <time>2019-06-29T15:57:28Z</time>
      </trkpt>
      <trkpt lat="45.07065" lon="5.38968">
        <ele>367.046</ele>
        <time>2019-06-29T15:57:28Z</time>
      </trkpt>
      <trkpt lat="45.07066" lon="5.38969">
        <ele>367.174</ele>
        <time>2019-06-29T15:57:29Z</time>
      </trkpt>
      <trkpt lat="45.07066" lon="5.38971">
        <ele>367.736</ele>
        <time>2019-06-29T15:57:33Z</time>
      </trkpt>
      <trkpt lat="45.07066" lon="5.38971">
        <ele>367.917</ele>
        <time>2019-06-29T15:57:38Z</time>
      </trkpt>
      <trkpt lat="45.07066" lon="5.3897">
        <ele>368.211</ele>
        <time>2019-06-29T15:57:39Z</time>
      </trkpt>
      <trkpt lat="45.07066" lon="5.3897">
        <ele>368.275</ele>
        <time>2019-06-29T15:57:40Z</time>
      </trkpt>
      <trkpt lat="45.07066" lon="5.3897">
        <ele>368.286</ele>
        <time>2019-06-29T15:57:44Z</time>
      </trkpt>
      <trkpt lat="45.07067" lon="5.3897">
        <ele>368.411</ele>
        <time>2019-06-29T15:57:45Z</time>
      </trkpt>
      <trkpt lat="45.07067" lon="5.3897">
        <ele>368.417</ele>
        <time>2019-06-29T15:57:46Z</time>
      </trkpt>
      <trkpt lat="45.07067" lon="5.3897">
        <ele>368.792</ele>
        <time>2019-06-29T15:58:47Z</time>
      </trkpt>
      <trkpt lat="45.07066" lon="5.38971">
        <ele>368.557</ele>
        <time>2019-06-29T15:58:48Z</time>
      </trkpt>
      <trkpt lat="45.07065" lon="5.38976">
        <ele>366.488</ele>
        <time>2019-06-29T15:58:53Z</time>
      </trkpt>
      <trkpt lat="45.07066" lon="5.38978">
        <ele>366.053</ele>
        <time>2019-06-29T15:58:56Z</time>
      </trkpt>
      <trkpt lat="45.07066" lon="5.38978">
        <ele>366.053</ele>
        <time>2019-06-29T15:58:56Z</time>
      </trkpt>
      <trkpt lat="45.07066" lon="5.38979">
        <ele>366.031</ele>
        <time>2019-06-29T15:58:57Z</time>
      </trkpt>
      <trkpt lat="45.07066" lon="5.38979">
        <ele>365.982</ele>
        <time>2019-06-29T15:58:58Z</time>
      </trkpt>
      <trkpt lat="45.07066" lon="5.38979">
        <ele>365.459</ele>
        <time>2019-06-29T15:59:06Z</time>
      </trkpt>
      <trkpt lat="45.07067" lon="5.3898">
        <ele>365.295</ele>
        <time>2019-06-29T15:59:07Z</time>
      </trkpt>
      <trkpt lat="45.07067" lon="5.3898">
        <ele>365.789</ele>
        <time>2019-06-29T15:59:08Z</time>
      </trkpt>
      <trkpt lat="45.07067" lon="5.3898">
        <ele>365.908</ele>
        <time>2019-06-29T15:59:09Z</time>
      </trkpt>
      <trkpt lat="45.07067" lon="5.3898">
        <ele>366.23</ele>
        <time>2019-06-29T15:59:10Z</time>
      </trkpt>
      <trkpt lat="45.07067" lon="5.38982">
        <ele>367.076</ele>
        <time>2019-06-29T15:59:12Z</time>
      </trkpt>
      <trkpt lat="45.07067" lon="5.38982">
        <ele>366.919</ele>
        <time>2019-06-29T15:59:13Z</time>
      </trkpt>
      <trkpt lat="45.07067" lon="5.38982">
        <ele>366.916</ele>
        <time>2019-06-29T15:59:14Z</time>
      </trkpt>
      <trkpt lat="45.07067" lon="5.38982">
        <ele>366.583</ele>
        <time>2019-06-29T15:59:24Z</time>
      </trkpt>
      <trkpt lat="45.07067" lon="5.38984">
        <ele>366.364</ele>
        <time>2019-06-29T15:59:25Z</time>
      </trkpt>
      <trkpt lat="45.07067" lon="5.38984">
        <ele>366.751</ele>
        <time>2019-06-29T15:59:26Z</time>
      </trkpt>
      <trkpt lat="45.07067" lon="5.38984">
        <ele>367.387</ele>
        <time>2019-06-29T15:59:36Z</time>
      </trkpt>
      <trkpt lat="45.07066" lon="5.38986">
        <ele>366.222</ele>
        <time>2019-06-29T15:59:37Z</time>
      </trkpt>
      <trkpt lat="45.07066" lon="5.38987">
        <ele>366.787</ele>
        <time>2019-06-29T15:59:39Z</time>
      </trkpt>
      <trkpt lat="45.07066" lon="5.38989">
        <ele>366.991</ele>
        <time>2019-06-29T15:59:43Z</time>
      </trkpt>
      <trkpt lat="45.07066" lon="5.38989">
        <ele>366.64</ele>
        <time>2019-06-29T15:59:57Z</time>
      </trkpt>
      <trkpt lat="45.07066" lon="5.3899">
        <ele>366.645</ele>
        <time>2019-06-29T15:59:58Z</time>
      </trkpt>
      <trkpt lat="45.07067" lon="5.38997">
        <ele>366.157</ele>
        <time>2019-06-29T16:00:04Z</time>
      </trkpt>
      <trkpt lat="45.07067" lon="5.39002">
        <ele>367.285</ele>
        <time>2019-06-29T16:00:07Z</time>
      </trkpt>
      <trkpt lat="45.07069" lon="5.39005">
        <ele>368.547</ele>
        <time>2019-06-29T16:00:10Z</time>
      </trkpt>
      <trkpt lat="45.07069" lon="5.39006">
        <ele>368.755</ele>
        <time>2019-06-29T16:00:11Z</time>
      </trkpt>
      <trkpt lat="45.0707" lon="5.39007">
        <ele>369.343</ele>
        <time>2019-06-29T16:00:13Z</time>
      </trkpt>
      <trkpt lat="45.07071" lon="5.39008">
        <ele>370.034</ele>
        <time>2019-06-29T16:00:14Z</time>
      </trkpt>
      <trkpt lat="45.07069" lon="5.39016">
        <ele>371.496</ele>
        <time>2019-06-29T16:00:19Z</time>
      </trkpt>
      <trkpt lat="45.07068" lon="5.39022">
        <ele>373.237</ele>
        <time>2019-06-29T16:00:23Z</time>
      </trkpt>
      <trkpt lat="45.07068" lon="5.39022">
        <ele>373.145</ele>
        <time>2019-06-29T16:00:24Z</time>
      </trkpt>
      <trkpt lat="45.07068" lon="5.39022">
        <ele>373.145</ele>
        <time>2019-06-29T16:00:24Z</time>
      </trkpt>
      <trkpt lat="45.07069" lon="5.39022">
        <ele>373.788</ele>
        <time>2019-06-29T16:00:25Z</time>
      </trkpt>
      <trkpt lat="45.07069" lon="5.39022">
        <ele>373.788</ele>
        <time>2019-06-29T16:00:25Z</time>
      </trkpt>
      <trkpt lat="45.07069" lon="5.39022">
        <ele>374.524</ele>
        <time>2019-06-29T16:00:26Z</time>
      </trkpt>
      <trkpt lat="45.07069" lon="5.39022">
        <ele>374.524</ele>
        <time>2019-06-29T16:00:26Z</time>
      </trkpt>
      <trkpt lat="45.07069" lon="5.39023">
        <ele>374.251</ele>
        <time>2019-06-29T16:00:27Z</time>
      </trkpt>
      <trkpt lat="45.07069" lon="5.39023">
        <ele>374.251</ele>
        <time>2019-06-29T16:00:27Z</time>
      </trkpt>
      <trkpt lat="45.07068" lon="5.39024">
        <ele>373.411</ele>
        <time>2019-06-29T16:00:28Z</time>
      </trkpt>
      <trkpt lat="45.07068" lon="5.39028">
        <ele>373.68</ele>
        <time>2019-06-29T16:00:33Z</time>
      </trkpt>
      <trkpt lat="45.07068" lon="5.39029">
        <ele>373.685</ele>
        <time>2019-06-29T16:00:34Z</time>
      </trkpt>
      <trkpt lat="45.07068" lon="5.39029">
        <ele>373.685</ele>
        <time>2019-06-29T16:00:34Z</time>
      </trkpt>
      <trkpt lat="45.07068" lon="5.39029">
        <ele>374.034</ele>
        <time>2019-06-29T16:00:35Z</time>
      </trkpt>
      <trkpt lat="45.07068" lon="5.3903">
        <ele>374.058</ele>
        <time>2019-06-29T16:00:36Z</time>
      </trkpt>
      <trkpt lat="45.07068" lon="5.3903">
        <ele>374.058</ele>
        <time>2019-06-29T16:00:36Z</time>
      </trkpt>
      <trkpt lat="45.07068" lon="5.3903">
        <ele>374.208</ele>
        <time>2019-06-29T16:00:37Z</time>
      </trkpt>
      <trkpt lat="45.07068" lon="5.3903">
        <ele>375.452</ele>
        <time>2019-06-29T16:00:43Z</time>
      </trkpt>
      <trkpt lat="45.07067" lon="5.39032">
        <ele>375.63</ele>
        <time>2019-06-29T16:00:44Z</time>
      </trkpt>
      <trkpt lat="45.07067" lon="5.39032">
        <ele>375.63</ele>
        <time>2019-06-29T16:00:44Z</time>
      </trkpt>
      <trkpt lat="45.07067" lon="5.39032">
        <ele>376.092</ele>
        <time>2019-06-29T16:00:45Z</time>
      </trkpt>
      <trkpt lat="45.07066" lon="5.39033">
        <ele>375.251</ele>
        <time>2019-06-29T16:00:47Z</time>
      </trkpt>
      <trkpt lat="45.07066" lon="5.39033">
        <ele>375.251</ele>
        <time>2019-06-29T16:00:47Z</time>
      </trkpt>
      <trkpt lat="45.07066" lon="5.39034">
        <ele>375.243</ele>
        <time>2019-06-29T16:00:48Z</time>
      </trkpt>
      <trkpt lat="45.07066" lon="5.39034">
        <ele>374.484</ele>
        <time>2019-06-29T16:00:49Z</time>
      </trkpt>
      <trkpt lat="45.07066" lon="5.39038">
        <ele>375.385</ele>
        <time>2019-06-29T16:00:53Z</time>
      </trkpt>
      <trkpt lat="45.07064" lon="5.39042">
        <ele>375.252</ele>
        <time>2019-06-29T16:00:57Z</time>
      </trkpt>
      <trkpt lat="45.07063" lon="5.39042">
        <ele>375.802</ele>
        <time>2019-06-29T16:00:58Z</time>
      </trkpt>
      <trkpt lat="45.07065" lon="5.39045">
        <ele>377.79</ele>
        <time>2019-06-29T16:01:01Z</time>
      </trkpt>
      <trkpt lat="45.07067" lon="5.39047">
        <ele>377.778</ele>
        <time>2019-06-29T16:01:03Z</time>
      </trkpt>
      <trkpt lat="45.07067" lon="5.39049">
        <ele>377.679</ele>
        <time>2019-06-29T16:01:06Z</time>
      </trkpt>
      <trkpt lat="45.07067" lon="5.39051">
        <ele>378.016</ele>
        <time>2019-06-29T16:01:08Z</time>
      </trkpt>
      <trkpt lat="45.07067" lon="5.39053">
        <ele>378.287</ele>
        <time>2019-06-29T16:01:10Z</time>
      </trkpt>
      <trkpt lat="45.07067" lon="5.39053">
        <ele>377.785</ele>
        <time>2019-06-29T16:01:11Z</time>
      </trkpt>
      <trkpt lat="45.07067" lon="5.39053">
        <ele>377.755</ele>
        <time>2019-06-29T16:01:12Z</time>
      </trkpt>
      <trkpt lat="45.07067" lon="5.39053">
        <ele>377.689</ele>
        <time>2019-06-29T16:01:13Z</time>
      </trkpt>
      <trkpt lat="45.07067" lon="5.39054">
        <ele>377.74</ele>
        <time>2019-06-29T16:01:14Z</time>
      </trkpt>
      <trkpt lat="45.07068" lon="5.39055">
        <ele>377.802</ele>
        <time>2019-06-29T16:01:16Z</time>
      </trkpt>
      <trkpt lat="45.07068" lon="5.39055">
        <ele>377.645</ele>
        <time>2019-06-29T16:01:17Z</time>
      </trkpt>
      <trkpt lat="45.07068" lon="5.39055">
        <ele>377.645</ele>
        <time>2019-06-29T16:01:17Z</time>
      </trkpt>
      <trkpt lat="45.07069" lon="5.39057">
        <ele>377.531</ele>
        <time>2019-06-29T16:01:18Z</time>
      </trkpt>
      <trkpt lat="45.07068" lon="5.39056">
        <ele>377.662</ele>
        <time>2019-06-29T16:01:23Z</time>
      </trkpt>
      <trkpt lat="45.07068" lon="5.39056">
        <ele>377.333</ele>
        <time>2019-06-29T16:01:51Z</time>
      </trkpt>
      <trkpt lat="45.0707" lon="5.39059">
        <ele>377.551</ele>
        <time>2019-06-29T16:01:52Z</time>
      </trkpt>
      <trkpt lat="45.0707" lon="5.39059">
        <ele>377.551</ele>
        <time>2019-06-29T16:01:52Z</time>
      </trkpt>
      <trkpt lat="45.07069" lon="5.39059">
        <ele>378.519</ele>
        <time>2019-06-29T16:01:53Z</time>
      </trkpt>
      <trkpt lat="45.07069" lon="5.39062">
        <ele>378.966</ele>
        <time>2019-06-29T16:01:56Z</time>
      </trkpt>
      <trkpt lat="45.07069" lon="5.39063">
        <ele>378.791</ele>
        <time>2019-06-29T16:01:57Z</time>
      </trkpt>
      <trkpt lat="45.07072" lon="5.39066">
        <ele>377.894</ele>
        <time>2019-06-29T16:02:03Z</time>
      </trkpt>
      <trkpt lat="45.07073" lon="5.39066">
        <ele>377.93</ele>
        <time>2019-06-29T16:02:04Z</time>
      </trkpt>
      <trkpt lat="45.07072" lon="5.39066">
        <ele>379.449</ele>
        <time>2019-06-29T16:02:08Z</time>
      </trkpt>
      <trkpt lat="45.07072" lon="5.39066">
        <ele>378.71</ele>
        <time>2019-06-29T16:02:10Z</time>
      </trkpt>
      <trkpt lat="45.07072" lon="5.39066">
        <ele>378.691</ele>
        <time>2019-06-29T16:02:42Z</time>
      </trkpt>
      <trkpt lat="45.07073" lon="5.39066">
        <ele>378.828</ele>
        <time>2019-06-29T16:02:43Z</time>
      </trkpt>
      <trkpt lat="45.07073" lon="5.39067">
        <ele>379.04</ele>
        <time>2019-06-29T16:02:44Z</time>
      </trkpt>
      <trkpt lat="45.07073" lon="5.39067">
        <ele>379.047</ele>
        <time>2019-06-29T16:02:45Z</time>
      </trkpt>
      <trkpt lat="45.07073" lon="5.39067">
        <ele>379.078</ele>
        <time>2019-06-29T16:02:52Z</time>
      </trkpt>
      <trkpt lat="45.07074" lon="5.39068">
        <ele>379.185</ele>
        <time>2019-06-29T16:02:53Z</time>
      </trkpt>
      <trkpt lat="45.07075" lon="5.39068">
        <ele>378.919</ele>
        <time>2019-06-29T16:02:56Z</time>
      </trkpt>
      <trkpt lat="45.07076" lon="5.39067">
        <ele>378.226</ele>
        <time>2019-06-29T16:02:57Z</time>
      </trkpt>
      <trkpt lat="45.07075" lon="5.39067">
        <ele>379.302</ele>
        <time>2019-06-29T16:03:00Z</time>
      </trkpt>
      <trkpt lat="45.07075" lon="5.39067">
        <ele>380.101</ele>
        <time>2019-06-29T16:03:21Z</time>
      </trkpt>
      <trkpt lat="45.07076" lon="5.39069">
        <ele>380.064</ele>
        <time>2019-06-29T16:03:22Z</time>
      </trkpt>
      <trkpt lat="45.07076" lon="5.39069">
        <ele>380.029</ele>
        <time>2019-06-29T16:03:23Z</time>
      </trkpt>
      <trkpt lat="45.07076" lon="5.39069">
        <ele>381.011</ele>
        <time>2019-06-29T16:04:14Z</time>
      </trkpt>
      <trkpt lat="45.07075" lon="5.39071">
        <ele>380.815</ele>
        <time>2019-06-29T16:04:15Z</time>
      </trkpt>
      <trkpt lat="45.07076" lon="5.39074">
        <ele>381.92</ele>
        <time>2019-06-29T16:04:20Z</time>
      </trkpt>
      <trkpt lat="45.07076" lon="5.39074">
        <ele>382.54</ele>
        <time>2019-06-29T16:05:08Z</time>
      </trkpt>
      <trkpt lat="45.07076" lon="5.39075">
        <ele>382.571</ele>
        <time>2019-06-29T16:05:09Z</time>
      </trkpt>
      <trkpt lat="45.07076" lon="5.39076">
        <ele>382.621</ele>
        <time>2019-06-29T16:05:10Z</time>
      </trkpt>
      <trkpt lat="45.07076" lon="5.39078">
        <ele>382.992</ele>
        <time>2019-06-29T16:05:13Z</time>
      </trkpt>
      <trkpt lat="45.07075" lon="5.39078">
        <ele>382.564</ele>
        <time>2019-06-29T16:05:14Z</time>
      </trkpt>
      <trkpt lat="45.07075" lon="5.39078">
        <ele>382.438</ele>
        <time>2019-06-29T16:05:15Z</time>
      </trkpt>
      <trkpt lat="45.07075" lon="5.39078">
        <ele>382.438</ele>
        <time>2019-06-29T16:05:15Z</time>
      </trkpt>
      <trkpt lat="45.07075" lon="5.39078">
        <ele>382.732</ele>
        <time>2019-06-29T16:05:16Z</time>
      </trkpt>
      <trkpt lat="45.07075" lon="5.39078">
        <ele>382.524</ele>
        <time>2019-06-29T16:05:17Z</time>
      </trkpt>
      <trkpt lat="45.07075" lon="5.39078">
        <ele>382.524</ele>
        <time>2019-06-29T16:05:17Z</time>
      </trkpt>
      <trkpt lat="45.07075" lon="5.39079">
        <ele>382.849</ele>
        <time>2019-06-29T16:05:18Z</time>
      </trkpt>
      <trkpt lat="45.07075" lon="5.39079">
        <ele>382.849</ele>
        <time>2019-06-29T16:05:18Z</time>
      </trkpt>
      <trkpt lat="45.07075" lon="5.39079">
        <ele>382.435</ele>
        <time>2019-06-29T16:05:19Z</time>
      </trkpt>
      <trkpt lat="45.07075" lon="5.39079">
        <ele>383.195</ele>
        <time>2019-06-29T16:06:04Z</time>
      </trkpt>
      <trkpt lat="45.07076" lon="5.39075">
        <ele>382.821</ele>
        <time>2019-06-29T16:06:05Z</time>
      </trkpt>
      <trkpt lat="45.07076" lon="5.39075">
        <ele>382.572</ele>
        <time>2019-06-29T16:06:06Z</time>
      </trkpt>
      <trkpt lat="45.07076" lon="5.39075">
        <ele>382.572</ele>
        <time>2019-06-29T16:06:06Z</time>
      </trkpt>
      <trkpt lat="45.07076" lon="5.39076">
        <ele>383.013</ele>
        <time>2019-06-29T16:06:07Z</time>
      </trkpt>
      <trkpt lat="45.07075" lon="5.39076">
        <ele>383.584</ele>
        <time>2019-06-29T16:06:11Z</time>
      </trkpt>
      <trkpt lat="45.07075" lon="5.39076">
        <ele>383.802</ele>
        <time>2019-06-29T16:06:12Z</time>
      </trkpt>
      <trkpt lat="45.07075" lon="5.39076">
        <ele>384.844</ele>
        <time>2019-06-29T16:06:13Z</time>
      </trkpt>
      <trkpt lat="45.07075" lon="5.39076">
        <ele>384.884</ele>
        <time>2019-06-29T16:06:14Z</time>
      </trkpt>
      <trkpt lat="45.07075" lon="5.39076">
        <ele>384.923</ele>
        <time>2019-06-29T16:06:16Z</time>
      </trkpt>
      <trkpt lat="45.07075" lon="5.39076">
        <ele>384.808</ele>
        <time>2019-06-29T16:06:17Z</time>
      </trkpt>
      <trkpt lat="45.07075" lon="5.39076">
        <ele>383.474</ele>
        <time>2019-06-29T16:06:19Z</time>
      </trkpt>
      <trkpt lat="45.07074" lon="5.39074">
        <ele>382.761</ele>
        <time>2019-06-29T16:06:20Z</time>
      </trkpt>
      <trkpt lat="45.07074" lon="5.39073">
        <ele>382.75</ele>
        <time>2019-06-29T16:06:21Z</time>
      </trkpt>
      <trkpt lat="45.07073" lon="5.39072">
        <ele>380.99</ele>
        <time>2019-06-29T16:06:22Z</time>
      </trkpt>
      <trkpt lat="45.07073" lon="5.39069">
        <ele>379.242</ele>
        <time>2019-06-29T16:06:25Z</time>
      </trkpt>
      <trkpt lat="45.07072" lon="5.39064">
        <ele>378.69</ele>
        <time>2019-06-29T16:06:28Z</time>
      </trkpt>
      <trkpt lat="45.07069" lon="5.3906">
        <ele>376.084</ele>
        <time>2019-06-29T16:06:31Z</time>
      </trkpt>
      <trkpt lat="45.07069" lon="5.39056">
        <ele>375.544</ele>
        <time>2019-06-29T16:06:34Z</time>
      </trkpt>
      <trkpt lat="45.07069" lon="5.39055">
        <ele>375.457</ele>
        <time>2019-06-29T16:06:35Z</time>
      </trkpt>
      <trkpt lat="45.07069" lon="5.39054">
        <ele>375.207</ele>
        <time>2019-06-29T16:06:38Z</time>
      </trkpt>
      <trkpt lat="45.07069" lon="5.39054">
        <ele>375.207</ele>
        <time>2019-06-29T16:06:38Z</time>
      </trkpt>
      <trkpt lat="45.07069" lon="5.39054">
        <ele>375.182</ele>
        <time>2019-06-29T16:06:39Z</time>
      </trkpt>
      <trkpt lat="45.07069" lon="5.39054">
        <ele>375.107</ele>
        <time>2019-06-29T16:08:24Z</time>
      </trkpt>
      <trkpt lat="45.07069" lon="5.39054">
        <ele>374.971</ele>
        <time>2019-06-29T16:08:25Z</time>
      </trkpt>
      <trkpt lat="45.07069" lon="5.39052">
        <ele>376.15</ele>
        <time>2019-06-29T16:08:30Z</time>
      </trkpt>
      <trkpt lat="45.07067" lon="5.3905">
        <ele>375.804</ele>
        <time>2019-06-29T16:08:35Z</time>
      </trkpt>
      <trkpt lat="45.07065" lon="5.39048">
        <ele>375.138</ele>
        <time>2019-06-29T16:08:39Z</time>
      </trkpt>
      <trkpt lat="45.07065" lon="5.39047">
        <ele>375.247</ele>
        <time>2019-06-29T16:08:40Z</time>
      </trkpt>
      <trkpt lat="45.07065" lon="5.39046">
        <ele>374.528</ele>
        <time>2019-06-29T16:08:42Z</time>
      </trkpt>
      <trkpt lat="45.07065" lon="5.39045">
        <ele>374.367</ele>
        <time>2019-06-29T16:08:43Z</time>
      </trkpt>
      <trkpt lat="45.07065" lon="5.39043">
        <ele>373.927</ele>
        <time>2019-06-29T16:08:45Z</time>
      </trkpt>
      <trkpt lat="45.07065" lon="5.39028">
        <ele>373.944</ele>
        <time>2019-06-29T16:09:00Z</time>
      </trkpt>
      <trkpt lat="45.07065" lon="5.39027">
        <ele>373.635</ele>
        <time>2019-06-29T16:09:01Z</time>
      </trkpt>
      <trkpt lat="45.07066" lon="5.39025">
        <ele>372.473</ele>
        <time>2019-06-29T16:09:05Z</time>
      </trkpt>
      <trkpt lat="45.07066" lon="5.39024">
        <ele>372.542</ele>
        <time>2019-06-29T16:09:07Z</time>
      </trkpt>
      <trkpt lat="45.07066" lon="5.39024">
        <ele>372.374</ele>
        <time>2019-06-29T16:09:08Z</time>
      </trkpt>
      <trkpt lat="45.07067" lon="5.39024">
        <ele>372.332</ele>
        <time>2019-06-29T16:09:09Z</time>
      </trkpt>
      <trkpt lat="45.07067" lon="5.39024">
        <ele>372.332</ele>
        <time>2019-06-29T16:09:09Z</time>
      </trkpt>
      <trkpt lat="45.07067" lon="5.39024">
        <ele>372.067</ele>
        <time>2019-06-29T16:09:10Z</time>
      </trkpt>
      <trkpt lat="45.07067" lon="5.39023">
        <ele>371.878</ele>
        <time>2019-06-29T16:09:11Z</time>
      </trkpt>
      <trkpt lat="45.07067" lon="5.39021">
        <ele>370.96</ele>
        <time>2019-06-29T16:09:14Z</time>
      </trkpt>
      <trkpt lat="45.07067" lon="5.39021">
        <ele>370.96</ele>
        <time>2019-06-29T16:09:14Z</time>
      </trkpt>
      <trkpt lat="45.07067" lon="5.39021">
        <ele>370.62</ele>
        <time>2019-06-29T16:09:15Z</time>
      </trkpt>
      <trkpt lat="45.07067" lon="5.39021">
        <ele>370.825</ele>
        <time>2019-06-29T16:09:16Z</time>
      </trkpt>
      <trkpt lat="45.07068" lon="5.39016">
        <ele>371.149</ele>
        <time>2019-06-29T16:09:20Z</time>
      </trkpt>
      <trkpt lat="45.07068" lon="5.39012">
        <ele>370.26</ele>
        <time>2019-06-29T16:09:24Z</time>
      </trkpt>
      <trkpt lat="45.07067" lon="5.39007">
        <ele>371.074</ele>
        <time>2019-06-29T16:09:28Z</time>
      </trkpt>
      <trkpt lat="45.07066" lon="5.39005">
        <ele>371.179</ele>
        <time>2019-06-29T16:09:30Z</time>
      </trkpt>
      <trkpt lat="45.07066" lon="5.39004">
        <ele>370.933</ele>
        <time>2019-06-29T16:09:31Z</time>
      </trkpt>
      <trkpt lat="45.07065" lon="5.38999">
        <ele>371.332</ele>
        <time>2019-06-29T16:09:35Z</time>
      </trkpt>
      <trkpt lat="45.07065" lon="5.38998">
        <ele>371.203</ele>
        <time>2019-06-29T16:09:36Z</time>
      </trkpt>
      <trkpt lat="45.07065" lon="5.38995">
        <ele>371.055</ele>
        <time>2019-06-29T16:09:38Z</time>
      </trkpt>
      <trkpt lat="45.07066" lon="5.38981">
        <ele>370.193</ele>
        <time>2019-06-29T16:09:53Z</time>
      </trkpt>
      <trkpt lat="45.07066" lon="5.38978">
        <ele>369.987</ele>
        <time>2019-06-29T16:09:55Z</time>
      </trkpt>
      <trkpt lat="45.07067" lon="5.38976">
        <ele>370.233</ele>
        <time>2019-06-29T16:09:56Z</time>
      </trkpt>
      <trkpt lat="45.07067" lon="5.38973">
        <ele>370.465</ele>
        <time>2019-06-29T16:09:58Z</time>
      </trkpt>
      <trkpt lat="45.0707" lon="5.3897">
        <ele>370.186</ele>
        <time>2019-06-29T16:10:02Z</time>
      </trkpt>
      <trkpt lat="45.07072" lon="5.38969">
        <ele>370.147</ele>
        <time>2019-06-29T16:10:05Z</time>
      </trkpt>
      <trkpt lat="45.07072" lon="5.38968">
        <ele>370.102</ele>
        <time>2019-06-29T16:10:06Z</time>
      </trkpt>
      <trkpt lat="45.07073" lon="5.38961">
        <ele>369.964</ele>
        <time>2019-06-29T16:10:12Z</time>
      </trkpt>
      <trkpt lat="45.07074" lon="5.38959">
        <ele>369.636</ele>
        <time>2019-06-29T16:10:15Z</time>
      </trkpt>
      <trkpt lat="45.07074" lon="5.38959">
        <ele>369.636</ele>
        <time>2019-06-29T16:10:15Z</time>
      </trkpt>
      <trkpt lat="45.07074" lon="5.38959">
        <ele>369.769</ele>
        <time>2019-06-29T16:10:15Z</time>
      </trkpt>
      <trkpt lat="45.07076" lon="5.3896">
        <ele>369.994</ele>
        <time>2019-06-29T16:10:22Z</time>
      </trkpt>
      <trkpt lat="45.07076" lon="5.3896">
        <ele>369.994</ele>
        <time>2019-06-29T16:10:22Z</time>
      </trkpt>
      <trkpt lat="45.07077" lon="5.38961">
        <ele>369.7</ele>
        <time>2019-06-29T16:10:23Z</time>
      </trkpt>
      <trkpt lat="45.07079" lon="5.38959">
        <ele>369.623</ele>
        <time>2019-06-29T16:10:28Z</time>
      </trkpt>
      <trkpt lat="45.07079" lon="5.38959">
        <ele>369.623</ele>
        <time>2019-06-29T16:10:28Z</time>
      </trkpt>
      <trkpt lat="45.0708" lon="5.38958">
        <ele>369.67</ele>
        <time>2019-06-29T16:10:29Z</time>
      </trkpt>
      <trkpt lat="45.07082" lon="5.38958">
        <ele>369.31</ele>
        <time>2019-06-29T16:10:33Z</time>
      </trkpt>
      <trkpt lat="45.07083" lon="5.38957">
        <ele>369.294</ele>
        <time>2019-06-29T16:10:34Z</time>
      </trkpt>
      <trkpt lat="45.07084" lon="5.38956">
        <ele>369.148</ele>
        <time>2019-06-29T16:10:35Z</time>
      </trkpt>
      <trkpt lat="45.07086" lon="5.38953">
        <ele>369.081</ele>
        <time>2019-06-29T16:10:38Z</time>
      </trkpt>
      <trkpt lat="45.07086" lon="5.38953">
        <ele>369.174</ele>
        <time>2019-06-29T16:10:39Z</time>
      </trkpt>
      <trkpt lat="45.07088" lon="5.3895">
        <ele>369.4</ele>
        <time>2019-06-29T16:10:40Z</time>
      </trkpt>
      <trkpt lat="45.07089" lon="5.38949">
        <ele>368.674</ele>
        <time>2019-06-29T16:10:42Z</time>
      </trkpt>
      <trkpt lat="45.07089" lon="5.38949">
        <ele>368.898</ele>
        <time>2019-06-29T16:10:44Z</time>
      </trkpt>
      <trkpt lat="45.07093" lon="5.38948">
        <ele>369.047</ele>
        <time>2019-06-29T16:10:45Z</time>
      </trkpt>
      <trkpt lat="45.07095" lon="5.38946">
        <ele>368.856</ele>
        <time>2019-06-29T16:10:49Z</time>
      </trkpt>
      <trkpt lat="45.07095" lon="5.38946">
        <ele>368.468</ele>
        <time>2019-06-29T16:10:50Z</time>
      </trkpt>
      <trkpt lat="45.07095" lon="5.38946">
        <ele>368.468</ele>
        <time>2019-06-29T16:10:50Z</time>
      </trkpt>
      <trkpt lat="45.07095" lon="5.38945">
        <ele>368.223</ele>
        <time>2019-06-29T16:10:51Z</time>
      </trkpt>
      <trkpt lat="45.07095" lon="5.38945">
        <ele>367.909</ele>
        <time>2019-06-29T16:10:52Z</time>
      </trkpt>
      <trkpt lat="45.07095" lon="5.38945">
        <ele>367.909</ele>
        <time>2019-06-29T16:10:52Z</time>
      </trkpt>
      <trkpt lat="45.07095" lon="5.38944">
        <ele>367.796</ele>
        <time>2019-06-29T16:10:53Z</time>
      </trkpt>
      <trkpt lat="45.07095" lon="5.38944">
        <ele>367.617</ele>
        <time>2019-06-29T16:10:55Z</time>
      </trkpt>
      <trkpt lat="45.07098" lon="5.38945">
        <ele>367.288</ele>
        <time>2019-06-29T16:11:04Z</time>
      </trkpt>
      <trkpt lat="45.071" lon="5.38946">
        <ele>367.298</ele>
        <time>2019-06-29T16:11:07Z</time>
      </trkpt>
      <trkpt lat="45.071" lon="5.38947">
        <ele>367.053</ele>
        <time>2019-06-29T16:11:08Z</time>
      </trkpt>
      <trkpt lat="45.07101" lon="5.38945">
        <ele>367.177</ele>
        <time>2019-06-29T16:11:10Z</time>
      </trkpt>
      <trkpt lat="45.07103" lon="5.38942">
        <ele>367.121</ele>
        <time>2019-06-29T16:11:13Z</time>
      </trkpt>
      <trkpt lat="45.07103" lon="5.38942">
        <ele>367.125</ele>
        <time>2019-06-29T16:11:14Z</time>
      </trkpt>
      <trkpt lat="45.07103" lon="5.38942">
        <ele>366.951</ele>
        <time>2019-06-29T16:11:16Z</time>
      </trkpt>
      <trkpt lat="45.07103" lon="5.38942">
        <ele>366.951</ele>
        <time>2019-06-29T16:11:16Z</time>
      </trkpt>
      <trkpt lat="45.07103" lon="5.38942">
        <ele>366.877</ele>
        <time>2019-06-29T16:11:17Z</time>
      </trkpt>
      <trkpt lat="45.07103" lon="5.38942">
        <ele>366.534</ele>
        <time>2019-06-29T16:11:24Z</time>
      </trkpt>
      <trkpt lat="45.07101" lon="5.38943">
        <ele>366.5</ele>
        <time>2019-06-29T16:11:25Z</time>
      </trkpt>
      <trkpt lat="45.07098" lon="5.38941">
        <ele>367.322</ele>
        <time>2019-06-29T16:11:30Z</time>
      </trkpt>
      <trkpt lat="45.07098" lon="5.38941">
        <ele>367.504</ele>
        <time>2019-06-29T16:11:31Z</time>
      </trkpt>
      <trkpt lat="45.07098" lon="5.38941">
        <ele>367.504</ele>
        <time>2019-06-29T16:11:31Z</time>
      </trkpt>
      <trkpt lat="45.07097" lon="5.38941">
        <ele>367.467</ele>
        <time>2019-06-29T16:11:32Z</time>
      </trkpt>
      <trkpt lat="45.07096" lon="5.3894">
        <ele>367.755</ele>
        <time>2019-06-29T16:11:33Z</time>
      </trkpt>
      <trkpt lat="45.07081" lon="5.38931">
        <ele>367.347</ele>
        <time>2019-06-29T16:11:48Z</time>
      </trkpt>
      <trkpt lat="45.0708" lon="5.38928">
        <ele>366.586</ele>
        <time>2019-06-29T16:11:53Z</time>
      </trkpt>
      <trkpt lat="45.07075" lon="5.3892">
        <ele>366.46</ele>
        <time>2019-06-29T16:11:59Z</time>
      </trkpt>
      <trkpt lat="45.07073" lon="5.38919">
        <ele>366.321</ele>
        <time>2019-06-29T16:12:00Z</time>
      </trkpt>
      <trkpt lat="45.07066" lon="5.38913">
        <ele>366.383</ele>
        <time>2019-06-29T16:12:08Z</time>
      </trkpt>
      <trkpt lat="45.0706" lon="5.38905">
        <ele>366.237</ele>
        <time>2019-06-29T16:12:17Z</time>
      </trkpt>
      <trkpt lat="45.07051" lon="5.38895">
        <ele>365.457</ele>
        <time>2019-06-29T16:12:28Z</time>
      </trkpt>
      <trkpt lat="45.07051" lon="5.38895">
        <ele>365.425</ele>
        <time>2019-06-29T16:12:29Z</time>
      </trkpt>
      <trkpt lat="45.07051" lon="5.38894">
        <ele>365.603</ele>
        <time>2019-06-29T16:12:30Z</time>
      </trkpt>
      <trkpt lat="45.0705" lon="5.38893">
        <ele>365.816</ele>
        <time>2019-06-29T16:12:33Z</time>
      </trkpt>
      <trkpt lat="45.0705" lon="5.38893">
        <ele>365.396</ele>
        <time>2019-06-29T16:12:34Z</time>
      </trkpt>
      <trkpt lat="45.0705" lon="5.38893">
        <ele>365.396</ele>
        <time>2019-06-29T16:12:34Z</time>
      </trkpt>
      <trkpt lat="45.0705" lon="5.38893">
        <ele>365.6</ele>
        <time>2019-06-29T16:12:35Z</time>
      </trkpt>
      <trkpt lat="45.07048" lon="5.38891">
        <ele>364.979</ele>
        <time>2019-06-29T16:12:39Z</time>
      </trkpt>
      <trkpt lat="45.07048" lon="5.38891">
        <ele>364.746</ele>
        <time>2019-06-29T16:12:40Z</time>
      </trkpt>
      <trkpt lat="45.07048" lon="5.38891">
        <ele>364.746</ele>
        <time>2019-06-29T16:12:40Z</time>
      </trkpt>
      <trkpt lat="45.07048" lon="5.38891">
        <ele>364.733</ele>
        <time>2019-06-29T16:12:41Z</time>
      </trkpt>
      <trkpt lat="45.07047" lon="5.3889">
        <ele>364.781</ele>
        <time>2019-06-29T16:12:42Z</time>
      </trkpt>
      <trkpt lat="45.07047" lon="5.38889">
        <ele>364.726</ele>
        <time>2019-06-29T16:12:43Z</time>
      </trkpt>
      <trkpt lat="45.07044" lon="5.38887">
        <ele>365.205</ele>
        <time>2019-06-29T16:12:48Z</time>
      </trkpt>
      <trkpt lat="45.07043" lon="5.38886">
        <ele>364.932</ele>
        <time>2019-06-29T16:12:49Z</time>
      </trkpt>
      <trkpt lat="45.07034" lon="5.3888">
        <ele>364.896</ele>
        <time>2019-06-29T16:12:57Z</time>
      </trkpt>
      <trkpt lat="45.07031" lon="5.38878">
        <ele>364.944</ele>
        <time>2019-06-29T16:13:03Z</time>
      </trkpt>
      <trkpt lat="45.07004" lon="5.38875">
        <ele>365.163</ele>
        <time>2019-06-29T16:13:32Z</time>
      </trkpt>
      <trkpt lat="45.07003" lon="5.38877">
        <ele>364.657</ele>
        <time>2019-06-29T16:13:34Z</time>
      </trkpt>
      <trkpt lat="45.07002" lon="5.38878">
        <ele>364.556</ele>
        <time>2019-06-29T16:13:36Z</time>
      </trkpt>
      <trkpt lat="45.07002" lon="5.38878">
        <ele>364.556</ele>
        <time>2019-06-29T16:13:36Z</time>
      </trkpt>
      <trkpt lat="45.07002" lon="5.38879">
        <ele>364.239</ele>
        <time>2019-06-29T16:13:37Z</time>
      </trkpt>
      <trkpt lat="45.07002" lon="5.38879">
        <ele>364.339</ele>
        <time>2019-06-29T16:13:38Z</time>
      </trkpt>
      <trkpt lat="45.07002" lon="5.38879">
        <ele>364.473</ele>
        <time>2019-06-29T16:13:39Z</time>
      </trkpt>
      <trkpt lat="45.07002" lon="5.38879">
        <ele>364.473</ele>
        <time>2019-06-29T16:13:39Z</time>
      </trkpt>
      <trkpt lat="45.07003" lon="5.38879">
        <ele>364.574</ele>
        <time>2019-06-29T16:13:40Z</time>
      </trkpt>
      <trkpt lat="45.07003" lon="5.38879">
        <ele>364.779</ele>
        <time>2019-06-29T16:13:41Z</time>
      </trkpt>
      <trkpt lat="45.07003" lon="5.38879">
        <ele>364.841</ele>
        <time>2019-06-29T16:13:42Z</time>
      </trkpt>
      <trkpt lat="45.07003" lon="5.38879">
        <ele>364.841</ele>
        <time>2019-06-29T16:13:42Z</time>
      </trkpt>
      <trkpt lat="45.07003" lon="5.38879">
        <ele>364.798</ele>
        <time>2019-06-29T16:13:43Z</time>
      </trkpt>
      <trkpt lat="45.07003" lon="5.38879">
        <ele>364.798</ele>
        <time>2019-06-29T16:13:43Z</time>
      </trkpt>
      <trkpt lat="45.07003" lon="5.38878">
        <ele>364.724</ele>
        <time>2019-06-29T16:13:44Z</time>
      </trkpt>
      <trkpt lat="45.07002" lon="5.38878">
        <ele>364.793</ele>
        <time>2019-06-29T16:13:45Z</time>
      </trkpt>
      <trkpt lat="45.07002" lon="5.38878">
        <ele>364.793</ele>
        <time>2019-06-29T16:13:45Z</time>
      </trkpt>
      <trkpt lat="45.07002" lon="5.38877">
        <ele>364.759</ele>
        <time>2019-06-29T16:13:46Z</time>
      </trkpt>
      <trkpt lat="45.07001" lon="5.38877">
        <ele>365.152</ele>
        <time>2019-06-29T16:13:49Z</time>
      </trkpt>
      <trkpt lat="45.06993" lon="5.38882">
        <ele>364.868</ele>
        <time>2019-06-29T16:13:59Z</time>
      </trkpt>
      <trkpt lat="45.0699" lon="5.38879">
        <ele>365.031</ele>
        <time>2019-06-29T16:14:01Z</time>
      </trkpt>
      <trkpt lat="45.06988" lon="5.38877">
        <ele>365.24</ele>
        <time>2019-06-29T16:14:04Z</time>
      </trkpt>
      <trkpt lat="45.06988" lon="5.38877">
        <ele>365.24</ele>
        <time>2019-06-29T16:14:04Z</time>
      </trkpt>
      <trkpt lat="45.06988" lon="5.38877">
        <ele>365.226</ele>
        <time>2019-06-29T16:14:05Z</time>
      </trkpt>
      <trkpt lat="45.06988" lon="5.38876">
        <ele>365.328</ele>
        <time>2019-06-29T16:14:07Z</time>
      </trkpt>
      <trkpt lat="45.06987" lon="5.38876">
        <ele>365.051</ele>
        <time>2019-06-29T16:14:08Z</time>
      </trkpt>
      <trkpt lat="45.06986" lon="5.38876">
        <ele>365.373</ele>
        <time>2019-06-29T16:14:09Z</time>
      </trkpt>
      <trkpt lat="45.06986" lon="5.38878">
        <ele>364.628</ele>
        <time>2019-06-29T16:14:10Z</time>
      </trkpt>
      <trkpt lat="45.06986" lon="5.38879">
        <ele>364.613</ele>
        <time>2019-06-29T16:14:11Z</time>
      </trkpt>
      <trkpt lat="45.06984" lon="5.38882">
        <ele>364.688</ele>
        <time>2019-06-29T16:14:14Z</time>
      </trkpt>
      <trkpt lat="45.06982" lon="5.38886">
        <ele>362.689</ele>
        <time>2019-06-29T16:14:19Z</time>
      </trkpt>
      <trkpt lat="45.06982" lon="5.38886">
        <ele>362.689</ele>
        <time>2019-06-29T16:14:19Z</time>
      </trkpt>
      <trkpt lat="45.06983" lon="5.38887">
        <ele>363.18</ele>
        <time>2019-06-29T16:14:20Z</time>
      </trkpt>
      <trkpt lat="45.06983" lon="5.38887">
        <ele>362.174</ele>
        <time>2019-06-29T16:14:22Z</time>
      </trkpt>
      <trkpt lat="45.06983" lon="5.38887">
        <ele>362.174</ele>
        <time>2019-06-29T16:14:22Z</time>
      </trkpt>
      <trkpt lat="45.06983" lon="5.38888">
        <ele>362.484</ele>
        <time>2019-06-29T16:14:23Z</time>
      </trkpt>
      <trkpt lat="45.06984" lon="5.38888">
        <ele>361.006</ele>
        <time>2019-06-29T16:14:24Z</time>
      </trkpt>
      <trkpt lat="45.06984" lon="5.38888">
        <ele>361.226</ele>
        <time>2019-06-29T16:14:25Z</time>
      </trkpt>
      <trkpt lat="45.06984" lon="5.38888">
        <ele>360.809</ele>
        <time>2019-06-29T16:14:29Z</time>
      </trkpt>
      <trkpt lat="45.06985" lon="5.38885">
        <ele>360.951</ele>
        <time>2019-06-29T16:14:30Z</time>
      </trkpt>
      <trkpt lat="45.06985" lon="5.38884">
        <ele>360.892</ele>
        <time>2019-06-29T16:14:32Z</time>
      </trkpt>
      <trkpt lat="45.06982" lon="5.38886">
        <ele>361.113</ele>
        <time>2019-06-29T16:14:36Z</time>
      </trkpt>
      <trkpt lat="45.0698" lon="5.38886">
        <ele>358.423</ele>
        <time>2019-06-29T16:14:41Z</time>
      </trkpt>
      <trkpt lat="45.06974" lon="5.38886">
        <ele>358.261</ele>
        <time>2019-06-29T16:14:48Z</time>
      </trkpt>
      <trkpt lat="45.0697" lon="5.38888">
        <ele>358.73</ele>
        <time>2019-06-29T16:14:53Z</time>
      </trkpt>
      <trkpt lat="45.06969" lon="5.38888">
        <ele>359.383</ele>
        <time>2019-06-29T16:14:55Z</time>
      </trkpt>
      <trkpt lat="45.06968" lon="5.38888">
        <ele>359.34</ele>
        <time>2019-06-29T16:14:56Z</time>
      </trkpt>
      <trkpt lat="45.06965" lon="5.38891">
        <ele>358.777</ele>
        <time>2019-06-29T16:14:59Z</time>
      </trkpt>
      <trkpt lat="45.06963" lon="5.3889">
        <ele>358.459</ele>
        <time>2019-06-29T16:15:03Z</time>
      </trkpt>
      <trkpt lat="45.06957" lon="5.3889">
        <ele>357.785</ele>
        <time>2019-06-29T16:15:09Z</time>
      </trkpt>
      <trkpt lat="45.06954" lon="5.38887">
        <ele>357.489</ele>
        <time>2019-06-29T16:15:12Z</time>
      </trkpt>
      <trkpt lat="45.06951" lon="5.38866">
        <ele>357.156</ele>
        <time>2019-06-29T16:15:29Z</time>
      </trkpt>
      <trkpt lat="45.0695" lon="5.38863">
        <ele>358.502</ele>
        <time>2019-06-29T16:15:33Z</time>
      </trkpt>
      <trkpt lat="45.06947" lon="5.3885">
        <ele>357.111</ele>
        <time>2019-06-29T16:15:44Z</time>
      </trkpt>
      <trkpt lat="45.06947" lon="5.38837">
        <ele>356.901</ele>
        <time>2019-06-29T16:15:54Z</time>
      </trkpt>
      <trkpt lat="45.06947" lon="5.38835">
        <ele>356.755</ele>
        <time>2019-06-29T16:15:56Z</time>
      </trkpt>
      <trkpt lat="45.06947" lon="5.38834">
        <ele>356.621</ele>
        <time>2019-06-29T16:15:57Z</time>
      </trkpt>
      <trkpt lat="45.06946" lon="5.38829">
        <ele>356.068</ele>
        <time>2019-06-29T16:16:01Z</time>
      </trkpt>
      <trkpt lat="45.06944" lon="5.3882">
        <ele>354.854</ele>
        <time>2019-06-29T16:16:08Z</time>
      </trkpt>
      <trkpt lat="45.06944" lon="5.38819">
        <ele>354.796</ele>
        <time>2019-06-29T16:16:09Z</time>
      </trkpt>
      <trkpt lat="45.06939" lon="5.38803">
        <ele>353.259</ele>
        <time>2019-06-29T16:16:23Z</time>
      </trkpt>
      <trkpt lat="45.06937" lon="5.38797">
        <ele>352.392</ele>
        <time>2019-06-29T16:16:29Z</time>
      </trkpt>
      <trkpt lat="45.06934" lon="5.38794">
        <ele>352.444</ele>
        <time>2019-06-29T16:16:33Z</time>
      </trkpt>
      <trkpt lat="45.06933" lon="5.38793">
        <ele>352.209</ele>
        <time>2019-06-29T16:16:34Z</time>
      </trkpt>
      <trkpt lat="45.06933" lon="5.38791">
        <ele>352.189</ele>
        <time>2019-06-29T16:16:35Z</time>
      </trkpt>
      <trkpt lat="45.06923" lon="5.38764">
        <ele>351.039</ele>
        <time>2019-06-29T16:16:59Z</time>
      </trkpt>
      <trkpt lat="45.06923" lon="5.38764">
        <ele>351.076</ele>
        <time>2019-06-29T16:17:01Z</time>
      </trkpt>
      <trkpt lat="45.06924" lon="5.38763">
        <ele>351.086</ele>
        <time>2019-06-29T16:17:02Z</time>
      </trkpt>
      <trkpt lat="45.06923" lon="5.38761">
        <ele>350.805</ele>
        <time>2019-06-29T16:17:04Z</time>
      </trkpt>
      <trkpt lat="45.06922" lon="5.38755">
        <ele>351.376</ele>
        <time>2019-06-29T16:17:10Z</time>
      </trkpt>
      <trkpt lat="45.06912" lon="5.38723">
        <ele>350.885</ele>
        <time>2019-06-29T16:17:38Z</time>
      </trkpt>
      <trkpt lat="45.0691" lon="5.38714">
        <ele>351.234</ele>
        <time>2019-06-29T16:17:50Z</time>
      </trkpt>
      <trkpt lat="45.0691" lon="5.38712">
        <ele>351.172</ele>
        <time>2019-06-29T16:17:52Z</time>
      </trkpt>
      <trkpt lat="45.06907" lon="5.38704">
        <ele>350.817</ele>
        <time>2019-06-29T16:18:00Z</time>
      </trkpt>
      <trkpt lat="45.06905" lon="5.38673">
        <ele>348.916</ele>
        <time>2019-06-29T16:18:24Z</time>
      </trkpt>
      <trkpt lat="45.06905" lon="5.38654">
        <ele>349.312</ele>
        <time>2019-06-29T16:18:34Z</time>
      </trkpt>
      <trkpt lat="45.06903" lon="5.38627">
        <ele>347.038</ele>
        <time>2019-06-29T16:18:54Z</time>
      </trkpt>
      <trkpt lat="45.06903" lon="5.38613">
        <ele>346.622</ele>
        <time>2019-06-29T16:19:06Z</time>
      </trkpt>
      <trkpt lat="45.06903" lon="5.38598">
        <ele>343.805</ele>
        <time>2019-06-29T16:19:16Z</time>
      </trkpt>
      <trkpt lat="45.06904" lon="5.38581">
        <ele>342.682</ele>
        <time>2019-06-29T16:19:32Z</time>
      </trkpt>
      <trkpt lat="45.06905" lon="5.38573">
        <ele>342.265</ele>
        <time>2019-06-29T16:19:38Z</time>
      </trkpt>
      <trkpt lat="45.06906" lon="5.38569">
        <ele>342.02</ele>
        <time>2019-06-29T16:19:41Z</time>
      </trkpt>
      <trkpt lat="45.06918" lon="5.38508">
        <ele>340.403</ele>
        <time>2019-06-29T16:20:24Z</time>
      </trkpt>
      <trkpt lat="45.06917" lon="5.38498">
        <ele>339.825</ele>
        <time>2019-06-29T16:20:31Z</time>
      </trkpt>
      <trkpt lat="45.06916" lon="5.38487">
        <ele>340.335</ele>
        <time>2019-06-29T16:20:38Z</time>
      </trkpt>
      <trkpt lat="45.06912" lon="5.38481">
        <ele>341.321</ele>
        <time>2019-06-29T16:20:47Z</time>
      </trkpt>
      <trkpt lat="45.06912" lon="5.38481">
        <ele>341.476</ele>
        <time>2019-06-29T16:20:48Z</time>
      </trkpt>
      <trkpt lat="45.06912" lon="5.38499">
        <ele>341.455</ele>
        <time>2019-06-29T16:21:05Z</time>
      </trkpt>
      <trkpt lat="45.06912" lon="5.38504">
        <ele>341.21</ele>
        <time>2019-06-29T16:21:09Z</time>
      </trkpt>
      <trkpt lat="45.0691" lon="5.38512">
        <ele>341.95</ele>
        <time>2019-06-29T16:21:16Z</time>
      </trkpt>
      <trkpt lat="45.06907" lon="5.38515">
        <ele>341.834</ele>
        <time>2019-06-29T16:21:21Z</time>
      </trkpt>
      <trkpt lat="45.06906" lon="5.38516">
        <ele>341.757</ele>
        <time>2019-06-29T16:21:22Z</time>
      </trkpt>
      <trkpt lat="45.06894" lon="5.38527">
        <ele>341.581</ele>
        <time>2019-06-29T16:21:33Z</time>
      </trkpt>
      <trkpt lat="45.06892" lon="5.38529">
        <ele>340.847</ele>
        <time>2019-06-29T16:21:37Z</time>
      </trkpt>
      <trkpt lat="45.06889" lon="5.38529">
        <ele>340.127</ele>
        <time>2019-06-29T16:21:40Z</time>
      </trkpt>
      <trkpt lat="45.06883" lon="5.38531">
        <ele>338.035</ele>
        <time>2019-06-29T16:21:48Z</time>
      </trkpt>
      <trkpt lat="45.0688" lon="5.38532">
        <ele>336.965</ele>
        <time>2019-06-29T16:21:52Z</time>
      </trkpt>
      <trkpt lat="45.06877" lon="5.38537">
        <ele>336.906</ele>
        <time>2019-06-29T16:21:56Z</time>
      </trkpt>
      <trkpt lat="45.06876" lon="5.38555">
        <ele>338.305</ele>
        <time>2019-06-29T16:22:12Z</time>
      </trkpt>
      <trkpt lat="45.06876" lon="5.38556">
        <ele>338.162</ele>
        <time>2019-06-29T16:22:13Z</time>
      </trkpt>
      <trkpt lat="45.06876" lon="5.3856">
        <ele>338.156</ele>
        <time>2019-06-29T16:22:17Z</time>
      </trkpt>
      <trkpt lat="45.06873" lon="5.38574">
        <ele>336.031</ele>
        <time>2019-06-29T16:22:29Z</time>
      </trkpt>
      <trkpt lat="45.06872" lon="5.38582">
        <ele>335.304</ele>
        <time>2019-06-29T16:22:37Z</time>
      </trkpt>
      <trkpt lat="45.06864" lon="5.38593">
        <ele>333.29</ele>
        <time>2019-06-29T16:22:48Z</time>
      </trkpt>
      <trkpt lat="45.06859" lon="5.386">
        <ele>331.248</ele>
        <time>2019-06-29T16:22:57Z</time>
      </trkpt>
      <trkpt lat="45.06849" lon="5.38613">
        <ele>329.536</ele>
        <time>2019-06-29T16:23:15Z</time>
      </trkpt>
      <trkpt lat="45.06845" lon="5.38628">
        <ele>329.031</ele>
        <time>2019-06-29T16:23:28Z</time>
      </trkpt>
      <trkpt lat="45.0684" lon="5.38651">
        <ele>327.276</ele>
        <time>2019-06-29T16:23:48Z</time>
      </trkpt>
      <trkpt lat="45.06834" lon="5.38669">
        <ele>325.803</ele>
        <time>2019-06-29T16:24:02Z</time>
      </trkpt>
      <trkpt lat="45.06833" lon="5.3867">
        <ele>325.827</ele>
        <time>2019-06-29T16:24:03Z</time>
      </trkpt>
      <trkpt lat="45.06829" lon="5.38679">
        <ele>325.686</ele>
        <time>2019-06-29T16:24:10Z</time>
      </trkpt>
      <trkpt lat="45.06827" lon="5.38685">
        <ele>324.346</ele>
        <time>2019-06-29T16:24:16Z</time>
      </trkpt>
      <trkpt lat="45.06825" lon="5.3869">
        <ele>323.627</ele>
        <time>2019-06-29T16:24:21Z</time>
      </trkpt>
      <trkpt lat="45.06825" lon="5.38692">
        <ele>323.074</ele>
        <time>2019-06-29T16:24:23Z</time>
      </trkpt>
      <trkpt lat="45.06818" lon="5.38714">
        <ele>321.055</ele>
        <time>2019-06-29T16:24:40Z</time>
      </trkpt>
      <trkpt lat="45.06813" lon="5.38728">
        <ele>319.343</ele>
        <time>2019-06-29T16:24:50Z</time>
      </trkpt>
      <trkpt lat="45.06809" lon="5.38738">
        <ele>317.149</ele>
        <time>2019-06-29T16:24:58Z</time>
      </trkpt>
      <trkpt lat="45.06807" lon="5.38743">
        <ele>316.988</ele>
        <time>2019-06-29T16:25:02Z</time>
      </trkpt>
      <trkpt lat="45.06807" lon="5.38744">
        <ele>316.962</ele>
        <time>2019-06-29T16:25:03Z</time>
      </trkpt>
      <trkpt lat="45.06804" lon="5.3875">
        <ele>315.554</ele>
        <time>2019-06-29T16:25:08Z</time>
      </trkpt>
      <trkpt lat="45.06799" lon="5.38761">
        <ele>313.743</ele>
        <time>2019-06-29T16:25:16Z</time>
      </trkpt>
      <trkpt lat="45.06793" lon="5.38771">
        <ele>312.765</ele>
        <time>2019-06-29T16:25:30Z</time>
      </trkpt>
      <trkpt lat="45.06792" lon="5.38772">
        <ele>312.387</ele>
        <time>2019-06-29T16:25:32Z</time>
      </trkpt>
      <trkpt lat="45.06788" lon="5.38776">
        <ele>311.721</ele>
        <time>2019-06-29T16:25:37Z</time>
      </trkpt>
      <trkpt lat="45.06788" lon="5.38776">
        <ele>311.336</ele>
        <time>2019-06-29T16:25:38Z</time>
      </trkpt>
      <trkpt lat="45.06781" lon="5.38788">
        <ele>309.303</ele>
        <time>2019-06-29T16:25:49Z</time>
      </trkpt>
      <trkpt lat="45.06781" lon="5.38788">
        <ele>309.451</ele>
        <time>2019-06-29T16:25:50Z</time>
      </trkpt>
      <trkpt lat="45.06781" lon="5.38788">
        <ele>309.18</ele>
        <time>2019-06-29T16:25:53Z</time>
      </trkpt>
      <trkpt lat="45.06782" lon="5.38788">
        <ele>308.773</ele>
        <time>2019-06-29T16:25:54Z</time>
      </trkpt>
      <trkpt lat="45.06782" lon="5.38788">
        <ele>308.756</ele>
        <time>2019-06-29T16:25:56Z</time>
      </trkpt>
      <trkpt lat="45.06782" lon="5.38788">
        <ele>308.748</ele>
        <time>2019-06-29T16:25:57Z</time>
      </trkpt>
      <trkpt lat="45.06782" lon="5.38788">
        <ele>309.015</ele>
        <time>2019-06-29T16:26:32Z</time>
      </trkpt>
      <trkpt lat="45.06782" lon="5.38788">
        <ele>309.153</ele>
        <time>2019-06-29T16:26:33Z</time>
      </trkpt>
      <trkpt lat="45.06782" lon="5.38788">
        <ele>309.639</ele>
        <time>2019-06-29T16:26:36Z</time>
      </trkpt>
      <trkpt lat="45.06782" lon="5.38788">
        <ele>309.639</ele>
        <time>2019-06-29T16:26:36Z</time>
      </trkpt>
      <trkpt lat="45.06782" lon="5.38787">
        <ele>309.678</ele>
        <time>2019-06-29T16:26:37Z</time>
      </trkpt>
      <trkpt lat="45.06782" lon="5.38787">
        <ele>309.144</ele>
        <time>2019-06-29T16:26:40Z</time>
      </trkpt>
      <trkpt lat="45.06782" lon="5.38787">
        <ele>309.74</ele>
        <time>2019-06-29T16:26:58Z</time>
      </trkpt>
      <trkpt lat="45.06781" lon="5.38788">
        <ele>309.069</ele>
        <time>2019-06-29T16:26:59Z</time>
      </trkpt>
      <trkpt lat="45.06781" lon="5.38789">
        <ele>307.733</ele>
        <time>2019-06-29T16:27:01Z</time>
      </trkpt>
      <trkpt lat="45.0678" lon="5.38788">
        <ele>308.159</ele>
        <time>2019-06-29T16:27:02Z</time>
      </trkpt>
      <trkpt lat="45.0678" lon="5.38788">
        <ele>308.26</ele>
        <time>2019-06-29T16:27:03Z</time>
      </trkpt>
      <trkpt lat="45.0678" lon="5.38788">
        <ele>308.082</ele>
        <time>2019-06-29T16:27:49Z</time>
      </trkpt>
      <trkpt lat="45.06778" lon="5.3879">
        <ele>307.852</ele>
        <time>2019-06-29T16:27:50Z</time>
      </trkpt>
      <trkpt lat="45.06778" lon="5.38791">
        <ele>306.7</ele>
        <time>2019-06-29T16:27:51Z</time>
      </trkpt>
      <trkpt lat="45.06778" lon="5.38792">
        <ele>306.503</ele>
        <time>2019-06-29T16:27:52Z</time>
      </trkpt>
      <trkpt lat="45.06774" lon="5.38801">
        <ele>307.084</ele>
        <time>2019-06-29T16:27:59Z</time>
      </trkpt>
      <trkpt lat="45.06773" lon="5.38807">
        <ele>307.113</ele>
        <time>2019-06-29T16:28:01Z</time>
      </trkpt>
      <trkpt lat="45.06773" lon="5.38811">
        <ele>306.959</ele>
        <time>2019-06-29T16:28:03Z</time>
      </trkpt>
      <trkpt lat="45.06771" lon="5.38816">
        <ele>307.411</ele>
        <time>2019-06-29T16:28:08Z</time>
      </trkpt>
      <trkpt lat="45.06771" lon="5.3882">
        <ele>306.504</ele>
        <time>2019-06-29T16:28:12Z</time>
      </trkpt>
      <trkpt lat="45.06769" lon="5.38827">
        <ele>305.432</ele>
        <time>2019-06-29T16:28:20Z</time>
      </trkpt>
      <trkpt lat="45.06769" lon="5.38827">
        <ele>305.432</ele>
        <time>2019-06-29T16:28:20Z</time>
      </trkpt>
      <trkpt lat="45.06769" lon="5.38828">
        <ele>304.829</ele>
        <time>2019-06-29T16:28:21Z</time>
      </trkpt>
      <trkpt lat="45.06769" lon="5.38832">
        <ele>304.269</ele>
        <time>2019-06-29T16:28:25Z</time>
      </trkpt>
      <trkpt lat="45.06764" lon="5.38846">
        <ele>302.428</ele>
        <time>2019-06-29T16:28:34Z</time>
      </trkpt>
      <trkpt lat="45.06761" lon="5.38851">
        <ele>301.315</ele>
        <time>2019-06-29T16:28:38Z</time>
      </trkpt>
      <trkpt lat="45.06759" lon="5.38864">
        <ele>301.954</ele>
        <time>2019-06-29T16:28:47Z</time>
      </trkpt>
      <trkpt lat="45.06759" lon="5.38868">
        <ele>300.66</ele>
        <time>2019-06-29T16:28:52Z</time>
      </trkpt>
      <trkpt lat="45.06758" lon="5.38868">
        <ele>300.742</ele>
        <time>2019-06-29T16:28:53Z</time>
      </trkpt>
      <trkpt lat="45.06758" lon="5.38868">
        <ele>300.346</ele>
        <time>2019-06-29T16:28:54Z</time>
      </trkpt>
      <trkpt lat="45.06758" lon="5.38869">
        <ele>300.486</ele>
        <time>2019-06-29T16:28:55Z</time>
      </trkpt>
      <trkpt lat="45.06756" lon="5.38875">
        <ele>301.07</ele>
        <time>2019-06-29T16:29:01Z</time>
      </trkpt>
      <trkpt lat="45.06756" lon="5.38875">
        <ele>301.07</ele>
        <time>2019-06-29T16:29:01Z</time>
      </trkpt>
      <trkpt lat="45.06755" lon="5.38875">
        <ele>300.797</ele>
        <time>2019-06-29T16:29:02Z</time>
      </trkpt>
      <trkpt lat="45.06756" lon="5.38877">
        <ele>300.42</ele>
        <time>2019-06-29T16:29:05Z</time>
      </trkpt>
      <trkpt lat="45.06756" lon="5.38885">
        <ele>299.763</ele>
        <time>2019-06-29T16:29:12Z</time>
      </trkpt>
      <trkpt lat="45.06756" lon="5.38885">
        <ele>299.763</ele>
        <time>2019-06-29T16:29:12Z</time>
      </trkpt>
      <trkpt lat="45.06756" lon="5.38886">
        <ele>299.855</ele>
        <time>2019-06-29T16:29:13Z</time>
      </trkpt>
      <trkpt lat="45.06756" lon="5.38887">
        <ele>299.668</ele>
        <time>2019-06-29T16:29:14Z</time>
      </trkpt>
      <trkpt lat="45.06756" lon="5.38888">
        <ele>299.613</ele>
        <time>2019-06-29T16:29:15Z</time>
      </trkpt>
      <trkpt lat="45.06754" lon="5.38892">
        <ele>299.725</ele>
        <time>2019-06-29T16:29:19Z</time>
      </trkpt>
      <trkpt lat="45.06754" lon="5.38893">
        <ele>299.401</ele>
        <time>2019-06-29T16:29:20Z</time>
      </trkpt>
      <trkpt lat="45.06754" lon="5.38894">
        <ele>299.617</ele>
        <time>2019-06-29T16:29:22Z</time>
      </trkpt>
      <trkpt lat="45.06754" lon="5.38894">
        <ele>298.248</ele>
        <time>2019-06-29T16:29:30Z</time>
      </trkpt>
      <trkpt lat="45.06752" lon="5.38896">
        <ele>298.21</ele>
        <time>2019-06-29T16:29:31Z</time>
      </trkpt>
      <trkpt lat="45.06752" lon="5.38896">
        <ele>297.972</ele>
        <time>2019-06-29T16:29:32Z</time>
      </trkpt>
      <trkpt lat="45.0675" lon="5.38896">
        <ele>297.722</ele>
        <time>2019-06-29T16:29:34Z</time>
      </trkpt>
      <trkpt lat="45.0675" lon="5.38896">
        <ele>297.245</ele>
        <time>2019-06-29T16:29:35Z</time>
      </trkpt>
      <trkpt lat="45.0675" lon="5.38896">
        <ele>298.29</ele>
        <time>2019-06-29T16:30:32Z</time>
      </trkpt>
      <trkpt lat="45.06749" lon="5.38896">
        <ele>298.423</ele>
        <time>2019-06-29T16:30:33Z</time>
      </trkpt>
      <trkpt lat="45.06749" lon="5.38896">
        <ele>298.015</ele>
        <time>2019-06-29T16:30:34Z</time>
      </trkpt>
      <trkpt lat="45.06749" lon="5.38896">
        <ele>298.015</ele>
        <time>2019-06-29T16:30:34Z</time>
      </trkpt>
      <trkpt lat="45.06749" lon="5.38896">
        <ele>297.714</ele>
        <time>2019-06-29T16:30:35Z</time>
      </trkpt>
      <trkpt lat="45.06749" lon="5.38897">
        <ele>297.022</ele>
        <time>2019-06-29T16:30:36Z</time>
      </trkpt>
      <trkpt lat="45.0675" lon="5.389">
        <ele>297.012</ele>
        <time>2019-06-29T16:30:37Z</time>
      </trkpt>
      <trkpt lat="45.0675" lon="5.38902">
        <ele>296.804</ele>
        <time>2019-06-29T16:30:38Z</time>
      </trkpt>
      <trkpt lat="45.06751" lon="5.38903">
        <ele>296.868</ele>
        <time>2019-06-29T16:30:39Z</time>
      </trkpt>
      <trkpt lat="45.06751" lon="5.38903">
        <ele>296.588</ele>
        <time>2019-06-29T16:30:40Z</time>
      </trkpt>
      <trkpt lat="45.06751" lon="5.38903">
        <ele>295.235</ele>
        <time>2019-06-29T16:30:43Z</time>
      </trkpt>
      <trkpt lat="45.06752" lon="5.38902">
        <ele>294.798</ele>
        <time>2019-06-29T16:30:44Z</time>
      </trkpt>
      <trkpt lat="45.06752" lon="5.38902">
        <ele>295.116</ele>
        <time>2019-06-29T16:30:45Z</time>
      </trkpt>
      <trkpt lat="45.06752" lon="5.38902">
        <ele>294.83</ele>
        <time>2019-06-29T16:30:48Z</time>
      </trkpt>
      <trkpt lat="45.06751" lon="5.38897">
        <ele>294.418</ele>
        <time>2019-06-29T16:30:49Z</time>
      </trkpt>
      <trkpt lat="45.06751" lon="5.38896">
        <ele>294.808</ele>
        <time>2019-06-29T16:30:52Z</time>
      </trkpt>
      <trkpt lat="45.06751" lon="5.38896">
        <ele>294.808</ele>
        <time>2019-06-29T16:30:52Z</time>
      </trkpt>
      <trkpt lat="45.06751" lon="5.38895">
        <ele>294.776</ele>
        <time>2019-06-29T16:30:53Z</time>
      </trkpt>
      <trkpt lat="45.06751" lon="5.38894">
        <ele>293.66</ele>
        <time>2019-06-29T16:30:56Z</time>
      </trkpt>
      <trkpt lat="45.06751" lon="5.38894">
        <ele>294.692</ele>
        <time>2019-06-29T16:31:46Z</time>
      </trkpt>
      <trkpt lat="45.06751" lon="5.38893">
        <ele>294.373</ele>
        <time>2019-06-29T16:31:47Z</time>
      </trkpt>
      <trkpt lat="45.06751" lon="5.38893">
        <ele>294.373</ele>
        <time>2019-06-29T16:31:47Z</time>
      </trkpt>
      <trkpt lat="45.06751" lon="5.38893">
        <ele>294.339</ele>
        <time>2019-06-29T16:31:48Z</time>
      </trkpt>
      <trkpt lat="45.06751" lon="5.38893">
        <ele>294.31</ele>
        <time>2019-06-29T16:32:27Z</time>
      </trkpt>
      <trkpt lat="45.06751" lon="5.38893">
        <ele>293.769</ele>
        <time>2019-06-29T16:32:28Z</time>
      </trkpt>
      <trkpt lat="45.0675" lon="5.38895">
        <ele>292.112</ele>
        <time>2019-06-29T16:32:31Z</time>
      </trkpt>
      <trkpt lat="45.06751" lon="5.38897">
        <ele>290.856</ele>
        <time>2019-06-29T16:32:32Z</time>
      </trkpt>
      <trkpt lat="45.0675" lon="5.38918">
        <ele>288.908</ele>
        <time>2019-06-29T16:32:48Z</time>
      </trkpt>
      <trkpt lat="45.06748" lon="5.38925">
        <ele>288.126</ele>
        <time>2019-06-29T16:32:54Z</time>
      </trkpt>
      <trkpt lat="45.06746" lon="5.38928">
        <ele>288.025</ele>
        <time>2019-06-29T16:32:58Z</time>
      </trkpt>
      <trkpt lat="45.06736" lon="5.3893">
        <ele>286.225</ele>
        <time>2019-06-29T16:33:08Z</time>
      </trkpt>
      <trkpt lat="45.06731" lon="5.38931">
        <ele>285.916</ele>
        <time>2019-06-29T16:33:13Z</time>
      </trkpt>
      <trkpt lat="45.06731" lon="5.38931">
        <ele>285.916</ele>
        <time>2019-06-29T16:33:13Z</time>
      </trkpt>
      <trkpt lat="45.06731" lon="5.3893">
        <ele>285.391</ele>
        <time>2019-06-29T16:33:14Z</time>
      </trkpt>
      <trkpt lat="45.06715" lon="5.38934">
        <ele>283.576</ele>
        <time>2019-06-29T16:33:30Z</time>
      </trkpt>
      <trkpt lat="45.06712" lon="5.38936">
        <ele>283.155</ele>
        <time>2019-06-29T16:33:34Z</time>
      </trkpt>
      <trkpt lat="45.06707" lon="5.38938">
        <ele>282.901</ele>
        <time>2019-06-29T16:33:39Z</time>
      </trkpt>
      <trkpt lat="45.06704" lon="5.3894">
        <ele>282.67</ele>
        <time>2019-06-29T16:33:42Z</time>
      </trkpt>
      <trkpt lat="45.067" lon="5.38942">
        <ele>282.739</ele>
        <time>2019-06-29T16:33:45Z</time>
      </trkpt>
      <trkpt lat="45.06679" lon="5.38968">
        <ele>282.705</ele>
        <time>2019-06-29T16:34:12Z</time>
      </trkpt>
      <trkpt lat="45.06664" lon="5.39016">
        <ele>281.927</ele>
        <time>2019-06-29T16:34:53Z</time>
      </trkpt>
      <trkpt lat="45.06664" lon="5.39021">
        <ele>282.28</ele>
        <time>2019-06-29T16:34:56Z</time>
      </trkpt>
      <trkpt lat="45.06674" lon="5.39053">
        <ele>283.212</ele>
        <time>2019-06-29T16:35:22Z</time>
      </trkpt>
      <trkpt lat="45.06674" lon="5.39054">
        <ele>283.22</ele>
        <time>2019-06-29T16:35:23Z</time>
      </trkpt>
      <trkpt lat="45.06673" lon="5.39055">
        <ele>283.17</ele>
        <time>2019-06-29T16:35:24Z</time>
      </trkpt>
      <trkpt lat="45.06668" lon="5.39061">
        <ele>281.749</ele>
        <time>2019-06-29T16:35:31Z</time>
      </trkpt>
      <trkpt lat="45.06668" lon="5.39061">
        <ele>281.084</ele>
        <time>2019-06-29T16:35:32Z</time>
      </trkpt>
      <trkpt lat="45.06668" lon="5.39061">
        <ele>281.084</ele>
        <time>2019-06-29T16:35:32Z</time>
      </trkpt>
      <trkpt lat="45.06668" lon="5.3906">
        <ele>280.738</ele>
        <time>2019-06-29T16:35:33Z</time>
      </trkpt>
      <trkpt lat="45.06668" lon="5.3906">
        <ele>280.738</ele>
        <time>2019-06-29T16:35:33Z</time>
      </trkpt>
      <trkpt lat="45.06668" lon="5.3906">
        <ele>280.724</ele>
        <time>2019-06-29T16:35:34Z</time>
      </trkpt>
      <trkpt lat="45.06668" lon="5.3906">
        <ele>280.397</ele>
        <time>2019-06-29T16:35:48Z</time>
      </trkpt>
      <trkpt lat="45.06668" lon="5.39057">
        <ele>280.353</ele>
        <time>2019-06-29T16:35:49Z</time>
      </trkpt>
      <trkpt lat="45.06669" lon="5.39059">
        <ele>279.233</ele>
        <time>2019-06-29T16:35:54Z</time>
      </trkpt>
      <trkpt lat="45.06669" lon="5.39059">
        <ele>279.281</ele>
        <time>2019-06-29T16:36:15Z</time>
      </trkpt>
      <trkpt lat="45.06669" lon="5.39059">
        <ele>279.024</ele>
        <time>2019-06-29T16:36:16Z</time>
      </trkpt>
      <trkpt lat="45.06668" lon="5.39058">
        <ele>279.037</ele>
        <time>2019-06-29T16:36:19Z</time>
      </trkpt>
      <trkpt lat="45.06666" lon="5.39053">
        <ele>279.636</ele>
        <time>2019-06-29T16:36:22Z</time>
      </trkpt>
      <trkpt lat="45.06664" lon="5.39047">
        <ele>279.043</ele>
        <time>2019-06-29T16:36:26Z</time>
      </trkpt>
      <trkpt lat="45.06664" lon="5.39047">
        <ele>279.747</ele>
        <time>2019-06-29T16:36:28Z</time>
      </trkpt>
      <trkpt lat="45.06664" lon="5.39047">
        <ele>279.747</ele>
        <time>2019-06-29T16:36:28Z</time>
      </trkpt>
      <trkpt lat="45.06664" lon="5.39047">
        <ele>279.385</ele>
        <time>2019-06-29T16:36:29Z</time>
      </trkpt>
      <trkpt lat="45.06664" lon="5.39047">
        <ele>279.944</ele>
        <time>2019-06-29T16:36:34Z</time>
      </trkpt>
      <trkpt lat="45.06664" lon="5.39046">
        <ele>279.443</ele>
        <time>2019-06-29T16:36:35Z</time>
      </trkpt>
      <trkpt lat="45.06663" lon="5.39045">
        <ele>279.875</ele>
        <time>2019-06-29T16:36:37Z</time>
      </trkpt>
      <trkpt lat="45.06663" lon="5.39045">
        <ele>279.875</ele>
        <time>2019-06-29T16:36:37Z</time>
      </trkpt>
      <trkpt lat="45.06663" lon="5.39045">
        <ele>279.146</ele>
        <time>2019-06-29T16:36:38Z</time>
      </trkpt>
      <trkpt lat="45.06663" lon="5.39045">
        <ele>279.207</ele>
        <time>2019-06-29T16:36:39Z</time>
      </trkpt>
      <trkpt lat="45.06663" lon="5.39045">
        <ele>279.266</ele>
        <time>2019-06-29T16:36:55Z</time>
      </trkpt>
      <trkpt lat="45.06662" lon="5.39045">
        <ele>279.423</ele>
        <time>2019-06-29T16:36:56Z</time>
      </trkpt>
      <trkpt lat="45.06661" lon="5.39045">
        <ele>279.592</ele>
        <time>2019-06-29T16:36:59Z</time>
      </trkpt>
      <trkpt lat="45.06661" lon="5.39045">
        <ele>278.998</ele>
        <time>2019-06-29T16:37:00Z</time>
      </trkpt>
      <trkpt lat="45.06661" lon="5.39045">
        <ele>279.198</ele>
        <time>2019-06-29T16:37:21Z</time>
      </trkpt>
      <trkpt lat="45.06664" lon="5.39046">
        <ele>278.886</ele>
        <time>2019-06-29T16:37:22Z</time>
      </trkpt>
      <trkpt lat="45.06666" lon="5.39048">
        <ele>278.664</ele>
        <time>2019-06-29T16:37:25Z</time>
      </trkpt>
      <trkpt lat="45.06667" lon="5.39049">
        <ele>279.231</ele>
        <time>2019-06-29T16:37:26Z</time>
      </trkpt>
      <trkpt lat="45.06667" lon="5.39049">
        <ele>278.805</ele>
        <time>2019-06-29T16:37:27Z</time>
      </trkpt>
      <trkpt lat="45.06667" lon="5.39049">
        <ele>278.805</ele>
        <time>2019-06-29T16:37:27Z</time>
      </trkpt>
      <trkpt lat="45.06667" lon="5.39048">
        <ele>277.921</ele>
        <time>2019-06-29T16:37:28Z</time>
      </trkpt>
      <trkpt lat="45.06667" lon="5.39045">
        <ele>277.63</ele>
        <time>2019-06-29T16:37:32Z</time>
      </trkpt>
      <trkpt lat="45.06667" lon="5.39045">
        <ele>277.631</ele>
        <time>2019-06-29T16:37:42Z</time>
      </trkpt>
      <trkpt lat="45.06667" lon="5.39047">
        <ele>277.256</ele>
        <time>2019-06-29T16:37:43Z</time>
      </trkpt>
      <trkpt lat="45.06668" lon="5.39051">
        <ele>277.902</ele>
        <time>2019-06-29T16:37:46Z</time>
      </trkpt>
      <trkpt lat="45.06669" lon="5.39057">
        <ele>277.506</ele>
        <time>2019-06-29T16:37:49Z</time>
      </trkpt>
      <trkpt lat="45.06668" lon="5.39067">
        <ele>280.632</ele>
        <time>2019-06-29T16:37:54Z</time>
      </trkpt>
      <trkpt lat="45.06669" lon="5.39074">
        <ele>282.106</ele>
        <time>2019-06-29T16:37:57Z</time>
      </trkpt>
      <trkpt lat="45.06668" lon="5.39078">
        <ele>281.956</ele>
        <time>2019-06-29T16:38:00Z</time>
      </trkpt>
      <trkpt lat="45.06668" lon="5.39078">
        <ele>281.805</ele>
        <time>2019-06-29T16:38:01Z</time>
      </trkpt>
      <trkpt lat="45.06668" lon="5.39078">
        <ele>281.805</ele>
        <time>2019-06-29T16:38:01Z</time>
      </trkpt>
      <trkpt lat="45.06668" lon="5.39079">
        <ele>281.817</ele>
        <time>2019-06-29T16:38:02Z</time>
      </trkpt>
      <trkpt lat="45.06669" lon="5.39079">
        <ele>281.648</ele>
        <time>2019-06-29T16:38:03Z</time>
      </trkpt>
      <trkpt lat="45.06669" lon="5.3908">
        <ele>281.084</ele>
        <time>2019-06-29T16:38:07Z</time>
      </trkpt>
      <trkpt lat="45.06668" lon="5.39081">
        <ele>280.342</ele>
        <time>2019-06-29T16:38:08Z</time>
      </trkpt>
      <trkpt lat="45.06668" lon="5.39083">
        <ele>279.444</ele>
        <time>2019-06-29T16:38:09Z</time>
      </trkpt>
      <trkpt lat="45.06668" lon="5.39089">
        <ele>279.641</ele>
        <time>2019-06-29T16:38:13Z</time>
      </trkpt>
      <trkpt lat="45.06669" lon="5.39092">
        <ele>279.835</ele>
        <time>2019-06-29T16:38:16Z</time>
      </trkpt>
      <trkpt lat="45.06671" lon="5.39095">
        <ele>279.246</ele>
        <time>2019-06-29T16:38:20Z</time>
      </trkpt>
      <trkpt lat="45.06671" lon="5.39095">
        <ele>279.246</ele>
        <time>2019-06-29T16:38:20Z</time>
      </trkpt>
      <trkpt lat="45.06671" lon="5.39095">
        <ele>279.491</ele>
        <time>2019-06-29T16:38:21Z</time>
      </trkpt>
      <trkpt lat="45.0667" lon="5.39095">
        <ele>279.739</ele>
        <time>2019-06-29T16:38:22Z</time>
      </trkpt>
      <trkpt lat="45.06671" lon="5.39095">
        <ele>279.515</ele>
        <time>2019-06-29T16:38:23Z</time>
      </trkpt>
      <trkpt lat="45.06671" lon="5.39095">
        <ele>280.767</ele>
        <time>2019-06-29T16:38:24Z</time>
      </trkpt>
      <trkpt lat="45.06671" lon="5.39095">
        <ele>280.767</ele>
        <time>2019-06-29T16:38:24Z</time>
      </trkpt>
      <trkpt lat="45.06671" lon="5.39095">
        <ele>280.884</ele>
        <time>2019-06-29T16:38:25Z</time>
      </trkpt>
      <trkpt lat="45.06671" lon="5.39095">
        <ele>280.884</ele>
        <time>2019-06-29T16:38:25Z</time>
      </trkpt>
      <trkpt lat="45.06671" lon="5.39095">
        <ele>280.892</ele>
        <time>2019-06-29T16:38:26Z</time>
      </trkpt>
      <trkpt lat="45.06671" lon="5.39095">
        <ele>280.933</ele>
        <time>2019-06-29T16:38:29Z</time>
      </trkpt>
      <trkpt lat="45.06672" lon="5.39095">
        <ele>280.363</ele>
        <time>2019-06-29T16:38:30Z</time>
      </trkpt>
      <trkpt lat="45.06671" lon="5.39096">
        <ele>279.885</ele>
        <time>2019-06-29T16:38:31Z</time>
      </trkpt>
      <trkpt lat="45.06668" lon="5.391">
        <ele>279.668</ele>
        <time>2019-06-29T16:38:35Z</time>
      </trkpt>
      <trkpt lat="45.06663" lon="5.39104">
        <ele>279.638</ele>
        <time>2019-06-29T16:38:39Z</time>
      </trkpt>
      <trkpt lat="45.06661" lon="5.39112">
        <ele>281.422</ele>
        <time>2019-06-29T16:38:43Z</time>
      </trkpt>
      <trkpt lat="45.06655" lon="5.39118">
        <ele>281.196</ele>
        <time>2019-06-29T16:38:47Z</time>
      </trkpt>
      <trkpt lat="45.06654" lon="5.39123">
        <ele>281.753</ele>
        <time>2019-06-29T16:38:52Z</time>
      </trkpt>
      <trkpt lat="45.06652" lon="5.39127">
        <ele>280.709</ele>
        <time>2019-06-29T16:38:56Z</time>
      </trkpt>
      <trkpt lat="45.0665" lon="5.39129">
        <ele>280.556</ele>
        <time>2019-06-29T16:38:59Z</time>
      </trkpt>
      <trkpt lat="45.0665" lon="5.39129">
        <ele>280.121</ele>
        <time>2019-06-29T16:39:00Z</time>
      </trkpt>
      <trkpt lat="45.0665" lon="5.39128">
        <ele>280.52</ele>
        <time>2019-06-29T16:39:01Z</time>
      </trkpt>
      <trkpt lat="45.06649" lon="5.39127">
        <ele>280.45</ele>
        <time>2019-06-29T16:39:02Z</time>
      </trkpt>
      <trkpt lat="45.06646" lon="5.39128">
        <ele>280.516</ele>
        <time>2019-06-29T16:39:05Z</time>
      </trkpt>
      <trkpt lat="45.06641" lon="5.39127">
        <ele>279.467</ele>
        <time>2019-06-29T16:39:07Z</time>
      </trkpt>
      <trkpt lat="45.06633" lon="5.39125">
        <ele>278.264</ele>
        <time>2019-06-29T16:39:11Z</time>
      </trkpt>
      <trkpt lat="45.06631" lon="5.39126">
        <ele>278.344</ele>
        <time>2019-06-29T16:39:14Z</time>
      </trkpt>
      <trkpt lat="45.06632" lon="5.39128">
        <ele>279.327</ele>
        <time>2019-06-29T16:39:16Z</time>
      </trkpt>
      <trkpt lat="45.06631" lon="5.39133">
        <ele>279.452</ele>
        <time>2019-06-29T16:39:20Z</time>
      </trkpt>
      <trkpt lat="45.06632" lon="5.39137">
        <ele>279.076</ele>
        <time>2019-06-29T16:39:22Z</time>
      </trkpt>
      <trkpt lat="45.06634" lon="5.39142">
        <ele>279.038</ele>
        <time>2019-06-29T16:39:24Z</time>
      </trkpt>
      <trkpt lat="45.06635" lon="5.39143">
        <ele>278.989</ele>
        <time>2019-06-29T16:39:26Z</time>
      </trkpt>
      <trkpt lat="45.06634" lon="5.39143">
        <ele>279.017</ele>
        <time>2019-06-29T16:39:29Z</time>
      </trkpt>
      <trkpt lat="45.06634" lon="5.39143">
        <ele>279.374</ele>
        <time>2019-06-29T16:39:37Z</time>
      </trkpt>
      <trkpt lat="45.06635" lon="5.39141">
        <ele>279.386</ele>
        <time>2019-06-29T16:39:38Z</time>
      </trkpt>
      <trkpt lat="45.06635" lon="5.39141">
        <ele>279.761</ele>
        <time>2019-06-29T16:39:39Z</time>
      </trkpt>
      <trkpt lat="45.06635" lon="5.39141">
        <ele>279.791</ele>
        <time>2019-06-29T16:39:58Z</time>
      </trkpt>
      <trkpt lat="45.06637" lon="5.39143">
        <ele>279.898</ele>
        <time>2019-06-29T16:39:59Z</time>
      </trkpt>
      <trkpt lat="45.06635" lon="5.39143">
        <ele>279.423</ele>
        <time>2019-06-29T16:40:02Z</time>
      </trkpt>
      <trkpt lat="45.06635" lon="5.39143">
        <ele>279.073</ele>
        <time>2019-06-29T16:40:03Z</time>
      </trkpt>
      <trkpt lat="45.06635" lon="5.39143">
        <ele>279.289</ele>
        <time>2019-06-29T16:40:10Z</time>
      </trkpt>
      <trkpt lat="45.06634" lon="5.39141">
        <ele>279.453</ele>
        <time>2019-06-29T16:40:11Z</time>
      </trkpt>
      <trkpt lat="45.06634" lon="5.39141">
        <ele>279.503</ele>
        <time>2019-06-29T16:40:12Z</time>
      </trkpt>
      <trkpt lat="45.06634" lon="5.39141">
        <ele>279.503</ele>
        <time>2019-06-29T16:40:12Z</time>
      </trkpt>
      <trkpt lat="45.06634" lon="5.39142">
        <ele>279.683</ele>
        <time>2019-06-29T16:40:13Z</time>
      </trkpt>
      <trkpt lat="45.06633" lon="5.39143">
        <ele>279.125</ele>
        <time>2019-06-29T16:40:15Z</time>
      </trkpt>
      <trkpt lat="45.06633" lon="5.39146">
        <ele>279.014</ele>
        <time>2019-06-29T16:40:18Z</time>
      </trkpt>
      <trkpt lat="45.06633" lon="5.39147">
        <ele>278.986</ele>
        <time>2019-06-29T16:40:19Z</time>
      </trkpt>
      <trkpt lat="45.06633" lon="5.39147">
        <ele>278.986</ele>
        <time>2019-06-29T16:40:19Z</time>
      </trkpt>
      <trkpt lat="45.06634" lon="5.39148">
        <ele>278.657</ele>
        <time>2019-06-29T16:40:20Z</time>
      </trkpt>
      <trkpt lat="45.06635" lon="5.39152">
        <ele>279.192</ele>
        <time>2019-06-29T16:40:23Z</time>
      </trkpt>
      <trkpt lat="45.06637" lon="5.39152">
        <ele>279.089</ele>
        <time>2019-06-29T16:40:27Z</time>
      </trkpt>
      <trkpt lat="45.06637" lon="5.39152">
        <ele>282.118</ele>
        <time>2019-06-29T16:40:39Z</time>
      </trkpt>
      <trkpt lat="45.06638" lon="5.39152">
        <ele>282.448</ele>
        <time>2019-06-29T16:40:40Z</time>
      </trkpt>
      <trkpt lat="45.06637" lon="5.39155">
        <ele>282.145</ele>
        <time>2019-06-29T16:40:42Z</time>
      </trkpt>
      <trkpt lat="45.06637" lon="5.39156">
        <ele>280.988</ele>
        <time>2019-06-29T16:40:43Z</time>
      </trkpt>
      <trkpt lat="45.06637" lon="5.39157">
        <ele>280.329</ele>
        <time>2019-06-29T16:40:44Z</time>
      </trkpt>
      <trkpt lat="45.06636" lon="5.3916">
        <ele>279.804</ele>
        <time>2019-06-29T16:40:47Z</time>
      </trkpt>
      <trkpt lat="45.06636" lon="5.3916">
        <ele>280.719</ele>
        <time>2019-06-29T16:40:48Z</time>
      </trkpt>
      <trkpt lat="45.06636" lon="5.3916">
        <ele>280.719</ele>
        <time>2019-06-29T16:40:48Z</time>
      </trkpt>
      <trkpt lat="45.06636" lon="5.3916">
        <ele>281.365</ele>
        <time>2019-06-29T16:40:49Z</time>
      </trkpt>
      <trkpt lat="45.06636" lon="5.39161">
        <ele>280.855</ele>
        <time>2019-06-29T16:40:50Z</time>
      </trkpt>
      <trkpt lat="45.06636" lon="5.39161">
        <ele>280.283</ele>
        <time>2019-06-29T16:40:51Z</time>
      </trkpt>
      <trkpt lat="45.06635" lon="5.39162">
        <ele>280.756</ele>
        <time>2019-06-29T16:40:54Z</time>
      </trkpt>
      <trkpt lat="45.06635" lon="5.39163">
        <ele>280.975</ele>
        <time>2019-06-29T16:40:56Z</time>
      </trkpt>
      <trkpt lat="45.06634" lon="5.39164">
        <ele>281.414</ele>
        <time>2019-06-29T16:40:57Z</time>
      </trkpt>
      <trkpt lat="45.06634" lon="5.39168">
        <ele>281.167</ele>
        <time>2019-06-29T16:41:02Z</time>
      </trkpt>
      <trkpt lat="45.06634" lon="5.39169">
        <ele>280.82</ele>
        <time>2019-06-29T16:41:03Z</time>
      </trkpt>
      <trkpt lat="45.06633" lon="5.3917">
        <ele>280.634</ele>
        <time>2019-06-29T16:41:04Z</time>
      </trkpt>
      <trkpt lat="45.06632" lon="5.39173">
        <ele>281.232</ele>
        <time>2019-06-29T16:41:07Z</time>
      </trkpt>
      <trkpt lat="45.06633" lon="5.39177">
        <ele>280.672</ele>
        <time>2019-06-29T16:41:10Z</time>
      </trkpt>
      <trkpt lat="45.06632" lon="5.39178">
        <ele>279.936</ele>
        <time>2019-06-29T16:41:13Z</time>
      </trkpt>
      <trkpt lat="45.06632" lon="5.39178">
        <ele>279.593</ele>
        <time>2019-06-29T16:41:16Z</time>
      </trkpt>
      <trkpt lat="45.06631" lon="5.39178">
        <ele>280.129</ele>
        <time>2019-06-29T16:41:17Z</time>
      </trkpt>
      <trkpt lat="45.06629" lon="5.39179">
        <ele>280.165</ele>
        <time>2019-06-29T16:41:19Z</time>
      </trkpt>
      <trkpt lat="45.06628" lon="5.3918">
        <ele>278.862</ele>
        <time>2019-06-29T16:41:21Z</time>
      </trkpt>
      <trkpt lat="45.06627" lon="5.39179">
        <ele>278.195</ele>
        <time>2019-06-29T16:41:23Z</time>
      </trkpt>
      <trkpt lat="45.06627" lon="5.39179">
        <ele>277.926</ele>
        <time>2019-06-29T16:41:24Z</time>
      </trkpt>
      <trkpt lat="45.06627" lon="5.39179">
        <ele>277.926</ele>
        <time>2019-06-29T16:41:24Z</time>
      </trkpt>
      <trkpt lat="45.06626" lon="5.39177">
        <ele>277.466</ele>
        <time>2019-06-29T16:41:25Z</time>
      </trkpt>
      <trkpt lat="45.06624" lon="5.39176">
        <ele>277.94</ele>
        <time>2019-06-29T16:41:27Z</time>
      </trkpt>
      <trkpt lat="45.0662" lon="5.39172">
        <ele>276.964</ele>
        <time>2019-06-29T16:41:32Z</time>
      </trkpt>
      <trkpt lat="45.0662" lon="5.39172">
        <ele>276.701</ele>
        <time>2019-06-29T16:41:33Z</time>
      </trkpt>
      <trkpt lat="45.0662" lon="5.39172">
        <ele>277.001</ele>
        <time>2019-06-29T16:41:35Z</time>
      </trkpt>
      <trkpt lat="45.06619" lon="5.39173">
        <ele>277.201</ele>
        <time>2019-06-29T16:41:36Z</time>
      </trkpt>
      <trkpt lat="45.06619" lon="5.39173">
        <ele>277.526</ele>
        <time>2019-06-29T16:41:37Z</time>
      </trkpt>
      <trkpt lat="45.06619" lon="5.39173">
        <ele>277.526</ele>
        <time>2019-06-29T16:41:37Z</time>
      </trkpt>
      <trkpt lat="45.06619" lon="5.39173">
        <ele>277.643</ele>
        <time>2019-06-29T16:41:38Z</time>
      </trkpt>
      <trkpt lat="45.06619" lon="5.39173">
        <ele>277.643</ele>
        <time>2019-06-29T16:41:38Z</time>
      </trkpt>
      <trkpt lat="45.0662" lon="5.39173">
        <ele>277.204</ele>
        <time>2019-06-29T16:41:39Z</time>
      </trkpt>
      <trkpt lat="45.06621" lon="5.39171">
        <ele>278.052</ele>
        <time>2019-06-29T16:41:42Z</time>
      </trkpt>
      <trkpt lat="45.06621" lon="5.39171">
        <ele>279.459</ele>
        <time>2019-06-29T16:41:48Z</time>
      </trkpt>
      <trkpt lat="45.06622" lon="5.3917">
        <ele>279.176</ele>
        <time>2019-06-29T16:41:49Z</time>
      </trkpt>
      <trkpt lat="45.06622" lon="5.3917">
        <ele>278.502</ele>
        <time>2019-06-29T16:41:50Z</time>
      </trkpt>
      <trkpt lat="45.06622" lon="5.3917">
        <ele>277.639</ele>
        <time>2019-06-29T16:41:51Z</time>
      </trkpt>
      <trkpt lat="45.06622" lon="5.3917">
        <ele>277.515</ele>
        <time>2019-06-29T16:41:52Z</time>
      </trkpt>
      <trkpt lat="45.06623" lon="5.3917">
        <ele>277.302</ele>
        <time>2019-06-29T16:41:53Z</time>
      </trkpt>
      <trkpt lat="45.06623" lon="5.3917">
        <ele>276.247</ele>
        <time>2019-06-29T16:41:55Z</time>
      </trkpt>
      <trkpt lat="45.06623" lon="5.3917">
        <ele>275.871</ele>
        <time>2019-06-29T16:41:56Z</time>
      </trkpt>
      <trkpt lat="45.06624" lon="5.39171">
        <ele>276.251</ele>
        <time>2019-06-29T16:41:57Z</time>
      </trkpt>
      <trkpt lat="45.06624" lon="5.39171">
        <ele>276.251</ele>
        <time>2019-06-29T16:41:57Z</time>
      </trkpt>
      <trkpt lat="45.06624" lon="5.39171">
        <ele>276.525</ele>
        <time>2019-06-29T16:41:58Z</time>
      </trkpt>
      <trkpt lat="45.06624" lon="5.39167">
        <ele>275.298</ele>
        <time>2019-06-29T16:42:05Z</time>
      </trkpt>
      <trkpt lat="45.06623" lon="5.39164">
        <ele>277.092</ele>
        <time>2019-06-29T16:42:08Z</time>
      </trkpt>
      <trkpt lat="45.06622" lon="5.39164">
        <ele>275.274</ele>
        <time>2019-06-29T16:42:13Z</time>
      </trkpt>
      <trkpt lat="45.06621" lon="5.39163">
        <ele>274.165</ele>
        <time>2019-06-29T16:42:17Z</time>
      </trkpt>
      <trkpt lat="45.06621" lon="5.39162">
        <ele>274.741</ele>
        <time>2019-06-29T16:42:19Z</time>
      </trkpt>
      <trkpt lat="45.0662" lon="5.39158">
        <ele>276.345</ele>
        <time>2019-06-29T16:42:21Z</time>
      </trkpt>
      <trkpt lat="45.06622" lon="5.39158">
        <ele>272.818</ele>
        <time>2019-06-29T16:42:23Z</time>
      </trkpt>
      <trkpt lat="45.06622" lon="5.39158">
        <ele>273.105</ele>
        <time>2019-06-29T16:42:24Z</time>
      </trkpt>
      <trkpt lat="45.06623" lon="5.39159">
        <ele>273.451</ele>
        <time>2019-06-29T16:42:25Z</time>
      </trkpt>
      <trkpt lat="45.06623" lon="5.3916">
        <ele>273.348</ele>
        <time>2019-06-29T16:42:26Z</time>
      </trkpt>
      <trkpt lat="45.06623" lon="5.3916">
        <ele>272.936</ele>
        <time>2019-06-29T16:42:27Z</time>
      </trkpt>
      <trkpt lat="45.06623" lon="5.3916">
        <ele>272.936</ele>
        <time>2019-06-29T16:42:27Z</time>
      </trkpt>
      <trkpt lat="45.06624" lon="5.39163">
        <ele>273.237</ele>
        <time>2019-06-29T16:42:28Z</time>
      </trkpt>
      <trkpt lat="45.06623" lon="5.39164">
        <ele>273.831</ele>
        <time>2019-06-29T16:42:29Z</time>
      </trkpt>
      <trkpt lat="45.06622" lon="5.39168">
        <ele>274.219</ele>
        <time>2019-06-29T16:42:32Z</time>
      </trkpt>
      <trkpt lat="45.06622" lon="5.3917">
        <ele>274.651</ele>
        <time>2019-06-29T16:42:33Z</time>
      </trkpt>
      <trkpt lat="45.06621" lon="5.39171">
        <ele>275.173</ele>
        <time>2019-06-29T16:42:35Z</time>
      </trkpt>
      <trkpt lat="45.06621" lon="5.39174">
        <ele>274.188</ele>
        <time>2019-06-29T16:42:38Z</time>
      </trkpt>
      <trkpt lat="45.0662" lon="5.39177">
        <ele>274.734</ele>
        <time>2019-06-29T16:42:41Z</time>
      </trkpt>
      <trkpt lat="45.0662" lon="5.39177">
        <ele>274.734</ele>
        <time>2019-06-29T16:42:41Z</time>
      </trkpt>
      <trkpt lat="45.0662" lon="5.39177">
        <ele>274.326</ele>
        <time>2019-06-29T16:42:42Z</time>
      </trkpt>
      <trkpt lat="45.0662" lon="5.39177">
        <ele>274.326</ele>
        <time>2019-06-29T16:42:42Z</time>
      </trkpt>
      <trkpt lat="45.0662" lon="5.39177">
        <ele>274.311</ele>
        <time>2019-06-29T16:42:43Z</time>
      </trkpt>
      <trkpt lat="45.0662" lon="5.39177">
        <ele>274.724</ele>
        <time>2019-06-29T16:42:44Z</time>
      </trkpt>
      <trkpt lat="45.0662" lon="5.39177">
        <ele>274.724</ele>
        <time>2019-06-29T16:42:44Z</time>
      </trkpt>
      <trkpt lat="45.0662" lon="5.39177">
        <ele>274.342</ele>
        <time>2019-06-29T16:42:45Z</time>
      </trkpt>
      <trkpt lat="45.0662" lon="5.39177">
        <ele>274.342</ele>
        <time>2019-06-29T16:42:45Z</time>
      </trkpt>
      <trkpt lat="45.0662" lon="5.39177">
        <ele>274.488</ele>
        <time>2019-06-29T16:42:46Z</time>
      </trkpt>
      <trkpt lat="45.0662" lon="5.39177">
        <ele>274.488</ele>
        <time>2019-06-29T16:42:46Z</time>
      </trkpt>
      <trkpt lat="45.0662" lon="5.39177">
        <ele>275.59</ele>
        <time>2019-06-29T16:42:47Z</time>
      </trkpt>
      <trkpt lat="45.06621" lon="5.39178">
        <ele>275.697</ele>
        <time>2019-06-29T16:42:51Z</time>
      </trkpt>
      <trkpt lat="45.06622" lon="5.3918">
        <ele>276.219</ele>
        <time>2019-06-29T16:42:53Z</time>
      </trkpt>
      <trkpt lat="45.06622" lon="5.3918">
        <ele>276.219</ele>
        <time>2019-06-29T16:42:53Z</time>
      </trkpt>
      <trkpt lat="45.06622" lon="5.3918">
        <ele>276.119</ele>
        <time>2019-06-29T16:42:54Z</time>
      </trkpt>
      <trkpt lat="45.06622" lon="5.3918">
        <ele>276.119</ele>
        <time>2019-06-29T16:42:54Z</time>
      </trkpt>
      <trkpt lat="45.06622" lon="5.39179">
        <ele>275.911</ele>
        <time>2019-06-29T16:42:55Z</time>
      </trkpt>
      <trkpt lat="45.06622" lon="5.39179">
        <ele>275.609</ele>
        <time>2019-06-29T16:42:56Z</time>
      </trkpt>
      <trkpt lat="45.06622" lon="5.39179">
        <ele>274.802</ele>
        <time>2019-06-29T16:42:59Z</time>
      </trkpt>
      <trkpt lat="45.06622" lon="5.3918">
        <ele>274.243</ele>
        <time>2019-06-29T16:43:00Z</time>
      </trkpt>
      <trkpt lat="45.06622" lon="5.3918">
        <ele>273.599</ele>
        <time>2019-06-29T16:43:02Z</time>
      </trkpt>
      <trkpt lat="45.06622" lon="5.3918">
        <ele>272.853</ele>
        <time>2019-06-29T16:43:03Z</time>
      </trkpt>
      <trkpt lat="45.06622" lon="5.39181">
        <ele>272.592</ele>
        <time>2019-06-29T16:43:04Z</time>
      </trkpt>
      <trkpt lat="45.06618" lon="5.39182">
        <ele>272.92</ele>
        <time>2019-06-29T16:43:07Z</time>
      </trkpt>
      <trkpt lat="45.06618" lon="5.39182">
        <ele>273.206</ele>
        <time>2019-06-29T16:43:08Z</time>
      </trkpt>
      <trkpt lat="45.06618" lon="5.39182">
        <ele>274.213</ele>
        <time>2019-06-29T16:44:20Z</time>
      </trkpt>
      <trkpt lat="45.0662" lon="5.39181">
        <ele>274.116</ele>
        <time>2019-06-29T16:44:21Z</time>
      </trkpt>
      <trkpt lat="45.06619" lon="5.3918">
        <ele>273.811</ele>
        <time>2019-06-29T16:44:23Z</time>
      </trkpt>
      <trkpt lat="45.06619" lon="5.39179">
        <ele>273.637</ele>
        <time>2019-06-29T16:44:26Z</time>
      </trkpt>
      <trkpt lat="45.06619" lon="5.39179">
        <ele>274.709</ele>
        <time>2019-06-29T16:44:59Z</time>
      </trkpt>
      <trkpt lat="45.06617" lon="5.39179">
        <ele>274.612</ele>
        <time>2019-06-29T16:45:00Z</time>
      </trkpt>
      <trkpt lat="45.0662" lon="5.39183">
        <ele>274.532</ele>
        <time>2019-06-29T16:45:04Z</time>
      </trkpt>
      <trkpt lat="45.0662" lon="5.39186">
        <ele>272.651</ele>
        <time>2019-06-29T16:45:07Z</time>
      </trkpt>
      <trkpt lat="45.0662" lon="5.39187">
        <ele>272.413</ele>
        <time>2019-06-29T16:45:09Z</time>
      </trkpt>
      <trkpt lat="45.0662" lon="5.39187">
        <ele>272.228</ele>
        <time>2019-06-29T16:45:10Z</time>
      </trkpt>
      <trkpt lat="45.0662" lon="5.39187">
        <ele>273.459</ele>
        <time>2019-06-29T16:45:46Z</time>
      </trkpt>
      <trkpt lat="45.06619" lon="5.39188">
        <ele>273.224</ele>
        <time>2019-06-29T16:45:47Z</time>
      </trkpt>
      <trkpt lat="45.06619" lon="5.39188">
        <ele>273.734</ele>
        <time>2019-06-29T16:45:48Z</time>
      </trkpt>
      <trkpt lat="45.06619" lon="5.39188">
        <ele>273.581</ele>
        <time>2019-06-29T16:45:56Z</time>
      </trkpt>
      <trkpt lat="45.06619" lon="5.39189">
        <ele>273.934</ele>
        <time>2019-06-29T16:45:57Z</time>
      </trkpt>
      <trkpt lat="45.06619" lon="5.39189">
        <ele>273.934</ele>
        <time>2019-06-29T16:45:57Z</time>
      </trkpt>
      <trkpt lat="45.06619" lon="5.39189">
        <ele>273.287</ele>
        <time>2019-06-29T16:45:58Z</time>
      </trkpt>
      <trkpt lat="45.06619" lon="5.39189">
        <ele>273.287</ele>
        <time>2019-06-29T16:45:58Z</time>
      </trkpt>
      <trkpt lat="45.0662" lon="5.39189">
        <ele>273.052</ele>
        <time>2019-06-29T16:45:59Z</time>
      </trkpt>
      <trkpt lat="45.0662" lon="5.39189">
        <ele>273.052</ele>
        <time>2019-06-29T16:45:59Z</time>
      </trkpt>
      <trkpt lat="45.0662" lon="5.39189">
        <ele>273.101</ele>
        <time>2019-06-29T16:46:00Z</time>
      </trkpt>
      <trkpt lat="45.06621" lon="5.39189">
        <ele>273.619</ele>
        <time>2019-06-29T16:46:01Z</time>
      </trkpt>
      <trkpt lat="45.06621" lon="5.39189">
        <ele>273.619</ele>
        <time>2019-06-29T16:46:01Z</time>
      </trkpt>
      <trkpt lat="45.06621" lon="5.39189">
        <ele>273.688</ele>
        <time>2019-06-29T16:46:02Z</time>
      </trkpt>
      <trkpt lat="45.06622" lon="5.39189">
        <ele>274.091</ele>
        <time>2019-06-29T16:46:04Z</time>
      </trkpt>
      <trkpt lat="45.06624" lon="5.3919">
        <ele>273.919</ele>
        <time>2019-06-29T16:46:08Z</time>
      </trkpt>
      <trkpt lat="45.06624" lon="5.3919">
        <ele>273.55</ele>
        <time>2019-06-29T16:46:27Z</time>
      </trkpt>
      <trkpt lat="45.06625" lon="5.3919">
        <ele>273.151</ele>
        <time>2019-06-29T16:46:28Z</time>
      </trkpt>
      <trkpt lat="45.06629" lon="5.39193">
        <ele>272.062</ele>
        <time>2019-06-29T16:46:31Z</time>
      </trkpt>
      <trkpt lat="45.06629" lon="5.39193">
        <ele>272.54</ele>
        <time>2019-06-29T16:46:32Z</time>
      </trkpt>
      <trkpt lat="45.06635" lon="5.39198">
        <ele>272.933</ele>
        <time>2019-06-29T16:46:41Z</time>
      </trkpt>
      <trkpt lat="45.06637" lon="5.39201">
        <ele>271.991</ele>
        <time>2019-06-29T16:46:44Z</time>
      </trkpt>
      <trkpt lat="45.06638" lon="5.39202">
        <ele>272.005</ele>
        <time>2019-06-29T16:46:45Z</time>
      </trkpt>
      <trkpt lat="45.06641" lon="5.39208">
        <ele>274.456</ele>
        <time>2019-06-29T16:46:49Z</time>
      </trkpt>
      <trkpt lat="45.06646" lon="5.39216">
        <ele>275.411</ele>
        <time>2019-06-29T16:46:57Z</time>
      </trkpt>
      <trkpt lat="45.06648" lon="5.39221">
        <ele>275.603</ele>
        <time>2019-06-29T16:47:00Z</time>
      </trkpt>
      <trkpt lat="45.06651" lon="5.39223">
        <ele>275.475</ele>
        <time>2019-06-29T16:47:02Z</time>
      </trkpt>
      <trkpt lat="45.06656" lon="5.39229">
        <ele>277.763</ele>
        <time>2019-06-29T16:47:12Z</time>
      </trkpt>
      <trkpt lat="45.06657" lon="5.39233">
        <ele>278.419</ele>
        <time>2019-06-29T16:47:16Z</time>
      </trkpt>
      <trkpt lat="45.06657" lon="5.39246">
        <ele>278.867</ele>
        <time>2019-06-29T16:47:26Z</time>
      </trkpt>
      <trkpt lat="45.06657" lon="5.39251">
        <ele>278.622</ele>
        <time>2019-06-29T16:47:30Z</time>
      </trkpt>
      <trkpt lat="45.06656" lon="5.39256">
        <ele>278.625</ele>
        <time>2019-06-29T16:47:35Z</time>
      </trkpt>
      <trkpt lat="45.06654" lon="5.39259">
        <ele>278.473</ele>
        <time>2019-06-29T16:47:38Z</time>
      </trkpt>
      <trkpt lat="45.06645" lon="5.39262">
        <ele>278.471</ele>
        <time>2019-06-29T16:47:48Z</time>
      </trkpt>
      <trkpt lat="45.06642" lon="5.39263">
        <ele>277.999</ele>
        <time>2019-06-29T16:47:51Z</time>
      </trkpt>
      <trkpt lat="45.06629" lon="5.39265">
        <ele>277.22</ele>
        <time>2019-06-29T16:48:03Z</time>
      </trkpt>
      <trkpt lat="45.06619" lon="5.39263">
        <ele>276.649</ele>
        <time>2019-06-29T16:48:10Z</time>
      </trkpt>
      <trkpt lat="45.06616" lon="5.39263">
        <ele>277.015</ele>
        <time>2019-06-29T16:48:12Z</time>
      </trkpt>
      <trkpt lat="45.06611" lon="5.39261">
        <ele>276.785</ele>
        <time>2019-06-29T16:48:16Z</time>
      </trkpt>
      <trkpt lat="45.06602" lon="5.39259">
        <ele>275.874</ele>
        <time>2019-06-29T16:48:25Z</time>
      </trkpt>
      <trkpt lat="45.06597" lon="5.39257">
        <ele>275.574</ele>
        <time>2019-06-29T16:48:29Z</time>
      </trkpt>
      <trkpt lat="45.06585" lon="5.39255">
        <ele>273.3</ele>
        <time>2019-06-29T16:48:43Z</time>
      </trkpt>
      <trkpt lat="45.06581" lon="5.39254">
        <ele>273.73</ele>
        <time>2019-06-29T16:48:47Z</time>
      </trkpt>
      <trkpt lat="45.06576" lon="5.39254">
        <ele>273.138</ele>
        <time>2019-06-29T16:48:51Z</time>
      </trkpt>
      <trkpt lat="45.06554" lon="5.39258">
        <ele>272.756</ele>
        <time>2019-06-29T16:49:09Z</time>
      </trkpt>
      <trkpt lat="45.06553" lon="5.39261">
        <ele>272.572</ele>
        <time>2019-06-29T16:49:11Z</time>
      </trkpt>
      <trkpt lat="45.06553" lon="5.39263">
        <ele>272.367</ele>
        <time>2019-06-29T16:49:13Z</time>
      </trkpt>
      <trkpt lat="45.06553" lon="5.39263">
        <ele>271.99</ele>
        <time>2019-06-29T16:49:14Z</time>
      </trkpt>
      <trkpt lat="45.06553" lon="5.39263">
        <ele>272.011</ele>
        <time>2019-06-29T16:49:16Z</time>
      </trkpt>
      <trkpt lat="45.06553" lon="5.39264">
        <ele>271.941</ele>
        <time>2019-06-29T16:49:17Z</time>
      </trkpt>
      <trkpt lat="45.06552" lon="5.39262">
        <ele>271.42</ele>
        <time>2019-06-29T16:49:19Z</time>
      </trkpt>
      <trkpt lat="45.06551" lon="5.39261">
        <ele>270.825</ele>
        <time>2019-06-29T16:49:20Z</time>
      </trkpt>
      <trkpt lat="45.06549" lon="5.39261">
        <ele>269.935</ele>
        <time>2019-06-29T16:49:24Z</time>
      </trkpt>
      <trkpt lat="45.06549" lon="5.39262">
        <ele>270.006</ele>
        <time>2019-06-29T16:49:26Z</time>
      </trkpt>
      <trkpt lat="45.06549" lon="5.39262">
        <ele>269.487</ele>
        <time>2019-06-29T16:49:27Z</time>
      </trkpt>
      <trkpt lat="45.06549" lon="5.39262">
        <ele>268.914</ele>
        <time>2019-06-29T16:49:35Z</time>
      </trkpt>
      <trkpt lat="45.06549" lon="5.3926">
        <ele>268.559</ele>
        <time>2019-06-29T16:49:36Z</time>
      </trkpt>
      <trkpt lat="45.06549" lon="5.39259">
        <ele>267.959</ele>
        <time>2019-06-29T16:49:37Z</time>
      </trkpt>
      <trkpt lat="45.06547" lon="5.39255">
        <ele>267.125</ele>
        <time>2019-06-29T16:49:41Z</time>
      </trkpt>
      <trkpt lat="45.06543" lon="5.39252">
        <ele>267.88</ele>
        <time>2019-06-29T16:49:45Z</time>
      </trkpt>
      <trkpt lat="45.06539" lon="5.39247">
        <ele>267.55</ele>
        <time>2019-06-29T16:49:49Z</time>
      </trkpt>
      <trkpt lat="45.06539" lon="5.39247">
        <ele>267.402</ele>
        <time>2019-06-29T16:49:50Z</time>
      </trkpt>
      <trkpt lat="45.06539" lon="5.39247">
        <ele>267.799</ele>
        <time>2019-06-29T16:49:51Z</time>
      </trkpt>
      <trkpt lat="45.06539" lon="5.39246">
        <ele>267.928</ele>
        <time>2019-06-29T16:49:52Z</time>
      </trkpt>
      <trkpt lat="45.06539" lon="5.39245">
        <ele>267.12</ele>
        <time>2019-06-29T16:49:53Z</time>
      </trkpt>
      <trkpt lat="45.06539" lon="5.39245">
        <ele>267.065</ele>
        <time>2019-06-29T16:49:54Z</time>
      </trkpt>
      <trkpt lat="45.06539" lon="5.39242">
        <ele>266.994</ele>
        <time>2019-06-29T16:49:56Z</time>
      </trkpt>
      <trkpt lat="45.0654" lon="5.39239">
        <ele>267.143</ele>
        <time>2019-06-29T16:50:00Z</time>
      </trkpt>
      <trkpt lat="45.0654" lon="5.39239">
        <ele>267.108</ele>
        <time>2019-06-29T16:50:01Z</time>
      </trkpt>
      <trkpt lat="45.0654" lon="5.39239">
        <ele>266.996</ele>
        <time>2019-06-29T16:50:08Z</time>
      </trkpt>
      <trkpt lat="45.06539" lon="5.39239">
        <ele>266.545</ele>
        <time>2019-06-29T16:50:09Z</time>
      </trkpt>
      <trkpt lat="45.06539" lon="5.3924">
        <ele>267.088</ele>
        <time>2019-06-29T16:50:10Z</time>
      </trkpt>
      <trkpt lat="45.06536" lon="5.3924">
        <ele>265.972</ele>
        <time>2019-06-29T16:50:13Z</time>
      </trkpt>
      <trkpt lat="45.06532" lon="5.39241">
        <ele>264.818</ele>
        <time>2019-06-29T16:50:16Z</time>
      </trkpt>
      <trkpt lat="45.06531" lon="5.39241">
        <ele>265.137</ele>
        <time>2019-06-29T16:50:17Z</time>
      </trkpt>
      <trkpt lat="45.06531" lon="5.39241">
        <ele>266.124</ele>
        <time>2019-06-29T16:50:19Z</time>
      </trkpt>
      <trkpt lat="45.06531" lon="5.39241">
        <ele>266.124</ele>
        <time>2019-06-29T16:50:19Z</time>
      </trkpt>
      <trkpt lat="45.06531" lon="5.39241">
        <ele>265.756</ele>
        <time>2019-06-29T16:50:20Z</time>
      </trkpt>
      <trkpt lat="45.06531" lon="5.3924">
        <ele>265.114</ele>
        <time>2019-06-29T16:50:21Z</time>
      </trkpt>
      <trkpt lat="45.06531" lon="5.3924">
        <ele>265.114</ele>
        <time>2019-06-29T16:50:21Z</time>
      </trkpt>
      <trkpt lat="45.06531" lon="5.3924">
        <ele>265.204</ele>
        <time>2019-06-29T16:50:22Z</time>
      </trkpt>
      <trkpt lat="45.06531" lon="5.3924">
        <ele>264.906</ele>
        <time>2019-06-29T16:50:24Z</time>
      </trkpt>
      <trkpt lat="45.06531" lon="5.39239">
        <ele>264.651</ele>
        <time>2019-06-29T16:50:25Z</time>
      </trkpt>
      <trkpt lat="45.0653" lon="5.39239">
        <ele>264.497</ele>
        <time>2019-06-29T16:50:26Z</time>
      </trkpt>
      <trkpt lat="45.06528" lon="5.39238">
        <ele>265.144</ele>
        <time>2019-06-29T16:50:29Z</time>
      </trkpt>
      <trkpt lat="45.06528" lon="5.39238">
        <ele>265.022</ele>
        <time>2019-06-29T16:50:59Z</time>
      </trkpt>
      <trkpt lat="45.06529" lon="5.39237">
        <ele>264.964</ele>
        <time>2019-06-29T16:51:00Z</time>
      </trkpt>
      <trkpt lat="45.06529" lon="5.39238">
        <ele>264.587</ele>
        <time>2019-06-29T16:51:01Z</time>
      </trkpt>
      <trkpt lat="45.06529" lon="5.39238">
        <ele>264.652</ele>
        <time>2019-06-29T16:51:02Z</time>
      </trkpt>
      <trkpt lat="45.06529" lon="5.39238">
        <ele>264.27</ele>
        <time>2019-06-29T16:51:04Z</time>
      </trkpt>
      <trkpt lat="45.06529" lon="5.39239">
        <ele>263.531</ele>
        <time>2019-06-29T16:51:05Z</time>
      </trkpt>
      <trkpt lat="45.06526" lon="5.39235">
        <ele>264.64</ele>
        <time>2019-06-29T16:51:08Z</time>
      </trkpt>
      <trkpt lat="45.06522" lon="5.39231">
        <ele>262.563</ele>
        <time>2019-06-29T16:51:14Z</time>
      </trkpt>
      <trkpt lat="45.06519" lon="5.39231">
        <ele>261.873</ele>
        <time>2019-06-29T16:51:17Z</time>
      </trkpt>
      <trkpt lat="45.06512" lon="5.39231">
        <ele>262.141</ele>
        <time>2019-06-29T16:51:21Z</time>
      </trkpt>
      <trkpt lat="45.06508" lon="5.39233">
        <ele>264.425</ele>
        <time>2019-06-29T16:51:25Z</time>
      </trkpt>
      <trkpt lat="45.06502" lon="5.39235">
        <ele>264.996</ele>
        <time>2019-06-29T16:51:29Z</time>
      </trkpt>
      <trkpt lat="45.06497" lon="5.39239">
        <ele>265.182</ele>
        <time>2019-06-29T16:51:32Z</time>
      </trkpt>
      <trkpt lat="45.06496" lon="5.39243">
        <ele>265.299</ele>
        <time>2019-06-29T16:51:35Z</time>
      </trkpt>
      <trkpt lat="45.06493" lon="5.39249">
        <ele>266.024</ele>
        <time>2019-06-29T16:51:39Z</time>
      </trkpt>
      <trkpt lat="45.06492" lon="5.39253">
        <ele>266.023</ele>
        <time>2019-06-29T16:51:42Z</time>
      </trkpt>
      <trkpt lat="45.0648" lon="5.39281">
        <ele>267.809</ele>
        <time>2019-06-29T16:52:01Z</time>
      </trkpt>
      <trkpt lat="45.06479" lon="5.39283">
        <ele>268.299</ele>
        <time>2019-06-29T16:52:02Z</time>
      </trkpt>
      <trkpt lat="45.06458" lon="5.39316">
        <ele>270.529</ele>
        <time>2019-06-29T16:52:22Z</time>
      </trkpt>
      <trkpt lat="45.0644" lon="5.39349">
        <ele>272.197</ele>
        <time>2019-06-29T16:52:44Z</time>
      </trkpt>
      <trkpt lat="45.06436" lon="5.39358">
        <ele>272.081</ele>
        <time>2019-06-29T16:52:50Z</time>
      </trkpt>
      <trkpt lat="45.0643" lon="5.39367">
        <ele>272.405</ele>
        <time>2019-06-29T16:52:58Z</time>
      </trkpt>
      <trkpt lat="45.06427" lon="5.39372">
        <ele>272.805</ele>
        <time>2019-06-29T16:53:01Z</time>
      </trkpt>
      <trkpt lat="45.06422" lon="5.39395">
        <ele>273.348</ele>
        <time>2019-06-29T16:53:19Z</time>
      </trkpt>
      <trkpt lat="45.06421" lon="5.39407">
        <ele>274.534</ele>
        <time>2019-06-29T16:53:25Z</time>
      </trkpt>
      <trkpt lat="45.0642" lon="5.39409">
        <ele>274.962</ele>
        <time>2019-06-29T16:53:27Z</time>
      </trkpt>
      <trkpt lat="45.06416" lon="5.39424">
        <ele>277.114</ele>
        <time>2019-06-29T16:53:37Z</time>
      </trkpt>
      <trkpt lat="45.06415" lon="5.39431">
        <ele>276.973</ele>
        <time>2019-06-29T16:53:42Z</time>
      </trkpt>
      <trkpt lat="45.06413" lon="5.39435">
        <ele>277.457</ele>
        <time>2019-06-29T16:53:45Z</time>
      </trkpt>
      <trkpt lat="45.06412" lon="5.39439">
        <ele>278.402</ele>
        <time>2019-06-29T16:53:48Z</time>
      </trkpt>
      <trkpt lat="45.0641" lon="5.39445">
        <ele>278.268</ele>
        <time>2019-06-29T16:53:53Z</time>
      </trkpt>
      <trkpt lat="45.0641" lon="5.39446">
        <ele>278.249</ele>
        <time>2019-06-29T16:53:54Z</time>
      </trkpt>
      <trkpt lat="45.0641" lon="5.39448">
        <ele>278.995</ele>
        <time>2019-06-29T16:53:57Z</time>
      </trkpt>
      <trkpt lat="45.06411" lon="5.3945">
        <ele>280.076</ele>
        <time>2019-06-29T16:54:02Z</time>
      </trkpt>
      <trkpt lat="45.06411" lon="5.39453">
        <ele>279.7</ele>
        <time>2019-06-29T16:54:05Z</time>
      </trkpt>
      <trkpt lat="45.06411" lon="5.39454">
        <ele>279.549</ele>
        <time>2019-06-29T16:54:06Z</time>
      </trkpt>
      <trkpt lat="45.06412" lon="5.39459">
        <ele>280.148</ele>
        <time>2019-06-29T16:54:09Z</time>
      </trkpt>
      <trkpt lat="45.06412" lon="5.39463">
        <ele>279.797</ele>
        <time>2019-06-29T16:54:12Z</time>
      </trkpt>
      <trkpt lat="45.06413" lon="5.39468">
        <ele>279.978</ele>
        <time>2019-06-29T16:54:15Z</time>
      </trkpt>
      <trkpt lat="45.06414" lon="5.39476">
        <ele>280.204</ele>
        <time>2019-06-29T16:54:21Z</time>
      </trkpt>
      <trkpt lat="45.06414" lon="5.39479">
        <ele>279.601</ele>
        <time>2019-06-29T16:54:24Z</time>
      </trkpt>
      <trkpt lat="45.06413" lon="5.39495">
        <ele>279.261</ele>
        <time>2019-06-29T16:54:35Z</time>
      </trkpt>
      <trkpt lat="45.06396" lon="5.39531">
        <ele>280.252</ele>
        <time>2019-06-29T16:55:04Z</time>
      </trkpt>
      <trkpt lat="45.06392" lon="5.39536">
        <ele>280.306</ele>
        <time>2019-06-29T16:55:10Z</time>
      </trkpt>
      <trkpt lat="45.06381" lon="5.39546">
        <ele>279.732</ele>
        <time>2019-06-29T16:55:24Z</time>
      </trkpt>
      <trkpt lat="45.06381" lon="5.39546">
        <ele>279.732</ele>
        <time>2019-06-29T16:55:24Z</time>
      </trkpt>
      <trkpt lat="45.06381" lon="5.39546">
        <ele>279.771</ele>
        <time>2019-06-29T16:55:25Z</time>
      </trkpt>
      <trkpt lat="45.0637" lon="5.39553">
        <ele>280.377</ele>
        <time>2019-06-29T16:55:39Z</time>
      </trkpt>
      <trkpt lat="45.06367" lon="5.39554">
        <ele>280.234</ele>
        <time>2019-06-29T16:55:41Z</time>
      </trkpt>
      <trkpt lat="45.06364" lon="5.39558">
        <ele>281.128</ele>
        <time>2019-06-29T16:55:45Z</time>
      </trkpt>
      <trkpt lat="45.06362" lon="5.39562">
        <ele>280.756</ele>
        <time>2019-06-29T16:55:49Z</time>
      </trkpt>
      <trkpt lat="45.06362" lon="5.39563">
        <ele>280.649</ele>
        <time>2019-06-29T16:55:50Z</time>
      </trkpt>
      <trkpt lat="45.06362" lon="5.39563">
        <ele>280.916</ele>
        <time>2019-06-29T16:55:52Z</time>
      </trkpt>
      <trkpt lat="45.06362" lon="5.39563">
        <ele>280.916</ele>
        <time>2019-06-29T16:55:52Z</time>
      </trkpt>
      <trkpt lat="45.06362" lon="5.39563">
        <ele>281.158</ele>
        <time>2019-06-29T16:55:53Z</time>
      </trkpt>
      <trkpt lat="45.06362" lon="5.39563">
        <ele>281.843</ele>
        <time>2019-06-29T16:55:54Z</time>
      </trkpt>
      <trkpt lat="45.06362" lon="5.39563">
        <ele>282.555</ele>
        <time>2019-06-29T16:55:59Z</time>
      </trkpt>
      <trkpt lat="45.06362" lon="5.39565">
        <ele>282.262</ele>
        <time>2019-06-29T16:56:00Z</time>
      </trkpt>
      <trkpt lat="45.06361" lon="5.39565">
        <ele>282.001</ele>
        <time>2019-06-29T16:56:01Z</time>
      </trkpt>
      <trkpt lat="45.0636" lon="5.39563">
        <ele>282.211</ele>
        <time>2019-06-29T16:56:03Z</time>
      </trkpt>
      <trkpt lat="45.06361" lon="5.39562">
        <ele>281.583</ele>
        <time>2019-06-29T16:56:05Z</time>
      </trkpt>
      <trkpt lat="45.06361" lon="5.39562">
        <ele>282.065</ele>
        <time>2019-06-29T16:56:07Z</time>
      </trkpt>
      <trkpt lat="45.06361" lon="5.39562">
        <ele>282.108</ele>
        <time>2019-06-29T16:56:08Z</time>
      </trkpt>
      <trkpt lat="45.06361" lon="5.39562">
        <ele>281.893</ele>
        <time>2019-06-29T16:56:09Z</time>
      </trkpt>
      <trkpt lat="45.06361" lon="5.39563">
        <ele>281.75</ele>
        <time>2019-06-29T16:56:10Z</time>
      </trkpt>
      <trkpt lat="45.06361" lon="5.39563">
        <ele>281.75</ele>
        <time>2019-06-29T16:56:10Z</time>
      </trkpt>
      <trkpt lat="45.0636" lon="5.39564">
        <ele>281.469</ele>
        <time>2019-06-29T16:56:11Z</time>
      </trkpt>
      <trkpt lat="45.0636" lon="5.39565">
        <ele>281.479</ele>
        <time>2019-06-29T16:56:12Z</time>
      </trkpt>
      <trkpt lat="45.0636" lon="5.39565">
        <ele>281.521</ele>
        <time>2019-06-29T16:56:13Z</time>
      </trkpt>
      <trkpt lat="45.0636" lon="5.39565">
        <ele>281.546</ele>
        <time>2019-06-29T16:56:14Z</time>
      </trkpt>
      <trkpt lat="45.06359" lon="5.39565">
        <ele>281.441</ele>
        <time>2019-06-29T16:56:15Z</time>
      </trkpt>
      <trkpt lat="45.06358" lon="5.39566">
        <ele>281.307</ele>
        <time>2019-06-29T16:56:17Z</time>
      </trkpt>
      <trkpt lat="45.06358" lon="5.39566">
        <ele>281.518</ele>
        <time>2019-06-29T16:56:19Z</time>
      </trkpt>
      <trkpt lat="45.06358" lon="5.39566">
        <ele>280.825</ele>
        <time>2019-06-29T16:56:20Z</time>
      </trkpt>
      <trkpt lat="45.06358" lon="5.39566">
        <ele>280.36</ele>
        <time>2019-06-29T16:56:21Z</time>
      </trkpt>
      <trkpt lat="45.06358" lon="5.39566">
        <ele>280.36</ele>
        <time>2019-06-29T16:56:21Z</time>
      </trkpt>
      <trkpt lat="45.06358" lon="5.39565">
        <ele>280.367</ele>
        <time>2019-06-29T16:56:22Z</time>
      </trkpt>
      <trkpt lat="45.06358" lon="5.39564">
        <ele>280.073</ele>
        <time>2019-06-29T16:56:23Z</time>
      </trkpt>
      <trkpt lat="45.06358" lon="5.39564">
        <ele>280.177</ele>
        <time>2019-06-29T16:56:24Z</time>
      </trkpt>
      <trkpt lat="45.06358" lon="5.39564">
        <ele>280.361</ele>
        <time>2019-06-29T16:57:17Z</time>
      </trkpt>
      <trkpt lat="45.06358" lon="5.39563">
        <ele>280.31</ele>
        <time>2019-06-29T16:57:18Z</time>
      </trkpt>
      <trkpt lat="45.06358" lon="5.39563">
        <ele>279.941</ele>
        <time>2019-06-29T16:57:19Z</time>
      </trkpt>
      <trkpt lat="45.06358" lon="5.39563">
        <ele>280.834</ele>
        <time>2019-06-29T16:57:21Z</time>
      </trkpt>
      <trkpt lat="45.06359" lon="5.39564">
        <ele>280.086</ele>
        <time>2019-06-29T16:57:22Z</time>
      </trkpt>
      <trkpt lat="45.0636" lon="5.39564">
        <ele>280.732</ele>
        <time>2019-06-29T16:57:24Z</time>
      </trkpt>
      <trkpt lat="45.0636" lon="5.39564">
        <ele>281.096</ele>
        <time>2019-06-29T16:57:26Z</time>
      </trkpt>
      <trkpt lat="45.06359" lon="5.39562">
        <ele>280.277</ele>
        <time>2019-06-29T16:57:27Z</time>
      </trkpt>
      <trkpt lat="45.0636" lon="5.3956">
        <ele>279.435</ele>
        <time>2019-06-29T16:57:28Z</time>
      </trkpt>
      <trkpt lat="45.0636" lon="5.39559">
        <ele>279.79</ele>
        <time>2019-06-29T16:57:29Z</time>
      </trkpt>
      <trkpt lat="45.0636" lon="5.39559">
        <ele>279.79</ele>
        <time>2019-06-29T16:57:29Z</time>
      </trkpt>
      <trkpt lat="45.0636" lon="5.39559">
        <ele>279.803</ele>
        <time>2019-06-29T16:57:30Z</time>
      </trkpt>
      <trkpt lat="45.06356" lon="5.39562">
        <ele>279.981</ele>
        <time>2019-06-29T16:57:34Z</time>
      </trkpt>
      <trkpt lat="45.06356" lon="5.39562">
        <ele>281.692</ele>
        <time>2019-06-29T16:57:36Z</time>
      </trkpt>
      <trkpt lat="45.06357" lon="5.39563">
        <ele>281.958</ele>
        <time>2019-06-29T16:57:38Z</time>
      </trkpt>
      <trkpt lat="45.06357" lon="5.39563">
        <ele>281.958</ele>
        <time>2019-06-29T16:57:38Z</time>
      </trkpt>
      <trkpt lat="45.06357" lon="5.39563">
        <ele>282.263</ele>
        <time>2019-06-29T16:57:39Z</time>
      </trkpt>
      <trkpt lat="45.06357" lon="5.39563">
        <ele>282.309</ele>
        <time>2019-06-29T16:57:40Z</time>
      </trkpt>
      <trkpt lat="45.06357" lon="5.39563">
        <ele>282.309</ele>
        <time>2019-06-29T16:57:40Z</time>
      </trkpt>
      <trkpt lat="45.06356" lon="5.39563">
        <ele>283.116</ele>
        <time>2019-06-29T16:57:41Z</time>
      </trkpt>
      <trkpt lat="45.06355" lon="5.39564">
        <ele>283.019</ele>
        <time>2019-06-29T16:57:42Z</time>
      </trkpt>
      <trkpt lat="45.06353" lon="5.39571">
        <ele>283.282</ele>
        <time>2019-06-29T16:57:46Z</time>
      </trkpt>
      <trkpt lat="45.06353" lon="5.39577">
        <ele>283.354</ele>
        <time>2019-06-29T16:57:49Z</time>
      </trkpt>
      <trkpt lat="45.06355" lon="5.3958">
        <ele>283.553</ele>
        <time>2019-06-29T16:57:51Z</time>
      </trkpt>
      <trkpt lat="45.06356" lon="5.3958">
        <ele>282.484</ele>
        <time>2019-06-29T16:57:52Z</time>
      </trkpt>
      <trkpt lat="45.06356" lon="5.39581">
        <ele>283.315</ele>
        <time>2019-06-29T16:57:53Z</time>
      </trkpt>
      <trkpt lat="45.06357" lon="5.39583">
        <ele>283.942</ele>
        <time>2019-06-29T16:57:54Z</time>
      </trkpt>
      <trkpt lat="45.06357" lon="5.39585">
        <ele>283.276</ele>
        <time>2019-06-29T16:57:56Z</time>
      </trkpt>
      <trkpt lat="45.06358" lon="5.39585">
        <ele>282.905</ele>
        <time>2019-06-29T16:57:57Z</time>
      </trkpt>
      <trkpt lat="45.06358" lon="5.39585">
        <ele>282.905</ele>
        <time>2019-06-29T16:57:57Z</time>
      </trkpt>
      <trkpt lat="45.06358" lon="5.39585">
        <ele>283.366</ele>
        <time>2019-06-29T16:57:58Z</time>
      </trkpt>
      <trkpt lat="45.06358" lon="5.39585">
        <ele>282.164</ele>
        <time>2019-06-29T16:58:00Z</time>
      </trkpt>
      <trkpt lat="45.06358" lon="5.39585">
        <ele>283.479</ele>
        <time>2019-06-29T17:01:44Z</time>
      </trkpt>
      <trkpt lat="45.06359" lon="5.39583">
        <ele>282.788</ele>
        <time>2019-06-29T17:01:45Z</time>
      </trkpt>
      <trkpt lat="45.06359" lon="5.39583">
        <ele>282.802</ele>
        <time>2019-06-29T17:01:46Z</time>
      </trkpt>
      <trkpt lat="45.06359" lon="5.39583">
        <ele>282.802</ele>
        <time>2019-06-29T17:01:46Z</time>
      </trkpt>
      <trkpt lat="45.06359" lon="5.39583">
        <ele>282.115</ele>
        <time>2019-06-29T17:01:47Z</time>
      </trkpt>
      <trkpt lat="45.06359" lon="5.39583">
        <ele>282.108</ele>
        <time>2019-06-29T17:01:48Z</time>
      </trkpt>
      <trkpt lat="45.06359" lon="5.39583">
        <ele>281.959</ele>
        <time>2019-06-29T17:02:21Z</time>
      </trkpt>
      <trkpt lat="45.06358" lon="5.39583">
        <ele>283.1</ele>
        <time>2019-06-29T17:02:22Z</time>
      </trkpt>
      <trkpt lat="45.06358" lon="5.39583">
        <ele>283.346</ele>
        <time>2019-06-29T17:02:23Z</time>
      </trkpt>
      <trkpt lat="45.06358" lon="5.39583">
        <ele>283.994</ele>
        <time>2019-06-29T17:02:44Z</time>
      </trkpt>
      <trkpt lat="45.06358" lon="5.39582">
        <ele>283.406</ele>
        <time>2019-06-29T17:02:45Z</time>
      </trkpt>
      <trkpt lat="45.06358" lon="5.39581">
        <ele>285.141</ele>
        <time>2019-06-29T17:02:48Z</time>
      </trkpt>
      <trkpt lat="45.06358" lon="5.39581">
        <ele>285.141</ele>
        <time>2019-06-29T17:02:48Z</time>
      </trkpt>
      <trkpt lat="45.06358" lon="5.3958">
        <ele>285.433</ele>
        <time>2019-06-29T17:02:49Z</time>
      </trkpt>
      <trkpt lat="45.06358" lon="5.3958">
        <ele>285.433</ele>
        <time>2019-06-29T17:02:49Z</time>
      </trkpt>
      <trkpt lat="45.06358" lon="5.3958">
        <ele>285.892</ele>
        <time>2019-06-29T17:02:50Z</time>
      </trkpt>
      <trkpt lat="45.06358" lon="5.3958">
        <ele>285.892</ele>
        <time>2019-06-29T17:02:50Z</time>
      </trkpt>
      <trkpt lat="45.06358" lon="5.3958">
        <ele>285.4</ele>
        <time>2019-06-29T17:02:51Z</time>
      </trkpt>
      <trkpt lat="45.06358" lon="5.39581">
        <ele>283.741</ele>
        <time>2019-06-29T17:02:53Z</time>
      </trkpt>
      <trkpt lat="45.06358" lon="5.39581">
        <ele>283.777</ele>
        <time>2019-06-29T17:02:54Z</time>
      </trkpt>
      <trkpt lat="45.06358" lon="5.39581">
        <ele>283.905</ele>
        <time>2019-06-29T17:03:01Z</time>
      </trkpt>
      <trkpt lat="45.06359" lon="5.3958">
        <ele>283.508</ele>
        <time>2019-06-29T17:03:02Z</time>
      </trkpt>
      <trkpt lat="45.06359" lon="5.3958">
        <ele>283.508</ele>
        <time>2019-06-29T17:03:03Z</time>
      </trkpt>
    </trkseg>
  </trk>
</gpx>